GFSGBSN_con_sbcape_000.txt.gz
CAPE
32 22 14 22 13 13 15 16 34 17 105 68 103 101 101 45 8 3 11 7 11 12 6 24 31 22 39 2 0 0 0 0 0 0 2 2 1 0 0 0 0 0 0 0 0 0 0
20 26 16 27 32 27 18 34 27 9 4 133 95 124 141 89 33 11 7 5 10 5 28 20 55 11 0 0 0 0 0 0 0 0 0 0 1 0 0 0 0 0 0 0 0 0 0
25 21 23 27 20 19 26 44 43 24 10 53 119 144 160 120 73 16 11 11 11 1 15 18 49 0 0 0 0 0 0 0 0 0 0 0 0 11 9 0 0 0 0 0 0 0 0
22 20 22 19 15 19 26 40 36 34 15 11 29 100 108 129 102 67 36 25 39 51 60 29 51 9 0 0 0 0 0 0 0 0 0 0 0 2 3 0 0 4 1 0 0 0 0
21 23 23 19 22 29 26 18 31 43 25 18 17 24 95 119 131 104 86 64 48 19 36 47 0 0 0 0 0 0 0 0 0 0 0 0 0 0 0 0 0 0 0 0 0 0 0
38 24 24 21 22 36 30 30 44 50 37 21 22 7 14 100 143 108 124 66 58 36 18 0 1 0 0 0 0 0 0 0 0 0 0 0 0 0 3 0 0 0 1 0 1 0 0
29 28 35 36 24 26 25 29 47 77 49 34 38 51 5 32 128 108 45 0 0 18 31 0 0 0 0 0 0 0 0 0 0 0 0 0 2 5 0 0 0 0 0 1 0 0 0
36 63 61 70 44 22 14 23 63 75 73 40 53 29 27 6 174 63 0 0 0 0 0 0 0 0 0 0 0 0 0 0 0 0 0 1 1 0 0 0 2 7 10 2 0 0 0
75 84 84 78 94 86 59 49 64 87 74 78 56 38 31 5 125 12 0 0 0 0 0 0 0 0 0 0 0 0 0 0 0 0 0 0 0 0 0 0 0 0 0 0 0 0 0
75 75 82 91 97 89 92 73 101 103 104 87 69 25 31 29 61 2 2 0 0 0 0 0 1 0 0 0 2 0 0 0 0 0 0 0 0 0 0 0 0 1 0 0 0 0 0
55 61 61 93 96 120 101 144 156 143 141 104 77 31 31 26 16 2 0 0 0 0 0 0 0 0 0 0 0 0 0 5 0 0 0 0 0 0 0 0 0 0 0 0 5 16 9
75 92 90 105 122 150 148 187 148 189 122 64 108 59 69 26 10 0 0 0 0 0 0 0 0 25 14 3 18 0 2 7 3 1 1 0 0 0 0 0 0 1 0 0 0 14 6
87 91 109 129 154 210 202 133 74 101 78 178 156 102 104 27 10 0 1 5 0 0 0 1 4 12 13 16 11 9 4 12 16 14 11 17 1 0 0 0 0 0 9 0 12 8 0
87 101 113 133 165 153 140 54 72 62 74 93 135 105 56 31 58 0 2 0 0 0 0 0 0 3 3 6 10 10 16 21 15 5 11 0 0 0 0 0 0 0 0 0 0 3 0
107 102 116 124 122 115 55 38 46 90 76 82 130 77 58 0 29 0 1 0 0 0 0 0 1 2 3 0 0 9 16 7 0 7 11 3 0 0 0 0 1 24 1 0 0 0 1
89 99 111 115 103 95 49 58 61 176 85 60 47 6 7 16 34 25 0 0 0 0 0 0 0 0 0 1 0 5 0 0 7 1 1 0 6 0 0 0 0 9 0 12 3 0 0
91 113 116 109 100 79 59 50 56 98 69 89 29 19 44 32 50 20 0 0 0 0 0 0 0 0 0 0 0 3 0 0 0 0 0 0 3 0 4 1 1 4 9 1 4 0 0
102 107 123 113 107 83 54 50 60 63 67 37 10 0 54 75 15 15 1 0 0 0 0 5 0 1 0 0 0 0 0 0 0 0 0 6 42 1 0 0 0 0 0 0 0 0 0
114 109 98 134 115 105 54 45 46 70 74 54 28 92 63 47 3 4 0 0 0 0 0 0 0 0 2 0 0 0 0 0 0 0 0 1 32 5 0 1 2 19 0 0 0 0 0
109 112 96 125 122 105 46 46 49 68 40 19 20 15 38 41 23 0 0 0 0 0 0 9 11 0 1 7 0 0 0 0 0 0 1 2 33 3 0 2 4 15 5 0 2 2 0
111 97 95 97 111 90 42 38 36 65 21 18 17 7 2 1 15 0 2 0 0 0 0 10 24 12 9 24 2 0 0 0 0 0 22 15 6 5 2 0 4 16 10 2 2 0 0
101 81 91 100 91 68 35 71 47 58 45 3 17 2 0 0 0 0 0 0 0 0 16 13 2 0 5 22 0 0 0 0 0 0 3 12 3 1 3 14 5 16 10 18 8 0 0
86 95 75 76 73 25 35 75 69 53 54 15 5 5 4 10 8 0 0 0 0 5 1 0 1 12 9 4 3 0 0 0 0 1 8 6 3 9 0 6 12 7 0 3 3 0 0
77 96 56 66 60 18 29 29 42 51 62 19 19 17 30 9 10 0 0 0 0 6 2 0 0 12 8 6 3 0 0 0 0 0 0 1 5 3 0 5 1 0 0 0 0 0 0
70 74 68 50 50 22 28 24 36 46 47 18 8 15 30 2 11 0 4 0 0 4 5 3 0 1 17 18 14 14 0 0 0 0 0 0 5 7 5 0 0 0 1 0 0 0 0
67 68 76 54 52 36 25 24 16 43 35 9 1 4 14 1 0 0 3 3 3 4 5 1 0 0 17 20 14 9 0 0 0 0 0 0 0 4 0 0 0 0 0 0 0 1 0
35 50 66 47 29 37 21 33 14 30 23 17 4 3 5 2 0 9 7 5 0 0 0 0 0 2 8 20 13 26 0 0 0 0 0 0 0 1 0 0 0 0 0 0 0 0 0
55 32 48 53 43 39 15 30 18 23 45 33 2 9 6 0 0 0 0 0 0 0 0 0 1 8 10 17 14 7 8 0 0 0 0 0 0 0 0 0 0 0 0 0 0 0 0
61 58 58 64 43 45 31 37 16 18 52 43 10 0 1 1 0 0 0 0 0 0 0 0 0 10 13 36 1 0 0 0 0 0 0 0 0 0 0 0 0 0 0 0 0 0 0

GFSGBSN_con_sbcape_003.txt.gz
CAPE
23 21 22 24 21 20 16 15 21 18 24 26 24 75 104 112 113 26 0 0 5 1 6 0 0 1 4 12 0 0 0 0 0 0 3 0 0 0 0 0 0 0 0 0 0 0 0
28 27 27 27 22 20 23 15 13 21 22 27 15 41 55 79 121 90 27 0 0 0 15 0 3 0 0 0 0 0 0 0 0 4 0 0 0 0 0 0 0 0 0 0 0 0 0
27 28 26 29 25 20 27 31 22 12 23 30 18 32 23 66 64 119 14 0 0 0 17 17 10 0 0 0 0 0 0 0 0 0 0 0 0 0 0 0 0 0 0 0 0 0 0
28 33 20 22 19 25 26 25 22 25 21 36 30 16 25 7 68 117 98 32 7 40 43 18 28 0 0 0 0 0 0 0 0 0 0 0 0 0 0 0 0 0 0 0 0 0 0
19 21 34 23 37 35 40 32 24 26 24 41 32 17 26 9 12 97 106 129 88 38 43 60 0 0 0 0 0 0 0 0 0 0 0 0 0 0 0 0 0 0 0 0 0 0 0
30 26 31 36 28 25 36 37 33 36 35 67 35 38 34 16 12 48 94 107 70 25 3 0 1 0 0 0 0 0 0 0 0 0 0 0 0 0 0 0 0 0 0 0 0 0 0
58 65 83 76 72 37 3 20 29 35 57 47 52 61 70 37 41 35 36 14 13 12 2 0 0 0 0 0 0 0 0 0 0 0 0 0 0 1 0 0 0 0 0 0 1 0 0
74 75 75 79 86 72 83 77 33 58 61 108 74 66 77 72 82 10 7 0 0 0 0 0 0 0 0 0 0 0 0 0 0 0 0 1 2 0 0 0 0 0 0 0 0 0 0
56 59 56 82 83 83 82 98 77 107 122 133 131 93 67 79 105 13 2 0 0 0 0 0 0 0 0 0 0 0 0 0 0 0 0 0 0 0 0 0 5 3 5 2 2 0 0
39 63 78 74 75 82 103 138 115 161 152 180 125 56 91 90 62 48 2 0 0 0 0 0 0 0 0 0 0 0 0 0 0 0 0 1 0 0 0 0 0 4 0 0 0 9 4
77 62 61 74 79 91 149 178 151 215 134 148 119 139 124 113 45 83 0 0 0 0 0 0 0 1 3 0 0 0 0 1 0 0 0 0 0 0 0 0 0 0 0 0 0 13 8
58 67 65 81 97 121 157 177 201 154 166 61 57 103 117 105 86 0 3 0 0 0 0 0 1 27 21 2 22 0 10 25 2 2 0 0 0 0 0 0 0 0 0 0 0 4 16
61 57 75 82 122 135 158 123 102 109 88 70 14 29 54 86 29 30 19 10 2 0 0 3 7 34 13 10 14 6 7 11 12 7 3 2 1 0 0 0 0 0 17 10 17 22 1
32 41 73 102 136 149 124 100 74 74 110 133 94 94 43 74 40 8 5 4 0 0 0 0 2 18 9 6 9 7 0 14 10 1 1 0 0 0 0 1 0 0 0 2 0 0 0
47 31 79 116 141 155 117 89 64 156 160 121 109 28 96 27 8 31 15 0 0 0 0 1 5 7 4 1 1 10 14 5 1 1 3 0 0 0 0 0 0 28 6 0 2 0 1
33 54 104 128 120 155 103 91 46 83 123 106 76 54 27 5 26 57 4 0 0 0 0 0 0 0 2 1 1 9 9 0 0 0 2 3 5 0 0 0 0 1 1 7 7 5 0
69 73 106 123 111 139 94 90 59 69 96 104 17 44 26 24 39 9 1 1 0 0 0 0 0 0 0 1 0 2 0 0 0 0 0 4 8 0 8 5 0 8 29 17 13 11 1
58 76 101 115 125 142 90 65 53 55 97 50 22 12 42 8 0 3 3 0 0 0 0 0 0 0 0 0 0 0 0 0 0 0 1 0 9 13 0 0 0 0 0 0 3 0 0
36 75 97 105 125 137 85 33 43 47 85 51 14 119 64 0 7 7 1 0 0 0 0 0 0 0 0 0 0 0 0 0 0 0 0 0 42 0 0 0 1 12 0 0 0 0 0
9 67 91 108 115 107 38 41 16 38 55 72 19 30 36 40 8 0 0 0 0 0 0 0 0 0 0 4 0 0 0 0 0 0 0 1 20 0 0 0 4 11 2 3 5 3 0
25 69 87 96 90 89 31 52 56 49 70 39 30 6 1 3 6 0 0 0 0 0 0 0 10 9 0 24 10 2 0 0 0 0 0 5 2 3 5 1 0 14 5 2 9 0 0
39 52 76 86 75 77 26 54 68 72 68 13 15 19 0 0 0 0 0 0 0 0 2 10 0 1 12 20 0 0 0 0 0 0 1 14 11 3 1 8 5 5 31 4 2 0 0
53 37 70 79 56 66 20 75 66 75 56 13 12 3 4 2 1 0 0 0 0 0 0 1 0 11 12 3 1 0 0 0 1 0 3 10 2 6 0 1 14 5 3 7 16 5 0
36 43 54 80 76 62 25 30 43 71 61 26 13 8 6 10 0 0 0 0 0 0 7 3 0 19 7 3 2 3 0 0 0 0 0 3 4 6 2 4 3 1 0 0 0 0 0
41 40 38 71 62 51 54 21 26 24 43 15 11 7 11 1 11 0 0 0 0 0 1 2 0 0 27 19 5 5 2 0 0 0 0 0 2 7 4 11 0 0 0 0 0 0 0
28 52 47 49 70 53 55 30 19 21 26 6 3 7 21 13 0 0 0 0 0 0 5 13 0 0 12 17 13 11 0 0 0 0 0 0 0 8 11 2 0 0 0 0 0 0 0
17 33 55 60 66 60 51 28 19 5 8 22 12 17 7 7 0 0 0 0 3 2 0 0 0 0 12 16 8 14 0 0 0 0 1 2 2 3 2 2 0 0 0 0 0 0 0
8 13 22 34 39 51 56 36 48 4 11 35 14 16 11 11 1 1 0 0 0 0 3 0 4 3 8 9 14 10 0 0 0 0 0 0 0 0 0 0 0 0 0 0 0 0 0
7 8 16 37 58 45 49 65 34 8 8 53 13 0 3 8 0 0 0 0 0 0 0 0 0 1 7 17 8 2 6 0 0 0 0 0 0 0 0 0 0 0 0 0 0 0 0

GFSGBSN_con_sbcape_006.txt.gz
CAPE
19 26 27 25 28 20 20 24 26 14 7 9 14 16 27 20 46 100 92 2 0 6 5 0 0 0 41 24 1 0 0 0 34 67 13 10 1 0 0 0 0 2 0 1 2 0 0
28 26 23 20 25 23 29 27 27 17 8 11 16 25 22 29 11 83 123 68 0 8 1 0 0 0 0 13 0 0 0 0 34 83 21 4 12 0 0 0 0 0 0 0 0 0 0
22 21 26 30 28 41 53 50 43 31 25 17 23 41 27 12 16 7 107 66 10 4 11 13 0 0 0 0 0 0 0 0 0 77 29 6 6 4 7 14 9 0 0 0 0 0 0
21 20 21 18 38 45 50 50 48 37 37 24 24 46 44 12 27 17 69 146 73 61 29 12 0 0 0 0 0 0 0 0 0 0 46 59 51 10 1 5 3 1 0 0 0 0 0
34 50 61 41 42 49 37 53 49 31 29 37 42 28 48 36 24 21 8 117 88 90 29 29 0 0 0 0 0 0 0 0 0 0 0 17 0 0 0 0 0 0 0 0 0 0 0
58 44 55 78 92 89 77 64 70 50 20 32 55 40 42 58 36 17 6 109 87 52 40 0 0 1 0 0 0 0 0 0 0 0 0 5 10 9 1 5 0 0 0 0 0 0 0
37 50 83 88 96 82 84 84 104 92 72 62 49 69 57 57 50 23 13 102 2 28 13 0 0 0 0 0 0 0 0 0 0 6 16 12 10 3 0 0 0 0 0 0 0 0 0
54 72 84 81 79 91 81 98 101 84 88 95 112 139 93 71 62 37 46 1 0 0 2 1 0 0 0 0 0 0 0 0 0 3 11 7 5 0 0 0 0 0 0 0 0 0 0
70 69 69 73 77 80 101 97 110 126 126 139 79 123 138 102 68 22 20 14 0 0 0 10 2 1 0 0 0 0 0 0 0 7 5 0 0 0 0 1 1 0 1 0 0 0 0
48 39 49 84 80 96 117 121 138 155 181 154 126 136 104 87 46 14 21 47 0 0 0 0 9 1 0 0 0 0 0 0 0 0 3 3 0 0 1 2 0 1 0 0 5 6 1
43 53 68 74 92 116 129 133 142 135 118 74 123 88 59 58 52 52 60 12 0 0 4 0 9 14 12 0 0 2 0 0 4 0 0 0 0 2 3 1 3 0 0 1 6 12 5
58 58 49 85 108 117 123 136 99 76 73 78 50 48 44 29 33 18 84 0 0 1 2 14 28 25 25 10 8 7 15 17 6 11 8 4 0 0 2 0 1 1 9 12 9 4 16
44 50 72 90 114 117 110 122 86 71 79 63 68 72 49 34 13 37 111 2 1 10 0 14 21 28 9 11 28 11 28 24 13 18 18 5 4 1 0 5 7 16 19 8 11 29 1
65 76 89 98 106 92 107 110 86 41 39 105 67 152 50 13 38 52 50 7 5 2 0 2 20 13 17 14 25 13 17 24 16 5 9 3 0 2 2 3 1 7 8 7 0 2 12
69 69 86 95 88 102 115 94 70 43 99 134 87 136 101 58 57 74 11 5 13 0 1 2 21 14 13 5 14 6 8 6 2 4 6 4 1 0 0 0 4 10 16 1 33 11 57
67 77 82 87 99 107 110 97 50 53 89 126 1 146 179 174 63 34 7 19 0 0 0 0 2 1 1 7 8 6 15 0 5 0 2 7 8 0 0 1 0 13 7 25 53 23 37
44 64 77 90 94 113 106 52 44 54 80 79 11 22 66 114 6 6 18 5 4 0 0 0 1 2 0 6 3 5 2 0 0 0 6 13 4 6 10 11 1 8 11 46 38 60 22
47 70 73 91 77 90 74 32 52 49 78 47 15 11 111 50 11 6 10 2 4 0 0 0 0 0 0 1 2 4 2 0 0 0 10 2 15 19 5 0 0 5 10 8 38 17 43
61 61 65 70 77 63 51 26 37 35 65 21 26 28 63 52 39 39 7 4 29 3 0 0 0 0 0 0 0 1 0 0 0 0 1 12 41 7 0 1 1 10 0 8 22 26 17
45 66 61 69 83 69 47 19 24 24 40 61 4 9 37 0 34 1 2 7 5 0 1 0 0 0 0 0 0 0 0 0 0 0 0 3 17 6 0 1 6 49 4 12 22 24 2
51 50 66 66 69 62 48 21 37 58 46 37 17 17 4 11 21 18 4 0 1 0 0 1 0 0 0 1 3 1 0 0 0 0 0 17 22 12 4 5 9 19 17 30 10 1 8
21 39 47 60 56 34 43 25 59 57 20 24 6 19 12 23 4 4 0 0 0 0 0 0 0 2 1 3 1 4 0 2 1 0 2 18 15 14 4 3 9 11 13 24 28 22 13
44 52 61 60 52 36 33 48 66 63 14 24 11 5 33 6 9 15 1 0 0 0 0 0 2 2 4 1 0 5 1 0 0 8 10 8 11 18 1 3 3 12 6 6 6 8 11
34 47 52 47 58 33 32 16 40 38 37 12 25 13 20 15 4 0 0 0 0 0 26 1 0 7 16 19 13 9 20 4 10 19 17 9 4 8 5 2 9 7 0 0 2 1 1
36 32 36 36 53 36 27 9 25 15 25 11 11 13 8 25 5 0 0 0 0 2 6 9 1 3 14 22 28 9 11 8 4 13 20 18 27 47 45 17 0 0 0 3 1 0 0
23 18 15 11 17 23 20 5 27 6 16 5 17 1 11 11 5 0 0 0 0 0 16 7 1 4 29 35 32 17 0 0 0 0 0 1 4 29 20 6 3 0 0 0 0 0 0
15 17 13 14 16 41 17 23 17 1 5 22 22 0 4 7 6 0 8 8 19 15 0 0 0 1 23 28 31 6 7 0 0 0 6 4 7 7 13 17 0 0 0 0 0 0 0
12 13 14 8 3 6 16 5 3 1 0 26 31 2 4 5 0 7 3 0 0 0 4 0 5 8 19 13 7 5 3 1 0 0 0 0 6 2 5 0 0 0 0 0 0 0 0
10 12 13 6 4 5 11 10 9 14 9 13 21 29 1 7 2 0 0 0 0 2 16 3 3 1 8 13 8 5 2 0 0 5 0 0 0 0 0 0 0 0 0 0 0 0 0

GFSGBSN_con_sbcape_009.txt.gz
CAPE
11 10 13 21 16 27 34 30 29 22 14 13 10 9 22 17 13 14 15 101 95 7 15 6 0 0 47 72 16 0 0 0 49 67 18 18 15 16 12 1 2 3 0 0 0 0 0
16 15 21 24 25 33 34 40 41 32 26 24 15 5 17 24 6 8 19 36 131 13 16 7 0 0 7 68 0 0 0 2 7 85 4 30 17 12 17 15 0 4 0 0 0 0 1
32 27 38 24 35 24 37 23 31 35 37 17 15 19 4 18 17 5 12 17 104 33 25 27 0 0 2 4 0 0 0 0 43 69 29 17 3 22 23 10 10 0 0 0 0 0 0
42 50 55 48 60 41 54 62 60 58 38 17 19 17 28 13 23 8 4 15 7 134 42 35 0 0 1 0 0 0 0 1 28 38 39 34 14 18 10 12 0 0 0 0 0 0 0
43 42 51 74 72 66 78 87 84 119 93 52 17 30 38 28 22 19 12 12 5 78 87 59 0 3 3 0 0 0 0 10 0 0 15 15 29 15 10 5 0 0 0 0 0 0 0
48 44 59 79 93 81 88 87 108 96 101 96 67 32 60 58 38 44 22 15 2 68 75 29 3 1 0 0 0 0 0 11 2 1 0 0 3 7 3 7 0 0 0 0 0 0 0
53 53 81 75 86 75 98 116 116 121 134 134 88 100 33 79 69 63 39 0 62 65 59 13 0 0 0 0 0 0 0 5 11 4 1 7 7 1 1 2 0 0 0 0 0 0 0
44 45 65 71 85 78 113 121 158 172 167 151 137 144 132 114 109 76 63 21 24 3 21 8 0 2 0 0 0 1 0 2 11 9 7 3 8 0 2 0 0 0 0 0 0 0 0
46 68 76 85 77 84 116 151 182 173 188 168 185 165 124 138 87 87 63 0 10 0 13 13 3 6 1 0 1 1 0 1 5 7 5 6 0 0 0 0 0 0 0 0 0 0 0
59 55 53 65 80 104 133 146 146 145 158 124 109 93 106 42 83 2 8 74 36 0 1 22 13 7 0 0 1 2 0 1 3 3 2 9 1 0 0 0 0 0 0 0 0 1 0
57 65 76 94 97 120 131 129 136 146 112 75 48 46 62 20 43 49 61 83 32 5 13 6 6 6 14 0 0 6 5 2 4 0 0 0 0 1 0 0 0 0 0 0 2 8 0
54 64 79 93 95 102 104 144 138 106 97 117 41 56 87 40 46 27 50 54 37 7 6 26 9 14 12 11 12 12 16 12 4 4 5 0 0 0 0 0 0 0 1 3 3 1 6
69 66 74 91 108 99 115 131 118 96 44 36 57 73 65 12 20 22 66 29 12 20 2 13 9 21 15 7 15 14 10 14 1 11 7 5 1 3 0 1 4 2 2 6 12 28 0
69 64 77 95 105 105 126 117 88 26 53 49 116 56 102 100 0 17 33 84 53 34 5 3 19 23 23 6 0 6 3 9 8 3 3 2 5 3 1 2 2 6 5 1 0 0 0
69 62 78 98 99 111 120 115 42 60 66 91 18 37 189 43 12 44 9 38 7 15 4 13 11 18 22 3 14 23 10 16 8 7 2 3 0 0 0 0 1 8 11 2 15 7 14
61 62 73 82 91 93 103 50 48 49 66 65 15 53 162 120 53 50 29 53 7 4 3 2 6 6 3 7 11 11 11 3 4 4 4 1 1 0 2 0 3 2 1 10 30 7 5
64 74 65 80 84 75 88 21 58 53 47 15 24 14 165 177 41 7 31 8 17 7 0 4 1 3 1 3 1 2 4 1 6 6 4 4 1 1 3 3 0 3 16 19 7 19 17
58 68 68 68 81 75 67 34 53 42 69 8 10 17 112 106 5 17 70 3 14 8 0 0 1 0 0 0 4 4 3 0 0 2 5 4 10 5 0 0 0 0 0 4 29 0 5
38 55 52 60 70 68 49 31 30 30 57 43 19 23 48 67 92 58 7 2 14 25 43 28 1 0 0 0 0 3 2 0 0 0 7 2 17 6 1 0 0 3 0 1 11 16 20
29 41 53 53 84 63 34 31 28 17 31 35 3 46 35 19 43 39 14 15 25 40 35 9 0 0 0 0 0 3 1 0 0 0 1 13 11 14 0 12 1 19 6 6 9 35 7
28 43 50 40 58 63 31 21 36 34 6 8 5 35 34 40 9 22 14 27 24 12 10 0 0 0 0 0 2 1 2 0 0 1 0 10 32 15 4 3 4 3 6 4 3 21 18
28 31 41 26 60 54 54 29 58 33 5 9 4 8 7 4 19 21 9 20 19 14 9 0 0 1 0 7 8 6 6 3 5 0 3 15 26 25 6 2 0 13 2 5 9 8 22
26 24 27 27 48 35 51 53 46 41 15 12 10 4 8 5 9 17 23 8 12 14 3 1 9 12 15 19 11 4 5 2 6 12 12 14 20 11 1 0 0 5 1 4 4 4 7
17 12 11 10 12 24 16 38 9 13 31 11 16 10 11 15 16 9 0 0 3 26 29 5 6 13 28 12 12 6 3 6 2 0 1 18 2 6 22 1 11 2 0 0 2 4 5
15 11 9 10 13 28 19 35 21 1 4 12 18 7 8 16 11 2 0 16 7 3 2 16 6 5 8 16 24 8 7 4 0 5 10 11 21 27 31 9 0 1 0 0 5 0 0
17 16 8 7 2 3 10 6 7 4 3 16 18 0 4 10 5 2 4 1 19 17 9 6 11 20 29 56 24 16 18 1 2 9 3 18 13 19 17 16 7 0 0 0 0 1 0
13 18 14 6 2 3 2 6 3 6 3 12 33 0 4 7 5 5 7 14 2 9 22 6 3 1 12 37 23 49 12 0 2 3 1 7 6 3 5 18 0 0 0 0 1 0 0
16 14 16 12 2 3 5 7 10 8 6 11 15 1 0 5 0 1 11 14 32 29 26 3 13 7 25 13 25 20 32 16 0 0 0 1 4 6 3 7 0 0 0 0 0 0 0
14 21 15 19 9 6 6 10 11 14 12 10 6 22 13 3 1 0 0 1 2 27 16 8 34 18 19 7 7 6 18 12 10 7 0 4 1 10 0 5 0 0 0 0 0 0 0

GFSGBSN_con_sbcape_012.txt.gz
CAPE
27 23 20 31 40 40 31 38 40 44 41 44 23 24 18 9 8 13 8 11 13 85 15 4 0 0 0 79 35 29 21 31 76 72 38 9 3 1 0 0 0 0 0 0 0 0 0
18 30 34 26 34 34 39 41 39 42 47 55 41 37 37 27 18 14 10 8 12 58 78 13 0 0 0 59 30 0 0 1 17 90 54 20 31 20 13 11 4 3 4 1 0 0 0
22 38 40 50 48 73 71 89 95 79 96 103 76 55 44 47 42 32 17 17 9 31 113 46 0 0 2 1 0 0 0 0 13 89 73 42 27 20 10 19 5 3 0 0 0 0 0
46 40 53 58 69 78 75 81 95 106 109 138 140 115 44 25 50 30 31 17 13 13 12 69 33 0 6 0 0 0 0 0 17 116 83 36 13 2 5 1 2 0 0 0 0 0 0
36 60 53 60 53 62 80 87 114 134 125 130 145 159 145 69 48 55 36 34 18 11 44 82 0 3 0 0 0 0 0 11 28 32 75 49 35 3 1 0 0 0 0 0 0 0 0
58 52 54 69 68 81 74 101 115 124 139 163 147 154 152 101 70 87 62 55 9 5 134 62 25 16 0 0 0 0 0 7 3 42 11 21 2 0 0 0 0 0 0 0 0 0 0
32 40 60 51 65 84 96 114 124 139 160 162 170 184 154 122 123 111 81 73 58 111 41 15 0 0 0 0 0 0 0 4 11 20 2 4 0 0 0 0 0 0 0 0 0 0 0
44 47 49 72 88 104 111 130 138 142 146 153 179 169 162 155 161 158 93 51 32 37 16 16 5 7 0 0 0 0 0 0 5 7 0 0 0 0 0 0 0 0 0 0 0 0 0
52 48 67 88 98 100 116 125 121 141 157 117 116 124 123 89 90 123 43 43 48 2 28 10 15 16 2 0 0 0 0 1 1 3 3 0 0 0 0 0 0 0 0 0 0 0 0
53 46 78 89 98 92 104 107 132 144 111 98 90 47 30 70 117 64 46 90 2 22 1 15 8 17 2 5 3 0 0 0 4 1 2 0 0 0 0 0 0 0 0 0 0 0 0
58 42 77 95 99 91 104 122 150 117 86 61 33 9 12 36 39 34 64 72 28 31 5 8 7 8 0 1 0 4 1 0 3 2 0 0 0 0 0 0 0 0 0 0 0 0 0
53 46 80 91 105 85 92 104 96 51 28 31 26 60 84 38 69 13 45 49 0 5 4 14 4 3 10 28 8 1 8 2 0 0 0 0 0 0 0 0 0 0 0 0 0 0 0
44 50 81 91 93 89 72 67 57 32 34 28 37 84 104 88 3 34 10 10 6 6 9 29 19 16 9 19 21 13 8 5 0 1 0 0 0 0 0 0 0 1 0 0 0 1 0
39 51 71 77 81 64 50 54 14 37 25 73 139 141 62 96 1 8 2 12 5 1 28 0 11 15 6 12 11 18 12 18 5 0 0 0 0 0 0 0 0 2 0 0 0 0 0
44 47 65 69 84 65 61 38 9 43 93 88 117 100 48 67 26 6 2 21 11 15 5 6 16 20 4 12 4 11 10 4 0 1 0 0 0 0 0 0 0 1 0 0 0 0 0
54 46 58 57 70 57 59 14 20 68 91 105 58 111 61 11 9 5 15 82 21 8 2 5 0 2 1 4 6 9 11 1 1 0 0 0 0 0 0 0 0 0 0 1 5 0 0
34 51 48 56 58 39 54 22 37 69 76 77 41 47 64 85 62 20 18 9 7 1 0 0 0 1 0 2 5 1 0 0 0 0 3 0 0 0 0 1 0 0 2 3 0 0 0
42 48 50 62 55 43 34 23 21 56 88 39 14 26 45 70 16 5 22 5 7 2 24 2 2 0 0 0 3 0 0 0 0 0 1 0 2 0 0 0 0 0 0 0 4 0 0
28 45 56 44 55 38 20 15 20 38 65 30 29 47 56 58 12 10 2 7 6 13 14 0 0 1 0 0 0 1 0 0 0 0 1 0 2 0 0 0 0 1 0 0 0 0 0
28 34 39 41 48 52 24 8 45 22 27 34 10 3 7 7 6 7 5 15 35 32 27 4 0 0 0 2 1 1 0 0 0 0 2 3 5 0 0 0 0 0 0 0 0 4 0
26 31 23 41 36 19 19 16 22 21 17 5 4 5 6 45 35 2 7 12 22 10 14 0 0 0 0 3 0 2 0 0 0 0 0 1 0 0 0 0 0 0 0 0 0 2 4
20 26 17 15 19 20 9 38 13 11 0 7 8 3 0 1 32 1 10 11 11 14 13 0 0 2 0 0 7 0 4 0 1 0 0 0 7 0 0 0 0 0 0 0 0 0 9
22 22 15 15 14 19 16 34 13 9 5 14 4 5 5 0 4 6 10 3 10 4 2 0 10 4 15 7 0 1 1 0 4 0 0 12 6 0 0 0 0 0 0 0 3 0 3
17 22 19 15 8 10 3 1 2 1 3 9 16 10 6 0 1 3 3 0 1 3 1 1 1 15 8 3 4 0 2 3 7 1 0 4 0 1 3 0 0 0 0 0 0 0 0
18 17 22 19 12 7 5 1 1 2 0 0 6 7 6 4 0 0 5 0 0 0 0 10 5 2 2 6 6 5 7 1 0 1 0 2 2 8 13 1 0 0 0 0 0 0 0
22 13 20 17 17 12 9 4 2 3 0 0 7 0 7 8 1 14 5 2 3 6 2 13 5 1 6 32 4 4 5 1 0 2 13 7 2 14 15 7 0 0 0 0 0 0 0
34 16 23 15 13 15 19 14 4 6 2 0 9 3 8 7 0 0 5 14 1 8 8 6 3 2 0 1 10 21 2 0 0 0 3 13 14 8 6 7 0 0 0 0 0 0 0
38 21 22 23 17 16 18 28 17 5 5 3 0 18 6 6 0 0 1 5 26 25 2 0 2 2 4 2 2 12 16 4 0 0 0 0 2 6 2 7 0 0 0 0 0 0 0
41 21 17 31 20 20 20 25 29 21 7 5 5 1 17 5 1 0 0 0 0 0 4 1 18 2 12 3 5 9 4 3 3 1 0 1 0 0 0 0 0 0 0 0 0 0 0

GFSGBSN_con_sbcape_015.txt.gz
CAPE
32 27 24 22 35 28 23 49 56 63 62 80 64 67 67 60 47 50 28 31 11 15 73 174 63 11 0 29 0 40 164 118 51 39 0 0 0 0 0 0 0 0 0 0 0 0 0
33 50 41 46 61 69 57 70 80 94 108 118 98 96 85 53 48 28 36 27 17 20 17 105 77 36 2 9 0 9 0 17 60 55 36 34 0 0 1 0 0 0 0 0 0 0 0
39 40 41 41 55 61 72 75 73 99 121 141 124 124 129 116 61 66 26 21 24 12 23 15 121 11 2 0 0 0 0 0 3 58 42 64 20 32 5 0 0 0 0 0 0 0 0
47 63 42 41 53 44 60 86 75 115 130 131 144 160 178 145 111 61 32 21 18 3 10 9 111 32 3 0 0 0 0 1 0 9 54 26 10 5 15 0 0 0 0 0 0 0 0
44 40 38 44 56 66 73 89 112 126 138 171 161 165 150 153 117 73 67 47 24 9 10 10 54 20 1 0 0 0 0 6 75 31 68 42 22 1 1 2 0 0 0 0 0 0 0
41 42 32 67 68 77 82 101 113 123 147 142 151 149 169 166 133 115 118 82 21 16 0 59 41 24 0 0 0 0 0 16 16 77 79 36 11 0 0 0 1 0 0 0 0 0 0
33 30 50 59 68 68 73 79 97 120 142 117 110 105 115 156 145 145 60 10 37 79 20 29 1 0 0 0 0 0 0 4 11 7 0 1 0 0 0 0 0 0 0 0 0 0 0
41 51 51 61 73 72 67 82 89 102 89 79 48 64 82 91 92 119 45 18 44 28 25 57 4 6 0 0 0 0 0 3 7 0 0 0 0 0 0 0 0 0 0 0 0 0 0
33 34 40 62 77 74 70 69 81 86 55 33 27 38 41 34 65 44 8 7 40 17 26 18 27 4 0 1 0 0 0 0 0 1 0 0 0 0 0 0 0 0 0 0 0 0 0
35 29 52 61 79 81 69 57 62 59 55 37 28 32 41 28 2 0 26 72 6 3 4 13 16 25 6 1 0 0 0 1 10 3 0 0 0 0 0 0 0 0 0 0 0 0 0
41 29 59 65 64 68 68 56 61 64 46 88 55 58 86 83 10 0 19 43 0 0 0 16 7 3 11 0 0 1 0 3 1 0 0 0 0 0 0 0 0 0 0 0 0 0 0
28 37 60 63 61 62 63 63 61 31 43 75 70 89 137 68 35 2 9 8 4 0 0 16 1 34 19 15 4 0 0 0 0 0 0 0 0 0 0 0 0 0 0 0 0 0 0
35 49 41 55 66 59 59 58 34 32 59 92 84 101 202 84 4 6 4 1 0 1 4 15 24 15 8 12 4 4 4 0 0 0 0 0 0 0 0 0 0 0 0 0 0 0 0
28 30 32 56 69 51 47 51 17 34 63 55 57 209 25 48 0 0 0 6 0 21 16 6 16 15 19 12 5 14 5 0 0 0 0 0 0 0 0 0 0 0 0 0 0 0 0
36 32 47 55 63 42 64 40 33 45 80 80 88 0 4 44 1 0 0 0 3 13 10 6 12 37 13 13 2 14 9 1 0 0 0 0 0 0 0 0 0 0 0 0 0 0 0
31 24 50 57 75 56 55 47 45 72 61 104 5 22 35 17 0 0 0 36 6 9 12 4 1 0 14 16 0 5 10 0 0 0 0 0 0 0 0 0 0 0 0 0 0 0 0
22 30 31 49 69 47 46 44 34 28 73 21 0 13 24 0 0 0 16 3 10 3 1 1 0 0 0 7 0 0 0 0 0 0 0 0 0 0 0 0 0 0 0 0 0 0 0
26 27 20 43 61 33 30 29 31 38 20 0 0 10 0 4 2 2 11 7 11 0 0 8 0 0 0 0 0 0 0 0 0 0 0 0 0 0 0 0 0 0 0 0 0 0 0
15 26 12 22 41 43 27 28 9 26 31 0 0 10 7 4 5 6 4 7 3 19 17 3 1 0 0 0 0 0 0 0 0 0 0 0 0 0 1 0 0 0 0 0 0 0 0
27 21 9 10 25 40 34 27 17 3 6 0 0 0 0 0 0 3 4 11 0 0 2 0 0 0 0 0 0 0 0 0 0 0 5 0 0 0 0 0 0 0 0 0 0 0 0
26 23 7 9 14 8 9 13 11 0 0 0 0 0 0 0 0 0 2 9 0 0 1 0 0 0 0 0 0 0 0 0 0 0 0 0 0 0 0 0 0 0 0 0 0 0 1
29 24 9 7 10 11 1 4 14 5 0 0 0 3 0 0 0 0 0 0 0 0 0 0 0 0 0 0 0 0 0 0 0 0 0 0 0 0 0 0 0 0 0 0 0 0 0
28 26 21 11 7 11 5 1 14 15 0 0 1 3 6 0 0 0 0 1 0 0 0 0 0 0 1 0 0 0 1 0 0 0 0 2 0 0 0 0 0 0 0 0 0 0 2
23 17 25 22 10 3 8 2 2 2 2 0 4 5 4 0 0 0 0 0 0 0 0 0 0 0 0 0 0 0 0 1 2 0 0 0 0 0 0 0 0 0 0 0 0 0 0
10 33 19 26 23 16 2 6 5 2 0 0 2 0 4 3 0 0 0 0 0 0 0 0 0 0 0 0 0 4 4 0 1 0 0 0 0 0 0 0 0 0 0 0 0 0 0
14 39 15 28 9 11 20 5 9 5 0 0 1 0 4 6 0 0 8 3 0 0 0 2 0 0 0 5 0 0 5 0 0 4 2 0 1 1 6 2 0 0 0 0 0 0 0
14 39 22 18 27 13 22 15 22 11 3 0 0 1 1 9 0 0 3 4 1 3 1 12 0 0 0 0 0 0 0 0 0 0 13 13 9 1 4 4 0 0 0 0 0 0 0
13 33 15 19 23 25 28 18 19 16 13 0 0 4 4 5 0 0 0 2 0 0 0 0 0 0 0 1 0 1 0 0 0 0 0 0 0 7 5 1 0 0 0 0 0 0 0
13 23 5 10 20 27 17 15 28 28 16 5 0 0 0 4 0 0 0 0 0 0 1 0 0 0 0 0 0 0 5 0 0 0 0 0 0 0 0 0 0 0 0 0 0 0 0

GFSGBSN_con_sbcape_018.txt.gz
CAPE
32 34 59 32 38 25 25 22 68 67 88 116 147 143 129 92 77 80 49 18 20 17 0 1 10 142 15 24 1 6 280 315 53 1 0 0 0 0 0 0 0 0 0 0 0 0 0
26 43 30 35 43 35 53 69 85 85 104 129 138 138 140 150 152 104 61 34 11 4 0 0 3 70 10 10 0 49 63 93 73 6 0 0 0 0 0 0 0 0 0 0 0 0 0
36 32 43 47 49 65 76 93 91 98 110 139 172 195 189 180 134 117 39 28 9 13 2 0 3 39 9 0 0 7 41 41 71 47 0 0 7 5 0 0 0 0 0 0 0 0 0
40 34 37 30 64 64 72 74 76 78 95 108 134 140 158 148 132 113 77 48 19 9 6 2 3 53 1 0 0 0 0 0 2 32 39 36 0 0 0 0 0 0 0 0 0 0 0
26 28 47 54 62 69 87 72 75 71 81 82 81 77 86 117 143 124 117 71 40 18 13 7 18 28 0 0 0 0 0 2 69 56 48 40 28 12 0 0 0 0 0 0 0 0 0
43 49 41 52 64 79 85 67 75 84 79 67 72 73 78 80 120 128 144 100 57 16 6 9 47 3 0 0 0 0 0 15 52 70 27 50 6 1 0 0 0 0 0 0 0 0 0
36 49 32 55 62 71 74 75 56 70 69 53 46 48 64 78 96 93 25 0 15 2 5 19 20 0 0 0 0 0 0 14 63 6 3 2 0 0 0 0 0 0 0 0 0 0 0
20 35 30 71 71 77 69 64 70 81 68 54 52 44 52 60 49 73 10 0 35 1 0 3 4 0 0 0 0 0 0 5 59 0 0 0 0 0 0 0 0 0 0 0 0 0 0
36 29 35 59 75 67 65 42 76 85 66 36 33 50 50 75 92 5 4 28 27 4 14 12 9 1 4 0 0 0 0 0 9 0 0 0 0 0 0 0 0 0 0 0 0 0 0
29 32 37 60 72 72 61 62 68 61 21 51 52 47 73 100 14 0 13 109 35 0 0 25 16 4 22 8 0 0 1 0 0 0 0 0 0 0 0 0 0 0 0 0 0 0 0
28 40 30 44 63 60 53 50 63 47 54 67 98 123 119 171 17 4 19 0 0 0 0 2 21 11 12 0 0 1 0 0 0 0 0 0 0 0 0 0 0 0 0 0 0 0 0
17 31 35 48 67 63 33 70 67 54 61 71 88 119 212 132 57 11 0 0 0 0 0 3 7 12 21 1 0 3 4 0 0 2 0 0 0 0 0 0 0 0 0 0 0 0 0
23 29 38 61 60 53 44 61 52 57 61 61 112 89 108 103 38 8 0 1 0 0 3 12 12 12 14 10 0 14 0 0 0 0 4 0 0 0 0 0 0 0 0 0 0 0 0
21 22 26 55 51 57 50 50 41 45 53 106 84 3 35 12 1 0 2 1 0 1 8 14 8 9 7 5 9 9 1 0 0 0 0 0 0 0 0 0 0 0 0 0 0 0 0
25 21 22 35 56 49 47 39 42 42 121 126 21 0 41 0 0 0 0 0 0 6 15 22 5 2 5 0 7 0 0 0 0 0 0 0 0 0 0 0 0 0 0 0 0 0 0
14 15 16 36 24 28 27 32 30 84 77 41 0 1 9 0 0 0 0 12 8 8 3 0 2 0 3 1 1 1 1 0 0 0 0 0 0 0 0 0 0 0 0 0 0 0 0
11 11 11 22 16 19 24 21 19 11 8 0 0 0 0 0 0 0 7 2 9 12 3 4 0 0 0 0 0 0 0 0 0 0 0 0 0 0 0 0 0 0 0 0 0 0 0
12 8 7 20 7 11 10 6 9 9 3 0 0 0 0 0 1 6 5 5 3 0 0 0 0 0 0 0 0 0 0 0 0 0 0 0 0 0 0 0 0 0 0 0 0 0 0
12 6 5 15 7 6 2 2 2 6 9 0 0 0 0 0 0 7 1 1 0 6 0 0 0 0 0 0 0 0 0 0 0 0 0 0 0 0 0 0 0 0 0 0 0 0 0
17 3 4 7 17 4 2 2 1 0 0 0 0 0 0 0 0 0 0 0 0 0 0 0 0 0 0 0 0 0 0 0 0 0 4 0 0 0 0 0 0 0 0 0 0 0 0
19 5 1 5 18 7 2 3 0 0 0 0 0 0 0 0 0 0 0 0 0 0 0 0 0 0 0 0 0 0 0 0 0 12 3 0 0 0 0 0 0 0 0 0 0 0 0
9 3 5 4 13 10 6 3 2 0 0 0 0 2 0 0 0 0 0 0 0 0 0 0 0 0 0 0 0 0 0 0 0 0 0 0 0 0 1 0 0 0 0 0 0 0 0
1 19 1 11 8 11 7 6 4 1 0 0 0 0 3 0 0 0 0 0 0 0 0 0 0 0 0 0 0 0 0 0 0 0 0 0 0 0 0 0 0 0 0 0 0 0 0
0 10 4 15 15 12 7 9 7 3 0 0 0 4 1 0 0 0 0 0 0 0 0 0 0 0 0 0 0 0 0 0 0 0 0 0 0 0 0 0 0 0 0 0 0 0 0
1 5 6 5 16 15 13 8 8 5 1 0 5 0 4 0 0 0 0 0 0 0 0 0 0 0 0 0 0 11 5 5 3 0 0 0 0 0 0 0 0 0 0 0 0 0 0
1 10 22 4 17 28 27 20 11 9 0 0 0 0 5 3 0 0 0 0 0 0 0 0 0 0 0 0 0 0 3 3 6 5 0 0 1 0 5 0 0 0 0 0 0 0 0
1 19 32 8 13 25 20 21 25 10 5 0 0 0 2 9 1 0 0 0 0 0 0 0 0 0 0 0 0 0 0 0 1 0 19 18 17 11 8 0 0 0 0 0 0 0 0
12 20 34 9 3 6 21 13 11 25 21 0 0 0 0 7 0 0 0 0 0 0 0 0 0 0 0 0 0 1 0 0 0 0 0 0 3 24 2 1 0 0 0 0 0 0 0
19 18 19 35 6 5 19 14 13 19 12 12 0 0 0 4 0 0 0 0 0 0 0 0 0 0 0 0 0 0 1 0 0 0 0 0 0 0 0 0 0 0 0 0 0 0 0

GFSGBSN_con_sbcape_021.txt.gz
CAPE
33 26 22 31 28 48 67 70 70 75 85 90 94 93 121 97 141 180 152 82 20 14 11 1 0 1 15 11 0 0 255 347 109 43 0 0 0 0 0 0 0 0 0 0 0 0 0
39 37 28 27 33 64 66 63 66 55 60 70 75 79 87 101 125 136 139 89 33 4 10 7 0 5 23 2 0 0 108 234 143 2 0 0 0 0 0 0 0 0 0 0 0 0 0
25 34 30 44 36 60 71 63 65 44 51 60 77 67 47 38 63 105 135 105 55 13 14 17 4 12 29 0 0 0 154 203 82 0 0 0 0 0 0 0 0 0 0 0 0 0 0
31 35 33 47 35 61 71 66 72 50 73 40 64 70 55 41 49 85 146 126 97 37 11 17 12 18 6 0 0 0 0 37 88 55 17 23 23 4 0 0 0 0 0 0 0 0 0
38 31 38 47 44 72 66 69 60 57 59 73 64 55 57 52 63 81 117 153 119 59 18 30 7 45 1 0 0 0 0 25 17 45 70 56 11 4 0 0 0 0 0 0 0 0 0
29 44 30 50 63 76 71 75 69 79 81 75 51 40 28 38 66 74 94 146 112 63 13 16 12 11 0 0 0 0 0 92 135 108 105 85 34 2 0 1 0 0 0 0 0 0 0
13 33 27 52 60 76 74 85 77 78 85 87 50 22 15 13 53 56 11 0 0 1 4 0 23 0 0 0 2 0 0 29 118 81 57 0 16 5 0 0 0 0 0 0 0 0 0
31 27 46 34 49 71 76 82 88 96 88 29 14 17 58 77 97 129 0 0 46 15 0 0 22 2 6 7 0 0 0 54 71 6 0 0 1 0 0 0 0 1 1 0 0 0 0
26 20 31 32 58 73 65 63 70 83 54 10 75 115 107 106 92 2 3 4 10 18 15 1 2 14 12 12 0 0 0 5 1 0 0 2 0 0 0 0 0 0 0 0 0 0 0
25 28 31 58 65 73 63 70 58 56 74 69 87 100 104 148 30 3 0 51 40 0 0 1 3 9 16 1 0 0 1 1 0 0 9 1 0 0 0 0 0 0 0 0 0 0 0
27 25 28 52 51 71 67 43 56 60 64 59 56 72 112 87 9 10 0 0 0 0 0 5 2 24 6 0 0 1 0 0 0 0 0 0 0 0 0 0 0 0 0 0 0 0 0
19 32 31 39 47 69 35 42 51 82 93 177 150 100 70 83 36 10 0 0 0 0 0 3 23 20 19 1 5 1 2 0 0 0 0 0 0 0 0 0 0 0 0 0 0 0 0
21 23 24 29 38 23 27 33 63 130 89 22 32 66 18 26 16 1 0 0 0 0 4 11 22 15 9 17 20 3 1 0 0 1 4 0 0 0 0 0 0 0 0 0 0 0 0
27 18 18 21 15 20 21 37 37 76 73 14 26 4 0 0 0 0 0 2 0 5 0 10 13 12 5 13 14 9 0 0 0 0 0 0 0 0 0 0 0 0 0 0 0 0 0
24 20 12 15 8 12 10 18 18 35 97 19 0 0 3 0 0 0 0 0 0 2 4 19 2 1 13 1 5 5 2 0 0 0 0 0 0 0 0 0 0 0 0 0 0 0 0
22 13 9 14 5 4 6 12 14 10 51 1 0 0 0 0 0 0 0 8 5 8 1 0 0 0 5 0 1 0 0 0 0 0 0 0 0 0 0 0 0 0 0 0 0 0 0
25 14 6 13 6 3 3 7 8 6 4 0 0 0 0 0 0 0 4 2 7 12 1 0 0 0 0 0 0 0 0 0 0 0 0 0 0 0 0 0 0 0 0 0 0 0 0
25 15 8 8 10 3 1 3 5 5 1 0 0 0 0 0 0 2 2 3 0 3 0 0 0 0 0 0 0 0 0 0 0 0 0 0 0 0 0 0 0 0 0 0 0 0 0
13 18 10 8 11 3 2 1 1 2 4 0 0 0 0 0 0 1 0 0 0 4 0 0 0 0 0 0 0 0 0 0 0 0 0 0 0 0 0 0 0 0 0 0 0 0 0
4 21 10 6 14 4 1 2 1 0 1 0 0 0 0 0 0 0 0 0 0 0 0 0 0 0 0 0 0 0 0 0 0 0 0 0 0 0 0 0 0 0 0 0 0 0 0
5 23 8 4 12 11 1 2 0 0 0 0 0 0 1 1 0 0 0 0 0 0 0 0 0 0 0 0 0 0 0 0 0 16 0 0 0 0 0 0 0 0 0 0 0 0 0
6 21 11 5 4 9 7 2 1 0 0 0 0 0 0 0 0 0 0 0 0 0 0 0 0 0 0 0 0 0 0 0 0 0 0 0 0 0 0 0 0 0 0 0 0 0 0
7 12 32 8 1 7 7 5 4 0 0 0 0 0 1 0 0 0 0 0 0 0 0 0 0 0 0 0 0 0 0 0 0 0 0 0 0 0 0 0 0 0 0 0 0 0 0
4 8 29 11 3 12 9 5 5 5 0 0 0 3 1 0 0 0 0 0 0 0 0 0 0 0 0 0 0 0 0 0 0 0 0 0 0 0 0 0 0 0 0 0 0 0 0
5 5 23 25 8 11 9 10 5 8 0 0 0 0 2 0 0 0 0 0 0 0 0 0 0 0 0 0 0 0 6 4 2 0 0 0 0 0 0 0 0 0 0 0 0 0 0
10 8 23 42 8 13 19 3 10 5 2 0 0 0 0 6 0 0 0 0 0 0 0 0 0 0 0 0 0 0 3 1 4 4 0 0 0 0 2 1 0 0 0 0 0 0 0
21 14 17 49 11 2 13 20 11 16 8 0 0 0 0 4 0 0 0 0 0 0 0 0 0 0 0 0 0 0 1 1 0 5 26 21 30 5 5 7 0 0 0 0 0 0 0
20 29 27 40 44 13 4 33 19 21 25 0 0 0 0 1 0 0 0 0 0 0 0 0 0 0 0 0 0 0 0 1 0 0 0 0 2 19 9 6 0 0 0 0 0 0 0
17 45 27 30 26 31 2 0 12 26 28 5 0 0 0 2 0 0 0 0 0 0 0 0 0 0 0 0 0 0 0 0 0 2 0 0 0 0 0 0 0 0 0 0 0 0 0

GFSGBSN_con_sbcape_024.txt.gz
CAPE
30 35 39 48 36 30 57 71 64 59 52 79 60 74 73 73 79 85 97 160 187 129 45 16 17 13 1 46 0 0 24 473 1 49 27 15 2 0 0 0 0 0 0 0 0 0 0
33 41 53 55 41 30 62 72 68 69 75 65 68 64 60 53 51 51 72 102 129 106 39 21 24 21 16 30 0 0 4 306 24 119 7 0 0 0 0 0 0 0 0 0 0 0 0
39 45 52 46 30 41 73 84 92 81 65 77 98 70 61 64 64 60 90 117 151 133 74 15 20 15 23 19 0 0 107 282 259 84 0 0 0 0 0 0 0 0 0 0 0 0 0
38 43 45 26 23 57 74 95 89 99 99 75 96 72 41 59 52 72 93 151 169 172 92 19 12 32 31 0 0 0 0 151 123 22 2 0 0 0 0 0 0 0 0 0 0 0 0
37 38 40 48 31 59 75 88 91 85 87 104 90 77 50 31 58 68 104 145 170 185 115 44 25 17 54 3 0 0 0 98 116 56 55 61 44 32 0 0 0 0 0 0 0 0 0
35 31 47 42 30 58 79 70 82 98 124 117 96 66 28 38 47 80 103 155 160 107 50 40 11 102 16 0 0 0 0 59 87 115 84 60 57 23 0 1 0 0 0 0 0 0 0
35 28 40 36 46 58 61 57 67 86 93 92 55 110 108 61 114 132 23 0 0 0 1 0 4 5 4 0 5 5 3 71 53 27 20 56 31 14 4 0 0 0 0 0 0 0 0
26 27 49 42 59 71 56 58 42 63 63 49 50 81 103 130 115 135 0 0 32 0 0 0 0 52 3 16 0 0 11 86 74 37 4 9 24 0 0 0 0 0 0 0 0 0 0
13 28 31 40 41 44 64 52 67 87 88 129 36 47 66 114 120 5 0 0 0 35 5 39 5 32 21 15 7 0 44 11 12 23 5 3 0 2 0 0 4 0 1 0 0 0 0
16 31 36 40 45 34 34 66 81 106 116 166 204 99 46 49 8 0 0 2 3 0 0 0 9 21 16 22 4 0 34 0 11 2 1 0 0 5 0 0 0 0 0 0 0 0 0
15 30 23 30 27 21 44 59 51 93 82 56 54 79 115 55 2 8 2 0 0 0 0 0 0 26 17 3 0 2 0 0 0 1 7 2 0 0 0 0 0 0 0 0 0 0 0
16 15 31 27 19 14 34 28 38 69 32 57 51 56 18 13 3 12 0 0 0 0 0 4 11 29 8 1 0 0 0 0 0 0 0 0 0 0 0 0 0 0 0 0 0 0 0
18 12 24 28 15 7 15 16 15 39 31 31 13 7 0 0 1 0 0 0 0 0 2 10 7 6 0 17 14 7 0 0 3 1 2 0 0 0 0 0 0 0 0 0 0 0 0
7 26 18 29 12 5 9 12 11 11 52 44 0 0 0 0 0 0 0 0 0 2 1 8 8 5 2 15 14 6 0 0 0 0 0 0 0 0 0 0 0 0 0 0 0 0 0
5 15 14 20 15 5 4 11 6 5 10 27 0 0 0 0 0 0 0 0 0 1 4 6 0 7 16 0 13 6 0 0 0 0 0 0 0 0 0 0 0 0 0 0 0 0 0
7 18 15 8 23 5 5 6 3 3 7 0 0 0 0 0 0 0 0 3 2 5 0 0 0 0 1 2 0 2 0 0 0 0 0 0 0 0 0 0 0 0 0 0 0 0 0
6 18 17 11 12 9 3 6 2 2 3 0 0 0 0 0 0 0 1 0 10 7 0 0 0 0 0 0 0 0 0 0 0 0 0 0 0 0 0 0 0 0 0 0 0 0 0
4 16 14 16 10 11 3 4 2 1 7 0 0 0 0 0 0 1 1 2 0 0 0 0 0 0 0 0 0 0 0 0 0 0 0 0 0 0 0 0 0 0 0 0 0 0 0
8 17 11 18 12 10 6 2 2 0 3 0 0 0 0 0 0 0 0 0 0 0 0 0 0 0 0 0 0 0 0 0 0 0 0 0 0 0 0 0 0 0 0 0 0 0 0
11 11 16 15 14 7 8 5 1 0 0 0 0 0 0 0 0 0 0 0 0 0 0 0 0 0 0 0 0 0 0 0 0 0 0 0 0 0 0 0 0 0 0 0 0 0 0
7 8 19 11 20 7 6 7 3 0 0 0 0 0 1 0 0 0 0 0 0 0 0 0 0 0 0 0 0 0 0 0 0 2 0 0 0 0 0 0 0 0 0 0 0 0 0
6 6 10 18 12 12 3 7 6 0 0 0 0 0 0 0 0 0 0 0 0 0 0 0 0 0 0 0 0 0 0 0 0 0 0 0 0 0 0 0 0 0 0 0 0 0 0
6 6 6 30 9 13 8 4 9 1 0 0 0 0 7 0 0 0 0 0 0 0 0 0 0 0 0 0 0 0 0 0 0 0 0 0 0 0 0 0 0 0 0 0 0 0 0
4 9 5 32 12 6 17 7 9 9 0 0 7 5 1 0 0 0 0 0 0 0 0 0 0 2 0 0 0 0 0 0 0 0 0 0 0 0 0 0 0 0 0 0 0 0 0
14 16 18 26 29 4 2 12 16 11 3 0 0 0 3 0 0 0 0 0 0 0 0 0 0 0 0 0 0 0 3 3 0 0 0 0 0 0 0 0 0 0 0 0 0 0 0
21 22 24 25 58 0 0 0 7 10 13 0 0 0 0 3 0 0 0 0 0 0 0 0 0 0 0 0 0 0 1 0 0 6 0 0 0 0 1 0 0 0 0 0 0 0 0
27 26 32 48 42 48 2 1 15 8 8 0 0 0 0 2 0 0 0 0 0 0 0 0 0 0 0 0 0 0 0 0 0 0 19 22 22 4 1 0 0 0 0 0 0 0 0
29 19 43 25 29 49 53 7 2 7 24 0 0 0 0 0 0 0 0 0 0 0 0 0 0 0 0 0 0 0 0 0 0 0 0 1 0 9 3 1 0 0 0 0 0 0 0
20 27 34 32 20 40 54 54 22 7 16 14 1 0 0 0 0 0 0 0 0 0 4 0 0 0 0 0 0 0 0 0 0 1 0 0 0 0 0 0 0 0 0 0 0 0 0

GFSGBSN_con_sbcape_027.txt.gz
CAPE
24 30 36 49 52 51 48 69 79 86 80 91 83 78 85 91 93 64 46 56 74 99 163 143 65 13 38 86 18 0 0 18 12 56 104 7 0 0 0 0 0 0 0 0 0 0 0
29 41 33 29 46 54 45 71 77 95 88 92 73 110 105 109 94 105 77 89 78 93 158 109 12 27 42 51 0 0 0 246 0 112 70 5 6 0 0 0 0 0 0 0 0 0 0
27 40 42 35 55 43 58 68 74 79 87 100 103 149 131 82 108 103 105 89 71 111 188 162 98 17 37 5 0 0 0 134 10 186 72 6 0 0 0 0 0 0 0 0 0 0 0
24 39 43 41 44 65 70 63 69 77 83 109 152 178 164 134 66 105 104 171 142 168 217 148 67 34 9 46 2 2 0 203 160 270 147 1 0 0 0 0 0 0 0 0 0 0 0
25 28 34 40 46 77 62 63 71 32 57 100 104 119 38 76 55 88 157 189 193 219 223 139 20 27 21 83 3 1 0 24 253 117 25 46 7 24 0 0 0 0 0 0 0 0 0
31 27 31 43 48 73 47 72 61 42 48 92 93 54 54 82 85 120 218 224 189 163 117 89 32 24 0 9 15 0 0 112 179 196 110 109 43 24 3 0 0 0 0 0 0 0 0
22 25 36 49 42 45 56 26 67 93 128 177 196 33 64 84 135 141 19 0 0 0 25 0 0 1 47 34 4 39 32 89 94 32 18 38 27 1 10 3 0 0 0 0 0 0 0
22 24 36 30 41 37 40 61 86 96 117 96 122 109 13 59 34 50 0 0 2 0 0 0 0 0 0 60 11 18 35 129 0 16 29 40 36 0 2 0 0 0 0 0 0 0 0
22 20 24 20 27 29 45 45 72 80 77 95 89 77 0 42 19 0 0 0 0 0 1 42 52 0 9 19 11 1 56 46 0 6 2 8 20 0 0 0 0 0 0 0 0 0 0
14 21 23 16 20 23 24 33 37 47 33 59 96 71 44 18 0 0 0 2 0 0 0 11 35 36 30 13 21 37 48 5 13 7 18 3 0 0 1 0 0 0 0 0 0 0 0
19 20 23 17 20 18 18 30 25 15 25 26 28 38 39 0 0 0 0 0 0 0 0 0 5 1 39 0 6 9 0 10 0 1 0 2 0 10 3 2 0 0 0 0 0 0 0
15 19 12 14 23 16 18 16 15 11 4 15 0 4 9 0 2 1 0 0 0 0 0 3 3 15 5 18 1 13 3 9 5 10 0 0 4 0 4 0 0 0 0 0 0 0 0
12 12 14 11 25 12 15 11 10 16 1 7 0 0 0 0 0 0 0 0 0 0 0 9 15 14 16 28 5 5 4 0 3 3 2 0 0 0 0 0 0 0 0 0 0 0 0
10 10 17 13 17 18 11 10 6 9 4 0 0 0 0 0 0 0 0 0 0 0 0 5 10 4 17 11 10 1 0 0 0 0 0 0 3 0 0 0 0 0 0 0 0 0 0
8 11 15 14 13 17 13 10 3 6 6 2 0 0 0 0 0 0 0 0 0 0 2 5 1 1 10 3 12 7 0 0 0 0 0 0 0 0 0 0 0 0 0 0 0 0 0
7 13 10 13 11 14 13 10 5 3 10 1 0 0 0 0 0 0 0 2 2 4 0 0 0 0 0 6 3 0 0 0 0 0 0 0 0 0 0 0 0 0 0 0 0 0 0
7 8 11 10 15 11 9 8 8 3 4 0 0 0 0 0 0 0 1 0 3 0 0 0 0 0 0 0 0 0 0 0 0 0 0 0 0 0 0 0 0 0 0 0 0 0 0
8 9 16 7 9 16 9 6 7 3 3 0 0 0 0 0 0 0 1 2 0 0 0 0 0 0 0 0 0 0 0 0 0 0 0 0 0 0 0 0 0 0 0 0 0 0 0
6 7 22 11 15 10 11 6 5 1 4 0 0 0 0 0 0 0 0 0 0 0 0 0 0 0 0 0 0 0 0 0 0 0 0 0 0 0 0 0 0 0 0 0 0 0 0
3 4 10 31 9 17 14 7 4 0 1 0 0 0 0 0 0 0 0 0 0 0 0 0 0 0 0 0 0 0 0 0 0 0 0 0 0 0 0 0 0 0 0 0 0 0 0
8 4 6 22 14 17 17 10 5 0 0 0 0 1 1 0 0 0 0 0 0 0 0 0 0 0 0 0 0 0 0 0 0 0 0 0 0 0 0 0 0 0 0 0 0 0 0
6 4 12 17 23 10 11 11 6 0 0 0 0 1 0 0 0 0 0 0 0 0 0 0 0 0 0 0 0 0 0 0 0 0 0 0 0 0 0 0 0 0 0 0 0 0 0
8 10 11 14 27 15 4 10 11 1 0 0 0 0 4 0 0 0 0 0 0 0 0 0 0 0 0 0 0 0 0 0 0 0 0 0 0 0 0 0 0 0 0 0 0 0 0
13 21 18 20 35 12 0 11 11 14 0 0 1 4 1 0 0 0 0 0 0 0 0 0 0 0 0 0 0 0 0 0 0 0 0 0 0 0 0 0 0 0 0 0 0 0 0
25 28 23 29 26 27 3 6 15 14 0 0 0 0 2 0 0 0 0 0 0 0 0 0 0 0 0 0 0 0 2 3 0 0 0 0 0 0 0 0 0 0 0 0 0 0 0
41 42 45 35 47 43 27 17 21 14 1 0 0 0 0 0 0 0 0 0 0 0 0 0 0 0 0 0 0 0 0 0 0 3 0 0 0 0 0 0 0 0 0 0 0 0 0
56 66 53 59 39 37 43 24 10 1 2 0 0 0 0 0 0 0 0 0 1 0 0 0 0 0 0 0 0 0 0 0 0 0 23 24 28 7 1 3 0 0 0 0 0 0 0
58 54 48 55 47 28 26 21 35 16 1 0 0 0 0 0 0 0 0 0 0 2 0 0 0 0 0 0 1 0 0 0 0 0 0 0 0 3 0 1 0 0 0 0 0 0 0
53 16 31 40 44 30 20 20 43 12 7 1 0 0 0 0 0 0 0 0 0 0 0 0 0 0 0 0 0 0 0 0 0 2 0 0 0 0 0 0 0 0 0 0 0 0 0

GFSGBSN_con_sbcape_030.txt.gz
CAPE
25 27 42 54 61 53 41 47 70 83 96 103 107 117 141 128 84 143 104 85 96 56 76 60 63 2 0 29 0 15 14 23 259 37 109 65 54 88 37 5 0 0 0 0 0 0 0
17 39 52 25 52 43 57 85 81 96 100 97 104 141 176 182 140 139 140 120 126 87 80 83 37 10 12 7 0 1 0 6 306 32 139 98 11 57 35 15 0 0 0 0 0 0 0
19 48 41 43 54 57 71 65 90 91 82 53 76 96 139 73 184 159 117 122 140 129 102 130 84 23 16 1 131 103 15 12 252 82 215 140 37 37 15 7 0 0 0 0 0 0 0
29 30 28 49 61 44 69 62 42 58 81 134 131 130 76 27 30 75 86 137 160 178 172 182 157 38 12 0 0 11 10 60 172 268 332 240 36 33 3 0 0 0 0 0 0 0 0
23 27 37 45 51 43 56 43 61 83 132 146 160 182 64 85 61 78 122 203 238 220 207 141 107 46 2 62 53 44 30 54 226 290 367 210 78 67 5 1 2 1 0 0 0 0 0
28 26 31 37 39 38 52 64 59 100 101 112 123 151 25 22 37 90 153 109 196 254 222 134 62 31 0 21 96 26 2 33 226 325 326 154 79 79 31 8 0 0 0 0 0 0 0
22 17 28 24 28 24 44 41 69 91 73 103 130 124 6 15 16 15 11 9 47 109 83 0 0 2 82 78 90 4 1 37 281 205 51 56 60 22 5 8 0 0 0 0 0 0 0
10 20 25 26 21 18 26 24 56 71 36 62 79 33 0 18 2 11 1 3 28 3 1 0 0 0 0 1 66 25 93 87 86 55 48 64 46 36 20 10 2 0 0 0 0 0 0
10 18 19 25 18 14 13 17 44 54 39 24 36 5 0 7 14 1 2 11 30 2 35 70 8 1 0 77 48 71 44 35 44 33 34 8 25 3 9 3 11 1 0 0 0 0 0
11 21 15 22 17 13 14 13 29 32 44 3 8 14 2 2 0 0 9 27 1 0 22 16 15 11 37 12 84 58 18 44 10 8 16 15 1 0 3 11 9 3 0 0 0 0 0
8 17 13 21 17 12 13 12 15 15 24 13 0 0 0 0 1 5 12 11 0 0 9 2 5 0 24 15 19 27 18 22 9 7 13 5 13 31 21 8 12 3 0 0 0 0 0
9 16 13 20 14 13 10 11 11 8 7 21 0 0 0 0 1 2 0 0 0 13 3 14 6 22 7 23 8 13 23 10 5 3 3 8 1 0 0 0 4 0 0 0 0 0 0
7 13 14 14 16 16 12 8 8 7 5 7 10 0 0 0 0 0 0 0 4 6 4 22 10 15 10 29 7 1 9 7 5 5 16 9 8 0 0 0 0 0 0 11 2 3 0
8 8 10 12 14 17 16 8 6 5 8 6 2 0 0 0 0 0 0 1 2 6 3 5 22 21 13 6 14 8 7 2 0 0 7 8 10 8 7 0 1 0 0 4 0 0 0
8 8 10 8 13 15 18 11 6 4 12 7 0 0 0 0 0 0 2 9 8 3 3 15 1 1 16 8 4 1 0 0 0 0 0 0 4 0 0 0 0 0 0 0 0 0 0
6 5 14 9 14 12 15 15 7 2 13 3 0 0 0 0 0 2 8 10 5 2 0 0 0 1 3 6 1 1 0 0 0 0 0 0 4 0 0 0 0 0 0 0 0 0 0
3 8 18 13 12 13 11 13 10 2 4 0 0 0 0 0 0 1 9 18 17 12 0 0 0 0 5 3 2 1 0 0 0 0 0 0 0 1 0 0 0 0 0 0 0 0 0
3 8 7 20 10 18 8 10 9 2 8 0 0 0 0 0 0 1 17 1 0 3 0 0 0 0 0 0 0 0 0 0 0 0 0 0 0 3 3 0 0 0 0 0 0 0 0
4 3 5 15 10 12 16 7 7 2 3 9 0 0 0 0 0 6 1 1 0 0 0 0 0 0 0 0 0 0 0 0 0 0 0 0 0 3 5 0 0 0 0 0 0 0 0
3 4 5 10 21 15 12 4 4 2 0 0 0 0 0 0 0 0 0 0 0 0 0 0 0 0 0 0 0 0 0 0 0 0 0 0 0 0 0 0 0 0 0 0 0 0 0
8 9 6 10 16 12 9 6 3 0 0 0 3 1 0 1 0 0 0 0 0 0 0 0 0 0 0 0 0 0 0 0 0 0 0 0 0 0 0 0 0 0 0 0 0 0 0
8 17 15 6 19 24 5 6 4 0 0 0 1 2 1 1 0 0 0 0 0 0 0 0 0 0 0 0 0 0 0 0 0 0 0 0 2 0 0 0 0 0 0 0 0 0 0
14 24 29 19 22 27 19 8 8 1 0 3 0 0 9 0 0 0 0 0 0 0 0 0 0 2 0 0 0 0 0 0 0 0 0 0 0 0 0 0 0 0 0 0 0 0 0
20 22 48 35 37 37 48 21 22 7 0 0 2 8 1 0 0 0 0 0 0 0 0 0 0 1 0 0 0 0 0 0 0 0 0 1 3 0 0 0 0 0 0 0 0 0 0
22 34 46 28 32 29 38 17 26 13 0 0 0 2 7 0 0 0 0 1 0 0 0 0 0 0 0 0 0 0 4 2 0 0 0 1 1 0 2 0 0 0 0 0 0 0 0
7 41 33 37 38 28 17 30 31 19 0 0 0 0 0 0 0 0 0 0 1 0 0 0 0 0 0 2 9 7 0 0 7 9 0 0 6 5 4 1 0 0 0 0 0 0 0
7 43 37 28 31 20 14 31 36 35 15 0 0 0 0 0 0 0 0 0 0 3 2 0 0 1 0 16 25 20 4 0 1 1 15 21 19 18 13 7 0 0 0 0 1 0 0
13 40 12 16 26 30 34 23 26 33 9 1 2 0 0 0 0 0 0 0 0 0 3 0 7 6 0 33 25 7 8 0 0 0 2 5 10 20 25 7 0 0 0 0 0 0 0
44 23 2 5 32 40 21 11 7 30 22 8 6 0 0 0 0 0 0 0 0 0 0 0 3 1 4 36 6 7 2 0 4 6 0 3 0 0 0 0 0 0 0 0 0 0 0

GFSGBSN_con_sbcape_033.txt.gz
CAPE
19 28 37 38 43 40 46 56 56 58 74 84 106 93 113 138 129 135 175 157 171 180 99 114 90 26 2 3 0 209 126 479 294 80 39 62 11 116 70 20 1 0 0 0 0 0 0
16 25 23 38 36 42 49 44 40 37 65 114 157 199 137 109 58 102 194 123 171 133 79 112 69 8 2 12 0 59 14 0 96 244 55 48 2 107 57 25 10 4 3 0 0 0 0
19 18 28 32 43 32 36 43 63 78 128 145 172 197 179 63 0 1 46 143 148 173 135 140 118 63 33 15 56 239 70 0 1 211 48 54 23 133 24 35 31 17 12 1 0 0 0
14 18 29 29 23 25 40 56 61 90 118 113 151 181 170 82 72 43 67 90 169 176 168 135 99 38 17 0 0 0 77 15 1 197 32 105 74 62 37 35 45 25 23 4 0 0 0
15 15 29 26 23 22 32 50 63 90 61 62 142 157 157 53 22 26 78 145 220 245 165 57 92 85 10 96 0 0 36 72 0 241 190 376 210 110 57 40 45 36 0 0 0 0 0
10 14 18 19 25 24 35 54 54 69 43 41 98 128 96 7 17 29 71 93 183 207 218 129 140 29 0 37 39 143 117 6 165 263 271 250 262 31 45 38 2 0 0 0 0 0 0
9 10 24 15 22 18 27 45 41 51 39 28 38 33 31 16 30 40 82 201 216 153 93 25 9 24 69 41 141 88 68 109 113 214 170 344 210 44 0 0 0 0 0 0 0 0 0
9 14 17 14 18 22 18 23 27 47 43 28 4 0 2 6 26 0 62 44 53 37 31 0 0 0 0 0 75 79 60 16 64 103 37 41 102 5 14 7 1 0 0 0 0 0 0
6 13 12 17 15 18 14 17 22 31 40 19 5 0 0 0 0 2 12 17 50 20 39 16 16 0 3 77 42 47 15 20 24 43 56 21 8 23 11 10 17 6 0 0 0 0 0
5 14 14 16 17 15 18 12 12 17 18 29 11 0 0 0 2 4 7 9 2 0 35 22 9 5 68 80 78 48 8 0 0 38 67 18 15 17 19 20 14 14 1 0 0 0 0
5 8 9 14 14 14 15 16 15 7 8 9 16 1 0 0 0 2 3 2 2 15 129 35 1 1 11 62 6 7 16 50 3 2 8 5 0 18 17 12 19 28 0 0 0 0 0
5 7 9 14 9 10 11 11 16 15 6 7 7 6 0 3 0 0 0 0 3 22 20 6 3 15 9 24 17 19 15 28 8 6 0 6 0 0 0 12 17 0 0 0 0 0 0
3 6 9 10 10 17 12 10 10 13 12 4 4 7 0 0 2 0 0 4 10 17 3 7 15 23 21 15 7 10 10 8 4 3 3 4 5 2 0 0 0 2 13 31 18 15 1
3 5 12 9 10 11 14 14 7 8 8 5 5 3 0 0 0 0 11 7 35 6 25 4 16 19 32 9 2 6 13 14 2 3 13 21 5 6 1 0 0 1 24 34 7 3 0
2 3 11 11 12 14 12 14 10 6 17 12 0 0 0 1 0 7 2 12 32 15 2 12 8 8 7 2 14 18 9 1 1 0 3 10 13 10 4 0 0 5 0 0 0 0 0
0 3 6 18 12 9 10 12 11 7 9 9 0 0 0 0 1 3 7 13 11 0 10 7 10 2 1 1 10 17 13 0 0 0 0 0 7 8 4 2 0 1 0 0 0 0 0
2 6 6 8 14 9 11 16 11 4 1 0 0 1 0 0 5 10 7 23 15 7 0 1 2 5 2 1 1 2 1 0 0 0 0 0 0 3 3 2 0 0 0 0 0 0 0
6 4 5 7 15 11 10 12 10 5 5 0 0 12 0 0 10 15 27 8 4 6 0 0 0 2 7 3 7 6 0 0 0 0 0 0 3 4 2 0 0 0 0 0 0 0 0
6 4 7 6 7 13 11 8 10 5 2 1 1 0 0 0 20 1 0 3 3 0 0 0 0 0 0 2 6 3 0 0 0 0 0 0 0 6 1 0 0 0 0 0 0 0 0
7 9 13 2 8 16 10 6 7 2 0 4 1 4 2 0 0 2 0 0 0 0 0 0 0 0 0 0 0 0 0 0 0 0 0 0 0 0 0 1 0 0 0 0 0 0 0
7 5 20 7 10 18 14 2 5 0 0 2 4 1 1 13 2 2 0 0 0 1 0 0 0 0 0 0 0 0 0 0 0 0 0 0 0 0 0 0 0 0 0 0 0 0 0
2 15 22 11 18 27 36 13 8 0 0 0 1 9 2 3 0 0 0 0 0 0 0 0 1 0 0 0 0 0 0 0 0 0 0 0 0 0 0 0 0 0 0 0 0 0 0
0 6 26 24 30 33 29 12 3 0 0 0 2 2 6 0 0 0 2 2 3 0 0 0 3 9 3 0 0 0 0 0 0 0 0 1 1 0 1 0 0 0 0 0 0 0 0
0 2 21 39 35 30 16 21 17 2 0 0 0 3 3 2 0 3 0 0 1 0 4 0 6 19 0 0 0 0 0 0 0 0 0 6 6 3 6 0 0 0 0 0 0 0 0
0 21 34 30 31 24 10 14 29 18 0 0 0 0 0 0 0 0 0 0 0 0 0 1 7 1 0 0 12 10 4 5 3 1 0 5 10 10 5 0 0 0 0 0 0 0 0
0 11 12 9 7 8 5 9 30 22 17 3 0 0 0 0 0 0 0 0 0 6 1 1 0 0 2 33 20 5 11 6 5 13 3 0 8 7 0 0 0 0 0 0 0 0 0
0 15 9 0 8 22 19 14 22 3 1 1 0 0 0 0 0 0 0 0 0 5 2 2 7 16 5 34 23 4 10 0 3 4 3 14 13 11 3 4 0 0 0 0 0 0 0
0 23 9 2 15 26 19 3 2 4 8 8 12 0 0 1 0 0 0 0 0 0 2 0 16 13 31 31 21 18 4 5 0 0 1 1 1 1 3 2 0 0 0 0 0 0 0
12 21 11 7 20 22 37 18 13 13 28 13 10 0 0 10 0 0 0 0 0 0 0 0 1 2 11 57 32 23 4 7 6 8 0 0 0 2 0 0 0 0 0 0 0 0 0

GFSGBSN_con_sbcape_036.txt.gz
CAPE
17 25 20 28 33 29 40 39 40 61 92 112 119 162 204 210 174 137 118 166 158 154 130 127 117 129 24 5 0 102 177 236 344 241 23 109 0 48 74 13 0 0 0 0 5 0 0
10 24 21 28 32 31 35 29 30 71 94 74 104 142 211 192 103 28 41 49 151 82 103 114 110 74 1 11 5 126 132 189 241 146 8 72 0 13 110 96 0 0 1 0 6 0 0
18 19 19 27 23 29 27 27 45 69 69 76 100 94 160 131 19 3 5 32 117 154 147 90 103 51 8 0 67 155 52 1 78 107 43 5 12 19 93 90 20 15 0 0 0 0 0
12 16 21 22 24 22 23 28 45 67 76 69 69 96 132 119 7 13 51 63 123 177 160 146 91 9 6 0 0 0 65 54 1 37 106 62 41 19 171 10 24 24 7 4 0 0 0
12 14 18 20 21 18 16 21 47 57 63 59 38 52 40 25 21 25 50 88 146 249 176 85 15 10 0 20 0 0 0 16 20 81 60 65 88 40 126 17 35 31 0 0 0 0 0
12 13 16 17 17 16 15 17 32 50 42 43 11 2 6 10 16 36 37 94 160 185 159 56 21 8 0 0 4 0 0 155 88 110 23 73 70 40 62 19 5 0 0 0 0 0 0
10 11 11 13 12 14 12 12 21 36 42 28 0 0 30 0 7 0 23 223 199 140 81 11 3 1 4 11 110 35 244 181 47 118 55 64 27 1 0 0 0 0 0 0 0 0 0
4 8 9 13 13 16 13 13 9 22 21 30 8 1 3 16 0 10 37 4 5 12 14 0 0 0 0 0 80 163 154 12 51 73 80 65 6 0 4 0 0 1 0 0 0 0 0
5 6 7 12 17 15 15 14 14 12 11 9 22 2 0 1 0 27 9 6 7 4 35 58 2 0 34 31 62 74 7 1 13 61 19 5 9 24 1 0 0 0 0 0 0 0 0
3 5 7 10 7 13 14 15 16 14 10 4 7 14 2 0 0 0 0 2 2 0 9 8 25 53 72 79 49 76 46 7 2 20 29 5 23 26 18 20 1 0 0 0 0 0 0
3 4 7 9 13 14 13 21 20 16 9 10 7 8 9 0 1 6 0 0 0 7 13 5 0 0 42 30 12 39 15 0 0 18 17 0 12 23 28 14 9 9 2 0 0 0 0
2 3 6 9 8 11 13 9 15 16 10 11 4 11 2 1 9 0 0 0 4 4 21 1 1 9 31 34 16 4 6 0 0 0 0 2 0 0 0 2 3 19 0 0 0 0 0
2 2 9 11 9 15 13 9 11 16 10 4 6 2 4 0 4 0 0 2 1 1 0 2 18 20 11 8 9 3 4 4 2 0 0 1 3 0 0 0 2 0 0 5 18 0 0
2 2 5 9 7 8 12 14 6 9 6 8 3 1 0 0 1 0 1 4 0 0 3 2 16 4 2 3 1 8 8 7 7 0 6 2 0 1 0 0 0 5 0 14 0 0 0
1 2 4 10 9 9 14 11 8 9 13 7 0 0 0 0 0 1 1 1 1 0 0 6 3 12 1 0 0 10 12 11 15 3 7 10 11 7 1 0 0 5 0 0 0 0 0
1 2 7 10 11 11 11 8 8 12 8 2 0 0 0 0 0 0 3 1 1 0 1 0 4 0 4 2 5 16 0 1 2 0 0 0 10 9 2 0 0 0 0 0 0 0 0
2 6 4 10 8 12 7 9 10 5 7 0 0 0 0 0 0 1 2 8 0 0 0 0 4 0 0 0 0 1 0 0 0 0 0 0 0 23 5 6 1 0 0 0 0 0 0
1 3 5 5 7 15 16 10 10 5 8 0 0 0 0 0 7 19 10 0 0 0 0 0 0 0 0 0 0 1 1 0 0 0 0 0 0 3 3 0 0 0 0 0 0 0 0
2 7 12 8 8 18 20 14 13 5 2 3 0 0 0 0 8 0 0 0 0 0 0 0 0 0 0 0 0 0 0 0 0 0 0 0 0 0 0 0 0 0 0 0 0 0 0
0 0 7 12 10 25 22 16 9 1 0 0 1 0 7 6 0 10 6 1 1 0 0 0 0 0 0 0 0 0 0 0 0 0 0 0 0 0 0 0 0 0 0 0 0 0 0
0 0 11 10 21 31 10 16 6 0 0 0 0 0 0 6 2 0 0 6 9 10 0 0 0 0 0 0 0 0 0 0 0 0 0 0 0 0 0 0 0 0 0 0 0 0 0
0 1 0 15 18 28 14 16 9 0 0 0 1 2 0 0 0 0 0 1 8 2 0 0 1 0 0 1 0 0 0 0 0 0 0 0 0 0 0 0 0 0 0 0 0 0 0
0 0 1 20 17 17 10 15 16 0 0 0 0 3 2 0 1 0 0 0 1 0 0 0 6 12 4 1 0 0 0 0 0 0 0 0 0 0 0 0 0 0 0 0 0 0 0
0 1 8 17 14 11 6 17 27 4 0 0 0 1 0 0 0 0 0 0 0 0 0 2 7 13 0 0 0 0 0 0 0 0 0 0 0 0 0 0 0 0 0 0 0 0 0
0 1 12 5 4 9 19 10 18 12 0 0 0 0 0 0 0 0 0 0 0 0 0 1 1 0 0 0 1 5 2 0 0 0 0 0 0 1 0 0 0 0 0 0 0 0 0
0 1 21 1 1 11 18 10 20 10 0 1 0 0 0 0 0 0 0 0 0 0 0 6 0 0 0 22 20 7 7 0 2 4 0 0 0 1 4 0 0 0 0 0 0 0 0
0 2 20 2 0 4 17 8 0 6 6 1 2 0 0 0 0 0 0 0 0 0 0 1 2 6 3 17 11 10 3 0 0 0 3 9 3 1 5 0 0 0 0 0 0 0 0
0 11 20 3 7 2 14 13 17 20 7 11 24 0 0 0 0 0 0 0 0 0 0 0 0 2 9 21 10 17 13 2 0 0 0 0 0 2 5 2 0 0 0 0 0 0 0
12 31 48 23 9 4 13 5 7 12 19 27 2 0 0 4 0 0 0 0 0 0 0 0 0 0 3 5 17 22 0 0 0 1 0 0 0 0 0 0 0 0 0 0 0 0 0

GFSGBSN_con_sbcape_039.txt.gz
CAPE
11 16 16 25 14 23 17 24 21 40 68 48 86 85 88 160 167 92 64 31 109 100 79 98 139 165 5 2 0 0 4 103 319 222 11 17 0 58 94 37 13 0 0 4 11 0 0
12 15 15 14 16 19 21 29 36 46 50 53 42 44 69 104 27 1 2 15 81 47 67 94 154 199 19 11 10 75 131 94 228 197 27 20 0 6 88 47 20 0 3 0 2 0 0
13 13 16 14 13 15 21 24 32 39 29 29 51 54 63 15 30 10 20 24 81 131 128 80 115 60 9 1 1 70 92 28 130 179 71 17 1 17 18 60 52 1 23 0 0 0 2
10 13 8 11 15 17 10 19 19 33 28 13 27 21 19 7 3 27 51 60 94 149 121 107 77 6 4 0 0 0 42 36 6 7 72 46 0 2 14 12 3 21 4 4 0 0 0
9 11 11 11 16 16 16 18 11 21 33 20 7 39 7 3 0 6 9 37 95 169 149 39 0 3 0 6 0 0 0 15 2 39 88 109 45 7 12 29 14 9 0 0 0 0 0
9 11 14 12 14 14 16 15 8 10 22 34 6 1 33 26 14 0 14 78 94 107 60 15 5 2 0 0 0 0 0 110 60 52 11 62 36 9 17 8 1 0 0 0 0 0 0
7 9 15 11 15 16 18 12 13 9 9 14 33 4 0 0 21 12 0 0 0 0 0 3 1 0 0 4 66 0 216 87 52 22 0 23 93 0 0 0 0 0 0 0 0 0 0
5 8 9 9 9 15 14 23 13 15 13 6 11 20 11 0 13 7 1 0 3 0 0 0 0 0 0 5 64 143 175 22 29 15 21 18 5 0 0 0 0 0 0 0 0 0 0
3 8 10 12 10 5 12 21 31 19 16 13 4 6 13 1 0 0 0 0 3 1 11 14 0 0 37 47 55 70 17 1 4 18 30 3 0 0 0 0 0 0 0 0 0 0 0
2 5 7 10 6 7 11 15 22 19 14 12 10 4 4 8 0 0 0 0 0 0 2 8 16 17 1 0 54 55 6 7 45 6 29 2 2 0 0 0 0 0 0 0 0 0 0
2 4 10 6 13 8 11 11 14 14 10 9 11 6 3 11 0 0 0 0 0 0 0 1 28 23 35 31 11 3 16 5 27 22 18 1 0 4 0 0 0 0 0 0 0 0 0
1 3 11 6 21 7 11 13 14 16 13 6 2 4 2 0 0 0 0 0 0 0 0 2 14 13 37 13 25 11 24 0 0 0 0 2 0 0 0 0 12 2 0 0 0 0 0
0 5 8 10 9 17 12 8 8 10 10 4 0 3 1 0 0 0 0 0 0 0 0 1 11 14 12 23 10 4 2 0 1 0 0 0 2 0 0 0 0 0 0 0 1 0 0
1 6 3 10 11 11 17 10 11 10 8 8 0 0 0 0 0 0 0 0 0 0 0 0 16 5 3 7 5 4 7 11 0 0 4 0 0 0 0 0 0 0 0 0 0 0 0
1 5 1 9 7 10 9 14 14 22 14 6 0 0 0 0 0 0 1 0 0 0 0 1 3 0 0 0 0 11 11 18 8 0 0 3 0 2 0 0 0 0 0 0 0 0 0
2 4 3 8 11 11 14 17 18 20 10 0 0 0 0 0 0 0 0 0 0 0 0 0 0 0 0 0 3 5 7 3 5 0 0 0 4 6 2 0 0 0 0 0 0 1 0
1 2 5 6 13 25 14 19 16 12 11 0 0 0 0 0 0 0 0 0 0 0 0 0 0 0 0 0 0 0 0 0 0 0 0 0 0 15 8 4 3 0 0 0 0 0 0
0 0 3 13 14 25 8 7 12 15 14 0 0 1 0 0 0 0 0 0 0 0 0 0 0 0 0 0 0 0 0 0 0 0 0 0 0 5 11 2 0 0 0 0 0 1 0
0 0 9 16 16 17 5 9 9 6 6 0 0 0 0 0 3 0 0 0 0 0 0 0 0 0 0 0 0 0 0 0 0 0 0 0 0 0 1 0 0 0 0 0 0 0 0
0 0 8 18 13 13 8 11 5 0 0 0 0 0 0 0 0 4 0 0 0 0 0 0 0 0 0 0 0 0 0 0 0 0 0 0 0 0 0 0 0 0 0 0 0 0 0
0 1 9 15 8 12 12 12 6 0 0 0 0 0 0 0 0 0 1 8 8 5 0 0 0 0 0 0 0 0 0 0 0 0 0 0 0 0 0 0 0 0 0 0 0 0 0
0 0 7 4 8 9 9 14 7 0 0 0 0 0 0 0 0 0 0 15 6 0 0 0 3 0 0 1 0 0 0 0 0 0 0 0 0 0 0 0 0 0 0 0 0 0 0
0 1 1 1 2 6 12 14 9 5 0 0 0 0 0 0 0 0 0 0 3 0 1 5 8 8 0 0 0 0 0 0 0 0 0 0 0 0 0 0 0 0 0 0 0 0 0
0 0 0 1 5 17 12 10 10 0 0 0 0 0 0 0 0 0 0 0 0 0 0 0 5 6 0 0 0 0 0 0 0 0 0 0 0 0 0 0 0 0 0 0 0 0 0
0 0 1 0 9 22 11 6 4 3 0 0 0 0 0 0 0 0 0 0 0 0 0 0 4 0 0 0 0 0 0 1 0 0 0 0 0 0 0 0 0 0 0 0 0 0 0
0 0 0 0 12 16 13 5 11 9 1 0 0 0 0 0 0 0 0 0 0 0 0 14 0 0 0 0 2 7 8 0 1 1 0 0 0 0 0 0 0 0 0 0 0 0 0
0 0 5 0 9 1 26 31 23 19 7 0 1 0 0 0 0 0 0 0 0 0 0 0 0 0 0 0 0 7 4 0 0 0 1 6 0 0 4 0 0 0 0 0 0 0 0
0 0 20 14 3 0 20 21 23 26 15 0 0 0 0 0 0 0 0 0 0 0 0 0 0 0 0 7 0 0 1 0 0 0 0 0 0 0 0 1 0 0 0 0 0 0 0
0 9 35 27 7 9 19 24 24 32 32 4 1 0 0 0 0 0 0 0 0 0 0 0 0 0 0 5 1 0 3 0 0 0 0 0 0 0 0 0 0 0 0 0 0 0 0

GFSGBSN_con_sbcape_042.txt.gz
CAPE
12 11 14 15 17 18 25 24 27 43 23 26 24 27 18 18 35 47 71 35 58 51 101 72 124 156 7 0 0 1 87 7 19 170 145 0 2 23 40 0 0 0 2 15 21 56 53
12 10 14 15 18 16 14 14 27 40 16 22 16 18 17 17 8 21 52 59 92 125 91 156 221 89 15 2 0 0 0 0 85 166 100 0 0 24 120 11 12 0 5 31 32 41 36
10 10 13 18 16 15 14 14 24 29 23 10 11 15 8 9 3 5 81 74 73 176 157 113 188 6 18 0 0 0 5 11 101 110 64 10 0 42 0 25 0 0 34 5 0 0 0
8 12 10 15 13 8 15 14 15 28 36 18 3 4 5 2 0 0 0 40 80 114 81 70 40 8 0 0 0 0 8 16 7 63 104 9 0 0 3 0 1 1 0 0 0 0 0
6 9 8 14 10 8 14 15 15 15 25 26 18 3 1 1 0 0 0 12 12 76 63 15 0 0 0 4 0 0 0 6 40 71 103 134 10 11 0 0 11 0 0 0 0 0 0
5 6 9 8 11 18 25 19 16 20 9 9 11 21 6 0 1 7 19 4 0 2 5 4 0 0 0 0 0 0 3 53 42 74 110 95 29 5 0 5 5 0 0 0 0 0 0
4 5 6 9 11 14 13 23 17 27 20 12 5 5 13 16 0 14 2 0 0 0 0 0 0 0 0 0 12 125 58 0 8 72 1 28 7 0 0 0 0 0 0 0 0 0 0
4 5 7 8 9 12 19 20 16 13 33 21 15 5 9 12 0 7 0 0 0 0 0 0 0 0 0 0 51 111 7 0 25 1 2 15 4 0 0 0 0 0 0 0 0 0 4
3 5 6 6 12 10 8 10 16 15 20 16 11 4 7 6 4 0 0 0 0 0 5 3 2 1 25 9 28 79 67 3 24 0 4 5 2 0 0 1 0 0 0 0 0 0 0
3 6 6 8 11 7 10 9 19 20 13 10 17 7 10 3 0 0 0 0 0 0 0 6 18 8 1 1 11 50 62 34 46 45 22 4 5 0 0 0 0 0 0 0 0 0 0
1 5 9 5 16 24 17 16 21 21 19 14 14 9 8 5 0 0 0 0 0 0 0 4 26 10 6 3 5 16 41 3 28 43 0 1 9 0 0 0 0 0 0 0 0 0 0
2 5 7 7 16 8 27 16 18 17 25 15 7 5 3 0 0 0 0 0 0 0 0 1 10 2 0 7 7 33 34 3 5 0 1 2 0 0 0 0 0 0 0 0 0 0 0
1 4 4 4 14 8 11 10 17 18 16 9 2 3 1 0 0 0 0 0 0 0 0 0 18 5 2 5 22 11 4 3 22 3 1 1 0 0 0 14 4 0 0 0 0 0 0
1 4 3 4 5 11 12 12 12 10 9 2 0 0 0 0 0 0 0 0 0 0 0 8 14 12 7 14 25 7 12 20 0 0 1 0 20 0 0 0 1 0 0 0 0 0 0
0 3 3 7 13 11 16 18 14 16 17 8 0 0 0 0 0 0 0 0 0 0 0 0 0 0 8 11 15 12 4 4 3 0 0 0 0 1 0 0 0 0 0 0 0 0 0
0 2 3 10 11 14 14 16 17 17 14 1 0 0 0 0 0 0 0 0 0 0 0 0 0 0 0 3 11 10 19 4 4 0 0 0 1 4 0 0 0 0 0 0 0 0 0
0 1 3 9 11 15 11 13 16 14 3 0 0 0 0 0 0 0 0 0 0 0 0 0 0 0 0 0 0 0 0 4 0 0 0 0 0 6 1 4 1 0 0 0 0 0 0
0 0 7 12 9 13 12 14 14 8 4 0 0 0 0 0 2 0 0 0 0 0 0 0 0 0 0 0 0 0 0 0 0 0 0 0 1 8 5 1 0 0 0 0 0 0 0
0 0 4 10 9 7 7 9 9 2 0 0 0 0 0 0 0 0 0 0 0 0 0 0 0 0 0 0 0 0 0 0 0 0 0 0 0 0 2 0 1 7 0 0 0 0 0
0 0 4 6 11 9 12 6 2 0 0 0 0 0 0 0 0 0 0 0 0 0 0 0 0 0 0 0 0 0 0 0 0 0 0 0 0 0 0 0 0 0 0 0 0 0 0
0 0 3 5 7 13 9 5 1 0 0 0 0 0 0 0 0 0 0 1 5 4 0 0 0 0 0 0 0 0 0 0 0 0 0 0 0 0 0 0 0 0 0 0 0 0 0
0 0 1 2 9 16 9 4 0 0 0 0 0 0 0 0 0 0 0 3 20 0 0 0 3 0 0 0 0 0 0 0 0 0 0 0 0 0 0 0 0 0 0 0 0 0 0
0 0 1 2 11 13 7 5 3 0 0 0 0 0 0 0 0 0 0 0 0 0 0 0 7 3 0 0 0 0 0 0 0 0 0 0 0 0 0 0 0 0 0 0 0 0 0
0 0 0 1 6 14 2 4 5 3 0 0 0 0 0 0 0 0 0 0 0 0 0 0 2 4 0 0 0 0 0 0 0 0 0 0 0 0 0 0 0 0 0 0 0 0 0
0 0 0 0 2 8 8 10 10 2 0 0 0 0 0 0 0 0 0 0 0 0 0 1 0 0 0 0 0 0 0 0 0 0 0 0 0 0 0 0 0 0 0 0 0 0 0
0 0 0 0 1 3 25 15 9 2 0 0 0 0 0 0 0 0 0 0 0 0 0 2 0 0 0 0 0 0 0 0 1 0 0 0 0 0 0 0 0 0 0 0 0 0 0
0 0 0 0 0 5 16 16 20 4 1 0 0 0 0 0 0 0 0 0 0 0 0 0 0 0 0 0 0 0 0 0 0 0 0 2 1 1 2 2 0 0 0 0 0 0 0
0 0 1 10 3 13 17 22 39 14 5 0 0 0 0 0 0 0 0 0 0 0 0 0 0 0 0 0 0 0 0 0 0 0 0 0 0 0 0 1 0 0 0 0 0 0 0
0 0 5 21 9 11 22 20 46 38 23 0 0 0 1 0 0 0 0 0 0 0 0 0 0 0 0 2 0 1 4 0 0 0 0 0 0 0 0 0 0 0 0 0 0 0 0

GFSGBSN_con_sbcape_045.txt.gz
CAPE
9 9 8 10 13 14 12 27 28 46 22 14 18 14 11 8 11 17 38 62 120 99 139 91 138 210 44 5 0 0 0 0 7 6 78 0 1 38 10 19 3 0 1 6 57 21 33
8 7 8 10 13 18 15 15 24 36 53 21 18 19 10 8 5 13 46 28 63 135 97 120 124 71 14 10 0 0 0 0 5 11 95 0 0 20 45 0 56 0 4 25 9 13 17
9 6 6 6 9 12 17 15 19 20 32 38 21 9 16 15 2 3 3 21 43 92 111 118 13 9 15 2 0 0 0 51 10 54 104 0 0 33 2 0 0 0 25 26 31 30 39
8 6 3 9 10 16 19 34 19 23 17 30 33 28 10 8 6 0 2 2 9 40 22 26 36 47 2 0 0 0 0 54 139 158 113 23 0 6 1 0 0 2 1 0 2 23 37
6 5 6 8 12 11 14 18 33 43 18 14 9 28 38 6 8 0 11 2 5 6 26 0 0 0 0 1 0 0 0 33 79 87 86 35 7 18 0 2 0 0 0 0 0 0 3
4 5 7 11 9 12 16 10 13 23 50 12 16 9 20 27 23 12 18 0 0 0 0 0 0 0 0 0 0 0 3 15 58 35 86 79 27 8 0 1 2 0 0 0 0 0 0
3 4 8 7 6 5 22 26 30 28 24 22 15 8 7 14 16 17 0 0 0 0 0 0 0 0 0 0 0 126 3 2 0 52 6 66 8 1 0 0 0 0 0 0 0 0 0
3 6 7 3 7 17 17 24 32 17 22 18 23 14 8 9 3 13 0 0 0 0 0 0 0 0 0 0 37 34 0 0 7 11 2 0 9 0 0 0 0 0 0 0 0 0 1
1 5 7 3 8 21 7 22 27 28 18 14 18 20 4 8 5 0 0 0 0 0 2 0 1 4 31 4 32 39 0 0 2 9 1 2 4 0 1 11 1 0 0 0 0 0 0
2 4 5 4 9 19 25 20 16 17 16 16 14 12 6 12 0 0 0 0 0 0 0 4 6 4 22 0 15 67 0 0 34 9 5 1 3 0 0 21 0 0 0 0 0 0 0
0 3 6 8 12 18 22 6 17 13 19 20 12 11 5 12 0 0 0 0 0 0 0 10 14 4 2 20 2 15 43 10 19 13 7 3 1 0 0 0 0 0 0 0 0 0 0
0 1 3 7 11 15 14 15 10 23 11 16 7 6 5 2 1 0 0 0 0 0 0 1 4 2 8 25 4 30 16 35 12 15 15 4 0 0 0 0 0 0 0 0 0 0 0
0 0 3 7 13 10 7 13 9 10 22 14 5 6 1 0 0 0 0 0 0 0 0 4 7 3 3 25 32 36 10 28 5 8 8 4 0 0 0 1 0 0 0 0 2 0 0
0 0 2 4 5 11 8 11 9 11 17 14 3 0 1 0 0 0 0 0 0 0 1 1 2 2 8 6 8 2 4 9 1 0 9 1 0 0 0 0 0 0 0 0 0 0 0
0 0 1 4 4 10 19 7 7 12 21 20 0 0 0 0 0 0 0 0 0 0 0 0 9 5 10 37 2 8 0 2 0 0 0 0 2 0 0 0 0 0 0 0 0 0 0
0 0 0 4 9 12 8 8 8 13 15 7 0 0 0 0 0 0 0 0 0 0 0 0 0 0 9 2 6 17 3 0 0 0 0 0 0 3 0 0 0 0 0 0 0 0 0
0 0 2 6 5 10 6 10 15 13 3 0 0 0 0 0 0 0 0 0 0 0 0 0 0 0 0 1 1 0 0 0 5 0 0 0 0 4 0 0 0 0 0 0 0 0 0
0 0 1 6 4 6 11 12 11 11 1 0 0 0 0 0 6 0 0 0 0 0 0 0 0 0 0 0 0 0 0 0 1 0 0 0 0 0 0 0 0 0 0 0 0 0 0
0 0 1 2 4 7 9 7 8 5 0 0 0 0 0 0 0 0 0 0 0 0 0 0 0 0 0 0 0 0 0 0 0 0 0 0 0 1 2 14 0 3 0 0 0 0 0
0 0 0 1 4 6 5 3 4 2 0 0 0 0 0 1 0 0 0 0 0 0 0 0 0 0 0 0 0 0 0 0 0 0 0 0 0 0 0 0 0 1 3 0 0 0 0
0 0 0 1 5 4 4 2 2 0 0 0 0 0 0 0 0 0 0 0 2 2 0 0 0 0 0 0 0 0 0 0 0 0 0 0 0 0 0 0 0 0 0 1 0 0 0
0 0 0 2 4 1 2 3 2 0 0 0 0 0 0 0 0 0 0 0 2 5 0 0 1 0 0 0 0 0 0 0 0 0 0 0 0 0 0 0 0 0 0 0 0 0 0
0 0 0 1 2 0 1 5 3 0 0 0 0 0 0 0 0 0 0 0 0 0 1 0 2 0 0 0 0 0 0 0 0 0 0 0 0 0 0 0 0 0 0 0 0 0 0
0 0 0 0 0 0 1 1 3 5 0 0 0 0 0 0 0 0 0 0 0 0 0 0 2 0 0 0 0 0 0 0 0 0 0 0 0 0 0 0 0 0 0 0 0 0 0
1 0 0 0 0 0 1 0 2 7 0 0 0 0 0 0 0 0 0 0 0 0 0 0 0 0 0 0 0 0 0 0 0 0 0 0 0 0 0 0 0 0 0 0 0 0 0
1 0 0 0 0 0 0 1 1 0 1 0 0 0 0 0 0 0 0 0 0 0 0 0 0 0 0 0 0 0 0 0 0 0 0 0 0 0 0 0 0 0 0 0 0 0 0
1 2 0 0 0 0 0 0 0 0 0 0 0 0 0 0 0 0 0 0 0 0 0 0 0 0 0 0 0 0 0 0 0 0 0 0 0 0 1 6 0 0 0 0 0 0 0
0 1 0 0 0 0 0 1 3 2 2 0 0 0 0 0 0 0 0 0 0 0 0 0 0 0 0 0 0 0 0 0 0 0 0 0 0 0 2 6 0 0 0 0 0 0 0
0 0 0 5 0 0 0 0 9 0 0 0 0 0 0 0 0 0 0 0 0 0 0 0 0 1 1 0 0 0 0 0 0 0 0 0 0 0 0 0 0 0 0 0 0 0 0

GFSGBSN_con_sbcape_048.txt.gz
CAPE
7 7 7 10 13 15 16 19 14 13 26 50 17 13 15 16 12 13 24 23 38 100 138 90 136 226 22 10 18 0 2 0 0 9 40 1 0 0 13 35 81 33 0 0 17 3 25
8 7 4 11 14 23 11 19 18 10 15 37 48 12 11 10 16 7 4 4 8 69 76 81 86 86 68 7 0 0 0 3 0 30 22 0 0 4 13 50 103 14 8 58 50 32 22
4 8 8 10 10 6 10 21 38 34 24 10 31 35 28 16 20 11 8 0 1 4 50 78 33 5 24 26 1 0 0 14 38 11 120 0 1 25 29 58 13 12 88 53 45 7 28
1 8 5 7 5 22 19 16 14 18 29 35 14 22 34 50 12 11 21 56 0 0 9 1 22 8 1 0 0 0 0 69 42 32 146 74 0 19 1 0 0 10 73 80 28 0 32
1 7 6 8 11 7 23 33 29 28 32 28 29 10 14 26 38 14 25 54 0 0 0 0 0 0 0 0 1 0 0 59 207 145 135 134 5 32 0 11 2 1 3 0 17 0 7
1 4 6 8 9 16 28 30 39 37 33 36 33 24 10 20 27 30 19 6 0 0 0 0 0 0 0 0 0 0 2 6 51 115 27 67 39 16 0 11 1 0 0 0 0 0 0
2 3 7 8 6 18 29 33 34 44 52 27 20 25 7 19 14 20 0 0 0 0 0 0 0 0 0 0 28 10 0 0 29 31 1 1 15 11 0 0 0 0 0 0 0 0 0
1 4 6 6 12 22 16 17 35 46 49 31 12 24 8 6 12 15 0 0 0 0 0 0 0 0 0 0 0 8 0 11 23 16 1 4 3 0 8 0 0 0 0 0 0 0 0
0 4 7 6 6 11 23 24 25 37 39 35 30 20 6 14 11 0 0 0 0 0 0 0 0 1 4 1 9 12 0 1 5 3 2 7 0 0 24 4 0 0 0 0 0 0 0
0 3 7 4 10 10 14 24 23 33 44 34 23 13 16 14 1 0 0 0 0 0 0 1 5 2 1 0 16 27 0 32 28 5 10 2 1 1 22 33 0 0 0 0 0 0 0
0 2 4 3 5 12 8 15 24 27 28 22 12 11 3 22 0 0 0 0 0 0 0 8 10 0 0 17 0 18 0 1 2 7 6 1 4 0 0 30 6 0 0 0 0 0 0
0 0 2 1 2 9 8 20 29 25 27 18 13 7 8 7 4 0 0 0 0 0 0 3 1 3 0 15 4 24 18 2 32 16 9 8 0 0 0 0 0 0 0 0 0 0 0
0 0 1 1 3 7 9 20 12 17 14 6 5 9 6 0 0 0 0 0 0 0 0 10 15 0 2 7 10 5 6 5 16 1 1 7 1 0 0 0 0 0 0 0 0 0 0
0 0 0 2 4 5 9 10 8 12 10 6 4 1 1 0 0 0 0 0 0 0 2 6 5 1 7 2 1 0 4 11 0 0 0 12 0 0 0 0 0 0 0 0 0 0 0
0 0 0 1 5 6 5 7 4 16 11 8 0 0 0 0 0 0 0 0 0 0 0 8 16 27 3 27 4 8 0 1 0 0 0 0 3 0 0 0 0 0 0 0 0 0 0
0 0 0 2 5 8 6 3 6 14 7 0 0 0 0 0 0 0 0 0 0 0 0 1 9 5 17 22 1 2 0 0 0 0 0 0 3 4 0 0 0 0 0 0 0 0 0
0 0 0 3 3 6 4 10 11 7 2 0 0 0 0 0 0 0 0 0 0 0 0 0 0 0 2 7 2 8 0 0 0 0 0 0 0 5 0 0 0 0 0 0 0 0 0
0 0 0 1 2 3 6 7 6 2 0 0 0 0 0 0 6 0 0 0 0 0 0 0 0 0 0 0 2 0 0 0 0 0 0 0 0 0 16 0 0 0 0 0 0 0 0
0 0 0 0 1 1 4 5 2 0 0 0 0 0 0 0 0 0 0 0 0 0 0 0 0 0 0 0 0 0 0 0 0 0 0 0 0 0 0 0 0 0 0 0 0 0 0
0 0 0 0 1 1 2 2 0 0 0 0 0 0 0 3 0 0 0 0 0 0 0 0 0 0 0 0 0 0 0 0 0 0 0 0 0 0 0 0 0 0 0 0 0 1 0
0 0 0 0 0 0 2 0 0 0 0 0 0 0 0 0 0 0 0 0 0 0 0 0 0 0 0 0 0 0 0 0 0 2 0 0 0 0 0 0 0 0 0 0 0 0 0
0 0 0 0 0 0 2 1 0 0 0 0 0 0 0 0 0 0 0 0 0 2 0 0 1 0 0 0 0 0 0 0 0 0 0 0 0 0 0 0 0 0 0 0 0 0 0
0 0 0 0 0 0 1 1 0 0 0 0 0 0 0 0 0 0 0 0 0 0 0 3 8 0 0 0 0 0 0 0 0 0 0 0 0 0 0 0 0 0 0 0 0 0 0
0 0 0 0 0 0 1 1 1 0 0 0 0 0 0 0 0 0 0 0 0 0 0 0 1 1 0 0 0 0 0 0 0 0 0 0 0 0 0 0 0 0 0 0 0 0 0
0 0 0 0 0 0 0 0 1 0 0 0 0 0 0 0 0 0 0 0 0 0 0 1 0 0 0 0 0 0 0 0 0 0 0 0 0 0 0 0 0 0 0 0 0 0 0
1 0 0 0 0 0 0 0 0 0 0 0 0 0 0 0 0 0 0 0 0 0 0 0 0 0 0 0 0 0 0 0 0 0 0 0 0 0 0 0 0 0 0 0 0 0 0
2 0 0 0 0 0 0 0 0 0 0 0 0 0 0 0 0 0 0 0 0 0 0 0 0 0 0 0 0 0 0 0 0 0 0 0 1 0 0 6 0 0 0 0 0 0 0
2 1 0 0 0 0 0 0 0 0 0 0 0 0 0 0 0 0 0 0 0 0 0 0 0 0 0 0 0 0 0 0 0 0 0 0 0 0 0 2 0 0 0 0 0 0 0
3 2 0 0 0 0 1 1 0 0 0 0 0 0 0 0 0 0 0 0 0 0 0 0 0 0 0 0 0 0 0 0 0 0 0 0 0 0 0 0 0 0 0 0 0 0 0

GFSGBSN_con_sbcape_051.txt.gz
CAPE
3 6 4 9 9 12 20 22 31 25 23 13 37 46 29 4 23 8 5 26 20 24 23 97 102 92 1 0 0 1 2 0 0 0 7 1 0 6 15 13 56 14 2 40 29 2 1
3 8 6 7 7 12 12 17 13 19 36 44 9 30 41 28 11 14 11 8 16 8 10 14 7 44 36 14 0 0 0 0 0 5 21 5 0 0 4 33 39 3 44 29 43 8 8
8 6 8 7 5 13 19 25 26 24 33 37 51 11 26 25 50 12 13 45 6 0 0 0 49 11 36 16 0 0 0 0 7 91 45 3 0 6 0 12 20 33 69 79 67 51 40
6 5 9 9 6 12 14 24 35 43 40 41 40 34 13 23 24 39 10 42 5 0 1 0 0 0 3 0 1 5 0 0 5 118 152 13 1 7 13 0 5 59 78 70 43 23 28
5 3 7 7 8 15 17 32 29 47 58 50 44 38 17 23 26 34 36 35 0 0 0 0 0 0 0 0 8 0 0 62 120 81 198 41 39 29 4 26 8 30 9 31 90 20 19
4 2 6 4 6 11 19 26 32 51 51 51 35 38 31 19 24 17 32 0 0 0 0 0 0 0 0 0 0 0 2 86 33 117 110 118 37 5 0 3 6 1 0 0 1 20 12
5 0 3 3 6 8 16 11 28 42 47 40 34 31 39 12 20 19 0 0 0 0 0 0 0 0 0 0 16 0 0 13 52 35 34 4 13 4 0 0 0 0 0 0 0 22 5
5 1 1 3 5 8 8 17 35 32 39 41 43 34 34 5 18 11 0 0 0 0 0 0 0 0 0 0 0 2 0 10 60 8 4 4 2 0 0 0 0 0 0 0 0 24 22
6 1 0 2 2 4 8 20 23 30 33 35 36 28 27 7 20 0 0 0 0 0 0 0 0 0 0 0 0 11 0 5 6 1 2 7 0 0 3 0 5 0 0 0 0 0 0
3 1 0 1 1 3 8 14 23 39 28 32 31 26 20 10 1 0 0 0 0 0 0 0 0 0 1 0 7 7 0 18 6 5 1 2 0 5 23 4 1 2 0 0 0 0 1
2 0 0 1 1 5 7 14 27 28 26 32 19 16 10 13 0 0 0 0 0 0 0 10 14 0 0 8 0 6 0 9 7 4 1 1 11 7 23 10 0 0 0 0 0 0 0
0 0 0 0 0 5 9 13 19 24 24 13 10 5 13 10 2 0 0 0 0 0 0 5 2 0 1 3 15 19 0 7 26 4 4 7 0 0 1 0 0 0 0 0 0 0 1
0 0 0 0 1 6 5 10 14 14 11 7 4 12 6 0 0 0 0 0 0 0 3 8 10 0 0 6 12 5 12 18 8 1 2 5 10 0 0 0 0 0 0 0 1 0 0
0 0 0 0 1 4 4 10 6 8 11 3 3 1 0 0 0 0 0 0 0 0 8 3 1 0 11 3 0 2 16 25 0 0 5 5 19 0 0 0 0 0 0 0 0 0 0
0 0 0 0 2 2 4 3 6 9 8 3 0 0 0 0 0 0 0 0 0 0 5 0 2 0 2 6 0 0 0 0 0 0 0 8 7 0 0 0 0 0 0 0 0 0 0
0 0 0 0 1 1 2 4 3 6 1 0 0 0 0 0 0 0 0 0 0 0 1 0 6 4 0 0 0 0 0 0 0 0 0 0 6 1 0 0 0 0 0 0 0 0 0
0 0 0 0 0 0 3 3 3 3 0 0 0 0 0 0 0 0 0 0 0 0 0 1 1 10 3 0 0 0 0 0 0 0 0 0 0 9 4 0 0 0 0 0 0 0 0
0 0 0 0 0 0 2 2 2 0 0 0 0 0 0 0 8 0 0 0 0 0 0 0 0 0 2 4 0 0 0 0 0 0 0 0 0 0 14 2 0 0 0 0 0 0 0
0 0 0 0 0 0 2 1 0 0 0 0 0 0 0 0 1 0 0 0 0 0 0 0 0 0 0 0 0 0 0 0 0 0 0 0 0 0 0 0 0 2 0 0 0 0 0
0 0 0 0 0 0 1 0 0 0 0 0 0 0 0 4 0 0 0 0 0 0 0 0 0 0 0 0 0 0 0 0 0 0 0 0 0 0 0 0 0 0 0 0 0 0 0
0 0 0 0 0 0 0 0 0 0 0 0 0 0 0 0 0 0 0 0 0 0 0 0 0 0 0 0 0 0 0 0 0 1 0 0 0 0 0 0 0 0 0 0 0 0 0
0 0 0 0 0 0 0 0 0 0 0 0 0 0 0 0 0 0 0 0 0 0 0 0 0 0 0 0 0 0 0 0 0 0 0 0 0 0 0 0 0 0 0 0 0 0 0
0 0 0 0 0 0 0 0 0 0 0 0 0 0 0 0 0 0 0 0 0 0 0 0 3 0 0 0 0 0 0 0 0 0 0 0 0 0 0 0 0 0 0 0 0 0 0
0 0 0 0 1 0 0 0 0 0 0 0 0 0 0 0 0 0 0 0 0 0 0 0 0 1 0 0 0 0 0 0 0 0 0 0 0 0 0 0 0 0 0 0 0 0 0
0 0 0 1 0 0 0 0 0 0 0 0 0 0 0 0 0 0 0 0 0 0 0 0 0 0 0 0 0 0 0 0 0 0 0 0 0 0 0 0 0 0 0 0 0 0 0
1 0 0 3 0 0 0 0 0 0 0 0 0 0 0 0 0 0 0 0 0 0 0 0 0 0 0 0 0 0 0 0 0 0 0 0 0 0 0 0 0 0 0 0 0 0 0
1 0 1 0 0 0 0 0 0 0 0 0 0 0 0 0 0 0 0 0 0 0 0 0 0 0 0 0 0 0 0 0 0 0 0 0 0 0 0 1 0 0 0 0 0 0 0
2 0 1 1 0 0 0 0 0 0 0 0 0 0 0 0 0 0 0 0 0 0 0 0 0 0 0 0 0 0 0 0 0 0 0 0 0 0 0 7 0 0 0 0 0 0 0
6 0 3 1 0 1 1 0 0 0 0 0 0 0 0 0 0 0 0 0 0 0 0 0 0 0 0 0 0 0 0 0 0 0 0 0 0 0 0 0 0 0 0 0 0 0 0

GFSGBSN_con_sbcape_054.txt.gz
CAPE
8 2 11 10 7 10 5 16 15 18 23 27 56 8 13 41 14 8 11 8 8 11 13 1 12 80 71 47 27 0 3 3 0 48 37 32 72 24 11 54 95 35 0 12 13 31 48
4 4 5 8 2 7 12 14 26 37 39 43 47 48 5 20 37 32 8 8 12 0 1 5 13 1 110 19 0 0 0 0 7 18 23 54 37 21 19 29 45 54 79 14 7 17 3
5 4 1 4 6 3 7 12 24 38 54 40 52 40 27 16 23 35 11 3 26 0 0 0 3 0 61 15 5 0 0 0 0 33 52 38 45 28 24 45 58 104 142 110 74 23 4
9 4 3 4 4 4 6 17 35 37 62 52 57 47 33 18 18 32 33 7 20 0 0 0 0 0 2 0 4 23 2 0 0 5 74 36 52 67 79 58 76 110 116 106 106 124 49
8 8 3 3 2 3 6 15 28 35 59 53 46 40 34 22 18 30 13 24 0 0 0 0 0 0 5 4 1 1 0 31 41 62 98 60 68 12 97 85 82 104 55 65 132 91 78
11 7 5 2 3 2 5 16 25 40 46 41 45 42 46 22 16 28 3 2 0 0 0 0 0 0 0 0 1 2 6 109 44 76 110 73 68 33 40 45 12 3 33 74 86 36 42
8 8 5 3 2 2 6 8 20 34 36 45 50 41 35 27 10 21 7 0 0 0 0 0 0 0 0 7 21 12 3 27 57 73 68 24 7 28 6 10 5 23 27 53 11 61 42
7 9 3 3 2 1 3 7 16 19 33 37 40 28 28 21 7 23 0 0 0 0 0 0 0 0 0 34 22 17 13 0 16 51 4 3 7 22 16 8 6 16 23 21 23 52 49
7 8 3 0 1 0 1 3 9 18 39 33 37 25 28 18 7 8 0 0 0 0 0 0 0 9 32 52 25 16 2 0 23 14 9 21 2 14 13 30 1 9 7 20 22 58 62
9 8 2 0 0 0 0 3 9 20 20 30 24 21 22 9 3 0 0 0 0 0 22 2 1 4 30 59 27 19 9 6 12 26 4 4 2 15 8 17 4 0 0 0 0 0 0
7 5 1 0 0 0 0 2 11 16 18 19 19 21 16 5 0 0 0 0 0 0 24 6 1 0 4 44 9 4 7 18 16 15 5 2 15 21 36 18 5 1 0 0 0 3 10
5 2 0 0 0 0 0 1 7 14 15 14 18 14 12 16 7 0 0 0 1 10 6 9 4 2 11 26 25 9 25 37 15 2 0 4 1 3 12 0 1 0 0 2 10 33 17
4 1 0 0 0 0 0 1 6 4 9 5 12 6 2 0 3 0 0 0 16 20 6 1 1 7 9 22 46 4 34 17 44 55 69 11 6 0 1 0 0 4 27 33 27 38 10
2 1 0 0 0 0 0 0 4 7 9 4 5 4 0 0 0 0 0 0 6 5 7 4 0 0 6 8 6 14 14 21 7 0 6 50 23 5 0 6 1 7 11 9 7 9 7
2 0 0 0 0 0 0 0 1 5 6 4 1 0 0 0 0 0 1 8 2 4 2 2 1 0 0 5 0 0 2 16 20 5 23 16 20 2 0 0 3 2 11 0 0 0 0
2 1 0 0 0 0 0 0 1 4 1 0 1 0 2 0 0 0 1 1 0 0 0 0 4 1 0 1 0 0 1 6 5 1 0 1 37 29 0 2 1 11 0 3 2 0 0
3 1 0 0 0 0 0 0 1 2 0 0 0 1 1 0 0 3 2 1 0 0 1 6 23 5 3 0 0 0 0 0 1 0 0 0 1 28 35 59 32 0 6 1 2 0 1
3 1 0 0 0 0 0 0 1 0 0 0 0 4 1 0 29 0 1 0 0 1 0 3 1 4 6 0 0 0 0 0 1 0 0 0 7 17 38 3 0 1 8 8 19 5 0
4 1 0 0 0 0 0 0 0 0 0 0 1 7 1 1 11 1 0 0 0 0 0 0 0 0 2 0 0 0 0 0 0 0 0 0 1 16 27 4 0 13 0 0 0 0 3
10 1 0 0 0 0 0 0 0 0 0 0 0 4 4 7 3 0 0 2 3 0 0 0 0 0 0 0 0 0 2 0 0 0 0 0 0 0 3 0 0 3 5 0 0 12 2
10 2 0 0 0 0 0 0 0 0 0 0 0 0 1 2 3 0 0 0 0 3 0 0 0 0 0 0 0 0 0 0 0 2 0 0 0 0 0 0 0 0 0 0 0 0 11
10 4 0 0 0 0 0 0 0 0 0 0 0 0 0 0 0 0 0 0 0 0 0 0 0 0 0 0 0 0 0 0 6 0 0 0 3 0 0 0 0 0 0 0 0 0 2
16 5 0 0 0 0 0 0 0 0 0 0 0 0 0 0 0 0 0 0 0 0 0 0 2 0 2 0 0 0 0 0 0 1 1 0 0 0 0 0 0 0 0 0 0 0 0
15 6 2 0 0 0 0 0 0 0 0 0 0 0 0 0 0 0 0 0 0 0 1 0 0 12 0 0 0 0 0 0 0 0 0 0 0 0 0 0 0 0 0 0 0 0 0
11 8 3 1 0 0 0 0 0 0 0 0 0 0 0 0 0 0 0 0 0 0 0 0 0 0 0 0 2 4 2 0 0 0 0 0 0 0 0 0 0 0 0 0 0 1 0
13 12 3 1 0 1 0 0 0 0 0 0 0 0 0 0 0 0 0 0 1 0 0 0 0 0 0 0 4 4 9 0 2 0 0 0 0 0 0 0 0 0 0 0 0 9 0
16 12 5 1 0 1 0 0 0 0 0 0 0 0 0 0 0 0 0 0 0 0 0 0 0 0 0 5 19 12 2 0 4 2 1 11 12 18 14 11 1 0 0 0 1 0 0
14 18 6 1 2 1 0 0 0 0 0 0 1 0 0 0 0 0 0 0 0 0 0 0 0 0 0 0 3 0 0 0 0 0 0 5 12 13 11 12 1 0 0 2 0 0 0
14 15 7 2 4 1 1 0 0 0 0 0 0 0 0 0 0 0 0 0 0 0 0 0 0 1 0 1 1 2 0 0 0 4 0 8 0 1 1 1 0 0 0 0 0 0 0

GFSGBSN_con_sbcape_057.txt.gz
CAPE
8 5 1 3 4 5 3 7 11 26 38 38 40 56 37 5 23 32 13 7 24 3 1 1 0 5 120 109 72 75 3 41 43 27 105 61 127 138 54 4 0 78 167 131 68 59 96
13 10 5 3 3 10 9 12 10 22 19 32 57 53 38 24 8 20 39 2 16 31 0 0 0 5 116 71 28 0 0 1 59 13 43 99 76 124 52 67 3 12 69 134 134 86 59
10 10 7 3 5 5 9 14 13 30 22 35 57 44 37 30 14 13 34 47 15 31 0 0 0 3 24 30 19 15 0 0 49 14 5 41 106 85 27 45 75 26 0 92 32 20 15
14 11 6 6 2 7 10 10 15 21 21 32 40 40 39 29 12 4 29 29 34 12 0 0 0 0 20 0 20 31 16 16 8 9 12 0 23 53 54 65 138 69 134 62 5 1 12
46 25 11 7 6 5 9 8 13 19 28 30 32 39 49 24 24 8 23 12 26 0 0 0 1 1 19 24 4 7 5 29 39 27 34 51 126 52 93 75 77 72 36 39 63 15 37
128 42 9 7 8 4 8 11 8 16 22 24 35 38 35 24 22 12 20 0 2 0 0 0 0 6 4 12 0 0 18 1 59 52 31 64 47 66 69 108 45 32 13 15 36 75 53
103 101 6 5 9 5 5 7 8 13 11 24 31 31 31 26 21 11 12 7 8 3 0 0 0 0 0 36 62 30 35 91 47 42 43 11 34 53 15 4 0 9 1 41 42 52 71
70 74 8 6 6 3 2 4 6 7 7 32 22 28 31 25 15 13 13 5 0 0 0 0 0 0 0 66 24 11 18 0 30 48 13 11 3 48 34 18 3 12 2 24 40 108 75
72 66 8 7 6 1 0 0 6 7 16 17 17 22 19 20 9 12 10 0 0 0 9 9 0 2 16 85 23 38 27 12 23 35 38 22 5 3 29 17 2 26 7 29 56 80 72
77 12 8 5 2 0 0 0 4 8 10 16 12 19 20 16 0 6 1 0 0 0 11 6 19 23 52 56 36 1 5 0 13 24 25 5 13 4 46 26 19 17 23 35 36 75 13
66 7 7 3 0 0 0 0 3 6 8 13 10 20 18 17 3 5 0 0 0 0 67 8 16 0 26 55 8 20 14 1 17 33 4 24 10 13 33 27 10 17 0 19 25 35 11
61 6 5 1 0 0 0 0 3 4 9 9 9 13 15 6 6 4 0 0 5 5 4 30 12 11 25 30 24 4 31 22 19 32 3 7 1 21 23 31 27 3 2 6 12 14 10
2 6 3 1 0 0 0 0 0 4 4 4 3 7 1 1 2 0 0 6 29 26 7 0 8 12 13 16 4 6 34 37 27 54 5 8 4 4 7 16 3 37 35 34 15 22 12
1 8 4 1 0 0 0 0 0 0 3 2 0 3 1 2 1 0 10 6 14 7 12 6 5 5 13 10 4 12 18 36 18 24 6 33 5 6 8 14 2 1 21 5 2 5 5
2 6 5 2 0 0 0 0 0 1 1 0 1 4 5 0 0 3 6 25 17 12 6 0 1 7 7 5 4 15 14 42 27 21 37 28 20 1 14 1 1 4 36 0 1 0 7
2 8 6 3 0 0 0 0 0 2 0 0 3 6 6 0 0 21 15 10 8 0 5 0 9 3 11 6 10 8 32 16 11 5 0 3 33 25 2 0 0 25 3 2 1 0 0
2 9 7 7 0 0 0 0 0 0 0 0 4 19 5 0 11 21 15 15 0 2 0 2 9 1 6 1 4 1 4 14 1 0 0 16 3 30 13 32 23 6 4 21 19 3 15
6 10 12 5 1 0 0 0 0 0 0 0 16 12 2 2 16 11 0 11 1 3 13 11 13 11 5 0 0 4 6 11 15 6 5 0 6 5 11 3 0 9 19 21 19 10 0
7 13 10 6 2 0 0 0 0 0 0 0 4 7 4 5 25 10 2 6 3 4 3 7 2 3 1 8 1 9 13 0 7 6 0 0 9 27 17 5 1 6 0 0 13 12 17
13 15 10 10 1 0 0 0 0 0 0 0 17 5 18 22 3 8 18 18 8 0 0 0 0 0 2 4 1 4 9 2 1 4 0 1 1 10 7 7 0 0 0 0 1 10 1
13 14 11 17 2 0 0 0 0 0 0 0 1 9 1 6 6 7 1 17 10 9 0 0 0 0 0 3 6 3 3 6 3 0 0 2 16 0 0 0 0 0 0 2 7 0 15
18 15 14 16 2 1 0 0 0 0 0 0 0 0 0 8 1 7 2 20 15 13 17 0 1 0 0 6 0 4 2 12 4 4 6 0 0 0 0 0 0 0 0 1 14 11 13
19 18 16 9 2 2 0 0 0 2 0 0 0 0 0 0 2 23 12 0 1 6 9 9 6 17 3 3 0 0 0 3 5 7 22 18 0 0 10 0 0 0 0 0 0 0 1
25 17 14 8 3 1 0 0 0 0 0 0 0 0 0 0 8 11 0 0 2 0 6 0 2 21 0 0 0 0 0 0 0 0 7 17 5 0 0 0 0 0 0 0 0 0 0
22 17 15 11 3 0 0 0 0 0 0 0 0 0 0 0 0 0 0 0 0 0 1 0 0 0 0 0 7 6 9 4 0 0 0 1 7 1 7 0 0 0 0 0 0 1 0
24 18 16 6 2 1 0 0 0 0 0 0 0 0 0 0 0 0 0 0 22 7 1 0 0 0 0 30 26 20 14 12 2 0 0 0 0 1 0 0 0 0 0 0 0 5 0
28 22 16 12 1 0 0 0 0 0 0 0 0 0 0 0 0 0 0 0 0 0 5 0 0 0 0 41 39 22 14 0 9 10 5 11 17 17 16 10 3 0 0 0 1 0 0
27 27 31 5 3 1 0 0 0 0 0 0 0 0 0 0 0 0 0 0 0 0 5 0 0 0 3 36 24 10 13 3 2 0 6 9 11 10 10 14 3 0 0 1 0 0 0
30 28 25 8 7 2 0 0 0 0 0 0 0 0 0 0 0 0 0 0 0 0 0 0 0 0 0 3 0 0 0 0 1 7 0 2 0 3 1 3 0 0 0 0 0 0 0

GFSGBSN_con_sbcape_060.txt.gz
CAPE
8 15 14 6 2 3 2 1 7 14 26 25 21 48 40 28 24 6 14 48 4 27 5 0 0 0 0 66 53 73 31 96 75 92 29 94 193 106 77 3 126 89 44 154 160 139 5
16 12 20 11 5 2 3 2 4 21 26 27 24 38 30 23 37 13 11 31 36 8 37 0 0 0 36 44 15 18 7 1 83 74 37 82 100 123 53 50 75 1 8 27 49 45 86
96 43 11 19 7 4 3 6 3 17 26 31 18 20 33 38 41 17 4 28 34 28 8 0 0 0 6 16 2 10 9 0 22 48 25 1 4 62 43 52 79 0 2 3 59 49 26
112 113 100 20 10 6 2 9 5 17 28 27 18 21 34 39 40 29 4 24 13 27 3 0 16 0 7 0 2 26 27 13 2 53 11 0 3 12 34 79 20 0 0 1 44 54 5
108 116 123 92 12 3 5 5 13 19 20 23 12 27 31 32 31 28 4 16 3 2 1 0 0 19 12 6 0 0 6 9 11 40 2 9 23 79 62 55 39 18 1 5 17 24 12
95 98 93 74 7 5 4 8 15 15 17 11 9 29 25 27 29 21 3 1 0 0 0 0 0 1 6 17 0 3 29 14 23 49 46 2 33 38 35 35 18 12 3 2 0 2 7
123 111 92 80 6 6 5 10 11 5 12 5 20 19 23 27 28 13 4 0 1 0 0 0 0 0 0 30 31 33 63 4 68 48 3 4 3 0 0 0 0 0 0 0 0 28 18
100 129 75 28 6 5 4 6 5 3 6 13 13 19 17 14 20 3 13 2 2 0 4 0 0 0 0 14 45 64 4 1 8 21 7 6 9 0 2 27 5 25 6 0 41 66 41
98 139 99 17 7 6 4 2 0 2 5 7 15 14 12 13 15 2 1 7 0 0 24 0 0 2 0 60 40 50 4 0 8 9 9 7 8 13 12 16 1 0 1 7 52 78 60
123 130 102 12 8 5 1 1 0 0 5 3 13 8 10 22 0 1 3 0 0 0 22 3 7 4 20 10 15 3 1 1 24 7 22 6 0 0 0 1 4 31 16 105 66 45 11
113 96 76 6 7 4 1 0 0 1 0 5 7 5 14 22 0 2 0 0 0 2 27 0 0 0 6 16 2 9 15 7 8 11 0 5 2 3 12 12 16 29 33 4 56 54 10
48 95 80 2 9 1 1 0 0 0 0 1 2 8 15 0 2 1 0 0 1 6 1 0 0 2 8 15 1 15 10 0 36 9 21 23 13 5 31 15 5 0 9 0 0 0 0
2 99 53 5 7 4 3 0 0 0 0 0 0 2 0 1 9 0 0 1 10 18 1 0 0 5 16 0 1 12 12 13 21 1 2 3 6 2 1 9 18 0 3 0 0 0 0
26 75 12 5 6 7 3 1 0 0 0 0 0 0 1 1 2 0 1 11 6 2 21 0 1 0 15 8 0 16 2 0 0 2 6 11 1 2 28 16 7 4 5 1 0 0 0
52 23 10 5 12 10 5 1 0 0 0 0 0 0 0 0 0 0 14 9 10 4 0 0 2 7 6 0 0 10 12 6 3 18 5 11 7 7 3 0 1 4 9 0 0 0 1
14 30 2 5 14 10 3 2 1 0 0 0 1 3 0 0 0 6 17 9 2 5 0 0 7 0 0 0 0 5 9 7 3 2 0 1 16 2 0 0 0 0 0 0 1 0 0
35 19 1 8 13 16 6 4 2 1 0 0 0 13 0 0 1 15 9 1 8 7 0 3 0 0 0 0 3 1 17 2 8 2 0 2 1 13 0 7 0 0 0 0 0 0 4
35 28 3 13 13 13 11 3 2 1 0 0 20 17 2 5 8 17 7 11 4 6 6 7 0 2 5 0 0 1 12 12 9 0 0 0 0 4 13 1 0 0 6 1 5 0 0
45 21 9 16 12 15 13 4 2 1 0 0 10 2 3 6 19 1 2 1 3 2 8 15 4 0 4 3 0 1 6 0 9 0 1 2 1 0 0 0 0 1 0 0 1 0 0
32 16 15 16 13 14 8 5 1 0 0 0 5 3 4 11 1 0 6 4 0 0 0 1 1 4 3 1 1 4 3 9 3 3 0 0 2 2 0 0 0 0 0 0 0 0 0
18 36 11 15 13 20 12 5 1 0 0 0 4 0 0 7 1 0 15 7 0 0 0 0 0 1 1 3 1 0 0 1 4 0 0 0 1 0 0 0 0 0 0 0 0 0 0
21 33 11 15 13 18 20 9 3 0 0 0 0 0 0 0 0 3 1 11 17 0 9 0 1 0 0 1 0 0 0 0 3 0 0 0 0 0 0 0 0 0 0 1 2 5 0
32 23 13 17 13 17 17 10 3 0 0 0 0 0 0 0 5 4 2 0 7 0 0 1 7 3 0 0 0 0 0 0 3 2 2 3 0 0 0 0 0 0 0 0 0 0 0
20 27 18 16 13 19 17 4 0 0 0 0 0 0 0 0 0 2 3 0 0 0 0 0 0 1 0 0 0 0 0 0 0 0 2 10 2 0 0 0 0 0 0 0 0 0 0
18 18 27 17 22 21 6 0 0 2 0 0 0 0 0 0 0 0 0 0 0 0 0 0 0 0 0 0 0 0 1 0 0 0 0 0 1 0 0 0 0 0 0 0 0 0 0
9 9 49 19 24 14 4 0 0 3 2 0 0 0 0 0 0 0 0 0 2 0 0 0 0 0 0 5 2 3 3 2 0 0 0 0 0 0 0 0 0 0 0 0 0 0 0
8 29 46 24 23 14 1 0 0 0 0 0 0 0 0 0 0 0 0 0 0 0 2 0 0 0 0 7 1 2 0 0 0 1 0 0 0 0 0 3 0 0 0 0 0 0 0
8 20 23 23 25 21 3 0 0 0 0 0 0 0 0 0 0 0 0 0 0 0 0 0 0 0 0 6 7 0 0 0 0 0 0 0 0 0 0 1 0 0 0 0 0 0 0
9 25 26 29 35 15 5 0 0 0 0 0 0 0 0 0 0 0 0 0 0 0 0 0 0 0 0 0 0 0 0 0 0 0 0 0 0 0 0 0 0 0 0 0 0 0 0

GFSGBSN_con_sbcape_063.txt.gz
CAPE
70 57 22 9 17 8 4 6 4 4 15 11 33 32 34 37 26 36 20 10 34 30 7 27 0 0 0 21 23 72 45 94 129 120 27 19 55 115 74 0 47 75 51 72 117 144 0
134 121 87 43 18 13 5 6 2 6 7 11 34 32 19 34 35 50 16 2 34 44 4 9 0 3 2 10 4 62 9 3 87 90 5 0 51 65 78 0 117 25 33 133 75 64 11
131 162 126 125 84 35 7 6 2 10 7 15 30 35 23 38 43 44 15 2 23 15 11 2 0 0 0 0 2 14 1 6 18 63 36 11 30 8 28 47 7 18 47 0 29 56 50
163 137 126 130 126 68 6 3 1 6 7 8 28 19 23 33 33 36 20 2 5 2 2 0 0 0 0 0 0 0 19 57 1 53 53 28 13 3 35 31 28 14 9 3 0 1 5
188 179 148 112 119 109 7 3 4 9 10 8 17 7 26 26 30 26 10 0 0 0 0 0 0 2 0 8 0 0 0 31 28 48 3 3 1 36 52 39 12 10 2 3 0 4 6
176 178 147 118 105 126 7 5 6 9 5 8 5 12 21 27 29 27 0 0 0 0 0 0 0 0 0 1 0 7 25 16 30 45 1 3 0 15 13 20 12 1 0 0 0 13 0
21 134 144 149 114 63 5 8 4 8 0 8 8 7 11 22 14 5 0 0 0 0 0 0 0 0 0 54 17 32 69 5 40 44 1 2 0 2 0 0 4 0 0 0 0 0 12
19 28 98 153 122 18 6 7 3 3 0 3 10 4 10 6 7 0 0 0 0 0 0 0 0 0 0 38 54 53 3 0 27 22 5 2 0 0 0 0 2 17 6 0 3 1 27
21 48 32 120 134 63 7 8 3 1 0 4 6 3 3 3 0 0 0 0 0 0 0 0 0 0 8 49 24 66 1 0 7 7 7 1 0 22 0 0 26 4 0 0 7 39 26
13 19 54 25 127 27 7 6 1 0 0 4 2 2 3 3 0 0 0 0 0 0 0 0 3 3 9 6 9 23 1 0 20 5 9 10 7 1 0 11 0 0 0 32 53 34 22
15 19 19 49 33 23 10 7 1 0 0 0 2 0 5 2 0 2 0 0 0 0 0 0 0 0 0 12 6 17 15 6 10 4 9 2 3 14 20 3 0 0 0 0 5 12 0
67 23 32 56 9 9 9 10 2 0 0 0 0 1 12 0 0 2 0 0 0 0 0 0 0 0 3 11 9 23 7 0 22 6 10 10 2 2 8 0 0 0 0 0 0 0 0
159 78 51 40 11 4 8 9 5 0 0 0 0 2 0 0 4 0 0 0 0 0 0 0 0 0 2 0 5 2 0 1 0 1 5 2 1 0 0 0 0 0 0 0 0 0 0
178 126 71 53 33 3 6 8 10 0 1 0 0 0 0 0 0 0 0 1 0 0 0 0 0 0 0 0 0 0 0 0 0 0 5 5 1 0 0 0 0 0 0 0 0 0 0
185 175 80 31 17 6 12 12 12 1 0 0 0 0 0 0 0 0 0 1 0 0 0 0 0 0 0 0 0 0 0 4 0 0 0 12 6 0 0 0 0 0 0 0 0 0 0
73 198 61 15 13 9 15 16 13 3 0 0 0 0 3 0 0 0 1 2 0 1 0 0 0 0 0 0 0 1 0 0 0 0 0 0 2 0 0 0 0 0 0 0 0 0 0
116 97 47 59 17 9 17 23 15 4 0 0 0 1 0 0 0 0 0 2 8 0 0 1 0 0 0 0 0 2 0 2 0 0 0 0 0 1 0 0 0 0 0 0 0 0 0
61 66 10 17 43 11 21 14 14 8 0 1 0 0 0 0 2 0 0 6 2 2 4 0 0 0 0 0 0 0 6 1 0 0 0 0 0 0 3 0 0 0 0 0 0 0 0
69 81 31 27 14 21 19 12 20 7 5 0 0 3 4 3 0 0 1 5 18 2 18 0 0 0 0 0 0 6 2 2 15 0 0 0 0 0 1 0 0 0 0 0 0 0 0
104 94 36 20 19 22 21 15 22 11 0 0 0 2 11 11 0 0 0 0 1 3 13 10 0 0 3 0 0 2 1 6 2 0 0 0 0 0 0 0 0 0 0 0 0 0 0
88 88 27 23 11 28 21 15 17 9 0 0 0 0 0 1 0 0 4 0 0 0 0 0 1 2 1 0 0 5 0 6 0 0 0 0 0 0 0 0 0 0 0 0 0 0 0
87 76 45 26 25 25 15 35 16 7 4 0 0 0 0 0 0 0 0 5 0 1 0 0 2 0 0 0 0 0 0 0 0 0 0 0 0 0 0 0 0 0 0 0 0 0 0
71 76 39 27 60 36 22 23 17 14 4 0 0 0 0 0 0 0 0 4 3 0 0 0 1 0 0 0 0 0 0 0 0 0 0 0 0 0 0 0 0 0 0 0 0 0 0
46 67 21 40 26 45 16 12 27 11 1 0 0 0 0 0 0 0 0 0 0 0 0 0 0 0 0 0 0 0 0 0 0 0 0 0 0 0 0 0 0 0 0 0 0 0 0
35 64 33 42 48 32 24 11 20 10 0 0 0 0 0 0 0 0 2 0 0 0 0 0 0 0 0 0 0 0 0 0 0 0 0 0 0 0 0 0 0 0 0 0 0 0 0
43 61 30 35 77 45 33 18 20 1 0 0 0 0 0 0 0 0 0 0 0 0 0 0 0 0 0 0 0 0 0 0 0 0 0 0 0 0 0 0 0 0 0 0 0 0 0
32 31 33 23 3 53 29 24 6 4 12 0 0 0 0 0 0 0 0 0 0 0 0 0 0 0 0 0 0 0 0 0 0 0 0 0 0 0 0 0 0 0 0 0 0 0 0
37 41 56 31 10 29 22 20 2 12 13 0 0 0 0 0 0 0 0 0 0 0 0 0 0 0 0 0 0 0 0 0 0 0 0 0 0 0 0 12 1 0 0 0 0 0 0
37 39 12 31 29 25 18 5 0 14 0 0 0 0 0 0 0 0 0 0 0 0 0 0 0 0 0 0 0 0 0 0 0 0 0 0 0 0 0 0 0 0 0 0 0 0 0

GFSGBSN_con_sbcape_066.txt.gz
CAPE
146 144 134 126 125 92 76 10 6 3 3 6 13 17 27 20 27 25 36 17 8 41 25 13 7 0 0 0 0 0 33 1 156 78 25 4 85 68 102 18 0 59 2 39 30 135 22
140 170 166 172 114 126 136 75 9 7 6 6 16 19 30 15 25 37 42 15 2 33 31 21 0 0 0 0 0 40 29 0 77 58 29 3 97 54 81 22 0 47 76 46 29 86 31
24 110 137 187 196 111 118 123 10 9 7 8 9 15 15 16 20 22 40 13 1 6 14 7 1 0 0 0 0 1 0 2 32 74 39 45 20 8 55 32 37 44 28 11 86 2 42
22 34 58 124 156 165 118 74 5 7 11 11 9 10 5 19 22 24 11 9 0 2 3 4 0 0 0 0 0 0 0 20 30 71 48 53 4 0 17 19 69 18 1 10 0 29 18
19 24 20 23 78 169 154 127 3 7 9 15 6 0 3 19 20 20 13 3 2 0 1 2 0 0 0 0 0 0 0 12 79 57 33 31 0 1 79 102 49 39 3 0 5 0 33
8 12 25 25 30 36 162 158 5 10 8 11 3 0 5 3 11 5 0 0 0 0 0 0 0 0 0 0 0 8 16 7 55 56 10 37 4 4 11 58 20 1 5 4 1 20 0
9 13 23 22 26 35 70 167 6 13 9 4 1 2 1 5 1 0 0 0 0 0 0 0 0 0 0 9 24 39 34 31 31 28 1 17 10 10 1 0 0 0 0 0 12 49 13
25 15 9 35 15 18 28 147 7 10 12 0 0 0 0 0 0 0 0 0 0 0 0 0 0 0 0 8 17 67 5 45 26 32 2 6 10 2 5 6 7 4 0 0 21 26 12
53 45 23 26 40 22 12 49 6 11 9 0 0 0 0 0 0 0 0 0 0 0 0 0 0 0 0 2 9 65 1 0 19 17 7 2 0 0 6 0 34 0 0 0 0 0 42
39 69 68 52 28 35 20 30 6 9 5 0 0 0 0 0 0 0 0 0 0 0 0 0 0 0 0 4 17 48 2 5 9 17 14 13 6 0 12 0 0 4 0 48 13 0 0
33 35 59 58 63 57 32 26 12 8 4 0 0 0 0 0 0 0 0 0 0 0 0 0 0 0 4 10 4 30 14 18 7 2 11 2 10 0 2 0 0 0 0 47 29 2 0
47 50 51 77 148 71 44 36 27 7 7 0 0 0 7 1 0 0 0 0 0 0 0 0 0 0 2 5 15 2 19 11 19 4 2 21 13 0 9 0 0 0 0 0 0 1 0
72 132 87 105 139 94 61 23 12 9 8 2 0 1 1 0 0 0 0 0 0 0 0 0 0 0 0 0 1 1 2 4 3 0 0 3 2 16 9 1 3 0 0 0 1 0 0
97 171 80 123 33 144 96 26 13 12 13 0 0 1 0 0 0 0 0 0 0 0 0 0 0 0 0 0 0 0 0 2 3 0 0 1 0 11 0 0 0 0 0 0 0 0 0
109 82 66 74 47 125 53 66 14 17 12 0 9 0 0 0 0 0 0 0 0 0 0 0 0 0 0 0 0 0 0 0 0 0 0 1 3 0 0 0 0 0 0 0 0 0 0
229 173 106 77 121 54 16 29 20 17 9 12 0 0 0 0 0 0 0 0 0 0 0 0 0 0 0 0 0 0 0 0 0 0 0 0 0 0 0 0 0 0 0 0 0 0 0
134 144 178 77 106 44 3 43 19 26 5 1 0 0 0 0 0 0 0 0 0 0 0 0 0 0 0 0 0 0 0 0 0 0 0 0 0 0 0 0 0 0 0 0 0 0 0
120 92 107 130 73 12 19 31 27 20 21 0 0 0 0 0 0 0 0 3 0 0 0 0 0 0 0 0 0 3 0 0 0 0 0 0 0 0 0 0 0 0 0 0 0 0 0
98 68 93 122 74 20 24 34 31 32 18 0 0 8 2 0 2 0 1 10 4 0 0 0 0 0 0 0 0 7 0 0 0 0 0 0 0 0 0 0 0 0 0 0 0 0 0
83 66 100 95 51 13 7 50 62 46 1 0 0 4 17 8 0 0 0 5 17 2 0 0 0 0 0 0 0 3 6 8 0 0 0 0 0 0 0 0 0 0 0 0 0 0 0
77 63 66 95 52 18 42 34 33 77 8 0 0 0 0 1 1 0 0 0 2 1 0 0 0 0 0 0 0 1 3 4 0 0 0 0 0 0 0 0 0 0 0 0 0 0 0
84 56 40 66 47 48 10 5 49 70 37 0 0 0 0 0 0 0 0 0 0 0 0 0 0 0 0 0 0 0 0 0 0 0 0 0 0 0 0 0 0 0 0 0 0 0 0
89 62 53 26 57 30 41 50 35 56 17 0 0 0 0 0 0 0 0 2 0 0 0 0 0 0 0 0 0 0 0 0 0 0 0 0 0 0 0 0 0 0 0 0 0 0 0
97 49 38 45 26 14 39 37 49 66 6 0 0 0 0 0 0 0 0 2 1 0 0 0 0 0 0 0 0 0 0 0 0 0 0 0 0 0 0 0 0 0 0 0 0 0 0
77 46 29 54 44 33 42 25 40 64 0 0 0 0 0 0 0 0 0 0 0 0 0 0 0 0 0 0 0 0 0 0 0 0 0 0 0 0 0 0 0 0 0 0 0 0 0
73 32 17 59 34 41 25 28 40 69 60 0 0 0 0 0 0 0 0 0 0 0 0 0 0 0 0 0 0 0 0 0 0 0 0 0 0 0 0 0 0 0 0 0 0 0 0
60 20 25 31 5 9 21 50 44 79 31 0 0 0 0 0 0 0 0 0 0 0 0 0 0 0 0 0 0 0 0 0 0 0 0 0 0 0 0 0 0 0 0 0 0 0 0
41 19 29 18 13 8 36 21 37 78 12 0 0 0 0 0 0 0 0 0 0 0 0 0 0 0 0 0 0 0 0 0 0 0 0 0 0 0 0 0 0 0 0 0 0 0 0
27 6 28 4 17 49 15 12 34 54 1 0 0 0 0 0 0 0 0 0 0 0 0 0 0 0 0 0 0 0 0 0 0 0 0 0 0 0 0 0 0 0 0 0 0 0 0

GFSGBSN_con_sbcape_069.txt.gz
CAPE
17 27 26 67 92 129 157 142 150 125 12 16 14 16 19 25 16 15 35 44 20 8 39 31 16 0 0 0 0 0 42 1 70 98 12 13 16 58 130 3 104 71 77 136 175 192 107
12 15 16 16 17 32 97 160 124 114 43 16 15 18 19 10 3 17 20 36 13 1 23 38 17 0 0 0 0 0 19 0 29 43 10 0 12 27 104 31 16 42 3 84 139 201 86
4 5 9 9 15 22 23 50 96 120 107 14 15 20 12 0 7 15 14 12 16 2 5 29 22 0 0 0 0 0 0 1 23 103 43 1 15 16 24 51 2 43 7 118 103 89 55
4 9 12 14 10 13 29 24 29 116 137 13 13 17 4 0 5 22 12 5 6 8 3 21 19 0 0 0 0 0 0 0 28 126 94 33 33 2 52 31 9 1 0 22 0 0 61
24 10 4 8 15 17 10 26 16 28 116 14 13 7 0 0 5 12 4 0 1 2 2 27 0 0 0 0 0 0 0 0 35 74 78 56 21 12 12 80 34 2 0 2 2 0 43
34 42 44 8 9 19 21 24 16 10 60 13 17 0 0 0 0 2 0 0 0 0 0 0 0 0 0 0 0 0 3 7 41 44 34 49 6 16 2 65 41 0 0 3 4 20 31
37 25 56 72 19 21 16 22 17 12 62 5 5 0 4 0 0 4 0 0 0 0 0 0 0 0 0 0 0 0 12 4 39 35 27 18 24 0 1 1 0 0 1 3 7 25 5
25 31 42 42 69 39 15 26 11 5 49 8 2 1 2 0 0 0 0 0 0 0 0 0 0 0 0 0 1 67 0 58 38 30 7 9 32 3 0 0 0 1 2 5 20 34 0
10 15 18 35 63 60 44 24 33 14 23 10 1 4 0 0 0 0 0 0 0 0 0 0 0 0 0 0 1 66 6 8 4 21 11 0 0 0 0 0 1 0 0 3 3 30 3
5 9 11 28 27 41 72 54 43 30 18 7 4 7 0 0 0 0 0 0 0 0 0 0 0 0 0 3 17 66 11 13 12 11 0 11 4 3 0 1 0 0 0 0 45 0 3
35 44 57 63 63 69 44 90 46 15 14 5 15 6 0 0 0 0 0 0 0 0 0 0 0 0 2 7 5 33 14 19 5 13 4 8 4 0 2 3 0 0 14 0 11 22 8
83 75 71 88 118 91 35 47 44 32 90 7 23 5 3 2 0 0 0 0 0 0 0 0 0 0 0 6 9 3 8 19 27 16 29 24 21 0 16 4 0 0 0 2 0 3 2
95 101 109 111 106 79 99 88 71 62 97 14 31 12 9 0 0 0 0 0 0 0 0 0 0 0 0 0 4 2 3 15 13 2 2 9 1 0 15 3 0 0 0 0 0 0 0
117 92 103 114 105 68 89 72 102 85 76 25 31 13 2 0 0 0 0 0 0 0 0 0 0 0 0 0 0 0 0 4 3 0 5 4 7 1 0 0 0 0 0 0 0 0 0
114 101 91 116 106 158 79 96 110 49 16 39 28 0 0 0 0 0 0 0 0 0 0 0 0 0 0 0 0 0 0 2 5 0 0 1 0 1 2 0 0 0 0 0 0 0 0
106 124 148 138 111 112 78 113 96 32 28 48 1 0 0 0 0 0 0 0 0 0 0 0 0 0 0 0 0 0 0 0 0 0 0 0 0 0 0 0 0 0 0 0 0 0 0
105 131 131 177 141 139 104 75 34 10 37 7 0 1 0 0 0 2 0 0 0 0 0 0 0 0 0 0 0 0 0 0 0 0 0 0 0 0 0 0 0 0 0 0 0 0 0
125 172 121 170 143 95 89 54 12 15 57 14 4 5 0 0 0 1 0 0 0 0 0 0 0 0 0 0 0 0 0 0 0 0 0 0 0 0 0 0 0 0 0 0 0 0 0
73 176 110 146 113 86 68 39 47 29 53 2 8 15 1 0 0 0 0 7 0 0 0 0 0 0 0 0 0 0 0 0 0 0 0 0 0 0 0 0 0 0 0 0 0 0 0
109 153 100 123 77 90 71 26 57 65 64 3 2 12 26 8 0 0 3 8 0 0 0 0 0 0 0 0 0 0 0 0 0 0 0 0 0 0 0 0 0 0 0 0 0 0 0
184 149 72 72 85 46 62 19 50 27 95 9 0 0 1 2 2 0 0 5 0 7 0 0 0 0 0 0 0 2 1 0 0 0 0 0 0 0 0 0 0 0 0 0 0 0 0
183 138 85 67 60 15 63 34 0 13 83 3 3 0 0 0 0 0 0 1 5 0 0 0 0 0 0 0 0 0 0 0 0 0 0 0 0 0 0 0 0 0 0 0 0 0 0
170 138 74 63 28 14 48 29 20 66 42 0 0 0 0 1 0 0 0 0 0 0 0 0 0 0 0 0 0 0 0 0 0 0 0 0 0 0 0 0 0 0 0 0 0 0 0
223 125 70 57 16 33 22 16 9 69 38 0 0 0 0 0 0 0 0 0 0 0 0 0 0 0 0 0 0 0 0 0 0 0 0 0 0 0 0 0 0 0 0 0 0 0 0
123 96 68 32 17 50 22 30 19 28 1 0 0 0 0 0 0 0 1 0 0 0 0 0 0 0 0 0 0 0 0 0 0 0 0 0 0 0 0 0 0 0 0 0 0 0 0
65 42 45 21 4 30 18 16 29 60 2 0 0 0 0 0 0 0 0 0 0 0 0 0 0 0 0 0 0 0 0 0 0 0 0 0 0 0 0 0 0 0 0 0 0 0 0
66 46 31 5 18 13 26 34 54 40 50 0 0 0 0 0 0 0 0 0 0 0 0 0 0 0 0 0 0 0 0 0 0 0 0 0 0 0 0 0 0 0 0 0 0 0 0
36 36 23 2 9 4 22 7 24 20 9 0 0 0 0 0 0 0 0 0 0 0 0 0 0 0 0 0 0 0 0 0 0 0 0 0 0 0 0 0 0 0 0 0 0 0 0
15 26 14 1 4 5 39 11 16 56 0 0 0 0 0 0 0 0 0 0 0 0 0 0 0 0 0 0 0 0 0 0 0 0 0 0 0 0 0 0 0 0 0 0 0 0 0

GFSGBSN_con_sbcape_072.txt.gz
CAPE
14 12 12 13 13 17 16 28 40 36 87 187 230 14 13 18 19 11 4 10 18 22 3 30 38 5 0 0 0 0 61 0 65 98 21 13 5 26 22 18 28 86 18 45 104 238 392
13 10 12 9 11 10 16 16 31 23 24 61 201 8 7 25 12 15 9 5 32 21 1 8 35 0 0 0 0 0 0 0 2 46 97 53 11 29 0 17 93 30 10 49 173 99 323
22 25 23 20 10 9 10 17 22 28 28 25 170 13 8 16 24 15 14 14 14 31 2 4 36 0 0 0 0 0 0 0 0 39 86 53 29 33 32 20 0 40 55 25 86 107 225
42 48 43 21 28 20 12 10 15 17 14 26 54 8 9 13 11 17 8 14 16 21 6 4 22 0 0 0 0 0 0 0 0 49 88 61 32 36 17 14 35 46 35 37 29 154 199
21 30 32 46 45 17 30 20 16 17 4 18 53 4 6 4 6 12 2 5 0 19 7 8 0 0 0 0 0 0 0 0 0 16 56 42 24 35 32 1 11 12 0 2 1 47 0
40 38 39 43 43 49 34 13 30 22 24 9 15 10 3 0 10 4 0 0 0 15 0 0 0 0 0 0 0 0 1 0 18 21 50 39 30 37 4 2 0 13 0 1 3 22 17
36 35 32 33 39 47 50 38 7 18 20 26 5 13 3 0 0 0 0 0 0 0 0 0 0 0 0 0 0 3 4 0 10 22 18 32 34 13 1 2 0 0 0 0 18 27 31
33 36 33 24 22 28 38 45 53 7 13 23 9 16 7 28 3 2 0 0 0 0 0 0 0 0 0 0 2 22 2 6 5 9 14 23 39 0 17 8 3 0 0 0 9 23 9
35 40 48 35 16 10 7 10 37 48 21 31 35 40 17 19 20 2 0 0 0 0 0 0 0 0 0 0 0 14 1 11 15 20 14 16 7 0 2 0 25 0 0 3 2 10 6
47 54 52 36 32 17 26 18 24 35 35 36 54 48 22 21 5 0 0 0 0 0 0 0 0 0 0 0 12 36 16 0 4 8 8 8 13 1 0 0 0 1 0 0 4 0 1
50 55 42 19 25 42 49 33 18 14 34 52 29 60 28 7 0 0 0 0 0 0 0 0 0 0 0 1 1 25 12 15 7 3 15 13 13 6 0 2 1 0 0 0 3 16 8
62 74 78 88 59 135 68 86 62 38 5 54 17 54 37 18 0 0 0 0 0 0 0 0 0 0 0 4 3 0 12 9 9 19 20 17 6 1 0 4 0 0 0 0 0 1 0
88 109 106 111 94 117 87 105 91 77 57 44 44 28 38 8 0 0 0 0 0 0 0 0 0 0 0 0 11 5 8 17 26 3 2 5 8 0 9 1 0 0 0 0 0 0 0
72 113 118 120 103 134 207 133 100 83 81 135 69 35 27 3 0 0 0 0 0 0 0 0 0 0 0 0 0 4 10 15 0 0 9 0 0 0 0 0 1 0 0 0 0 0 0
100 118 114 108 192 193 163 189 171 92 116 80 26 28 24 11 0 0 0 0 0 0 0 0 0 0 0 0 0 2 0 12 3 0 0 6 1 1 0 0 0 0 0 0 0 0 0
112 137 106 167 218 127 111 141 96 106 81 26 14 10 23 0 0 0 0 0 0 0 0 0 0 0 0 0 0 0 0 0 0 0 0 0 6 0 0 0 0 0 0 0 0 0 0
132 130 144 199 199 117 100 112 123 30 28 16 13 19 10 0 3 5 0 0 0 0 0 0 0 0 0 0 0 0 0 0 0 0 0 0 0 0 0 0 0 0 0 0 0 0 0
105 208 235 180 188 95 93 127 70 52 1 27 24 5 1 0 37 1 0 0 0 0 0 0 0 0 0 0 0 0 0 0 0 0 0 0 0 0 0 0 0 0 0 0 0 0 0
102 235 257 168 113 93 93 84 72 83 35 18 13 16 2 6 8 2 0 0 0 0 0 0 0 0 0 0 0 0 0 0 0 0 0 0 0 0 0 0 0 0 0 0 0 0 0
135 222 220 115 139 106 86 58 47 70 61 5 7 1 20 19 0 0 0 0 0 0 0 0 0 0 0 0 0 0 0 0 0 0 0 0 0 0 0 0 0 0 0 0 0 0 0
178 160 176 93 75 80 46 47 45 76 56 2 7 5 10 7 8 0 0 0 0 0 0 0 0 0 0 0 0 0 0 0 0 0 0 0 0 0 0 0 0 0 0 0 0 0 0
182 188 157 96 70 69 32 63 23 76 81 4 5 1 0 0 0 0 0 0 0 0 0 0 0 0 0 0 0 0 0 0 0 0 0 0 0 0 0 0 0 0 0 0 0 0 0
163 161 144 72 60 52 29 47 32 23 61 7 0 0 0 2 0 0 0 1 1 0 0 0 0 0 0 0 0 0 0 0 0 0 0 0 0 0 0 0 0 0 0 0 0 0 0
170 152 93 75 53 37 19 30 19 16 19 0 0 0 0 0 0 0 0 0 0 0 0 0 0 0 0 0 0 0 0 0 0 0 0 0 0 0 0 0 0 0 0 0 0 0 0
118 106 85 52 46 8 28 9 21 1 10 0 0 0 0 0 0 0 0 0 0 0 0 0 0 0 0 0 0 0 0 0 0 0 0 0 0 0 0 0 0 0 0 0 0 0 0
82 76 58 53 17 13 15 1 51 42 0 0 0 0 0 0 0 0 0 0 0 0 0 0 0 0 0 0 0 0 0 0 0 0 0 0 0 0 0 0 0 0 0 0 0 0 0
76 76 29 28 12 5 20 32 48 42 0 0 0 0 0 0 0 0 0 0 0 0 0 0 0 0 0 0 0 0 0 0 0 0 0 0 0 0 0 0 0 0 0 0 0 0 0
71 33 22 21 1 1 23 48 48 7 0 0 0 0 0 0 0 0 0 0 0 0 0 0 0 0 0 0 0 0 0 0 0 0 0 0 0 0 0 0 0 0 0 0 0 0 0
61 24 19 2 0 3 35 22 46 8 0 0 0 0 0 0 0 0 0 0 0 0 0 0 0 0 0 0 0 0 0 0 0 0 0 0 0 0 0 0 0 0 0 0 0 0 0

GFSGBSN_con_sbcape_075.txt.gz
CAPE
26 17 16 18 15 8 8 8 18 18 11 16 18 48 106 8 10 9 10 5 7 2 4 0 33 11 0 0 0 0 0 5 50 24 24 18 8 25 33 18 9 32 0 11 3 0 182
19 24 36 26 21 25 25 14 16 15 10 10 12 32 26 6 10 4 7 16 11 18 0 2 10 1 0 0 0 0 0 0 2 42 36 33 6 42 18 37 22 1 6 8 5 12 134
32 41 36 20 19 26 17 18 14 14 10 12 11 5 69 6 4 0 10 13 10 6 4 9 10 0 0 0 0 0 0 0 0 0 5 34 54 59 18 8 12 25 38 2 9 2 120
47 28 36 30 34 39 30 30 29 25 22 18 14 19 64 7 6 0 16 4 10 3 0 9 36 0 0 0 0 0 0 0 0 0 27 38 63 33 3 6 19 28 57 28 0 46 129
39 55 57 48 34 28 35 32 28 31 25 21 18 11 8 8 4 18 19 4 0 0 0 19 4 0 0 0 0 0 0 0 0 0 11 68 30 6 8 13 3 30 8 1 64 110 207
52 56 54 36 65 54 49 30 37 41 16 19 23 14 10 8 12 6 1 0 0 2 6 13 0 0 0 0 0 0 0 0 2 10 35 37 24 12 22 22 6 3 31 32 14 60 10
61 50 51 79 93 104 68 47 49 54 57 10 14 10 18 6 17 13 0 0 0 0 0 0 0 0 0 0 0 0 0 0 11 20 1 30 46 15 23 2 3 7 1 2 7 18 14
67 92 91 102 104 87 56 61 51 46 43 17 6 14 6 5 28 19 0 0 0 0 0 0 0 0 0 0 1 0 0 2 1 1 15 13 30 9 8 3 3 8 1 21 1 29 28
77 96 94 95 98 90 75 79 60 49 42 30 3 19 2 18 28 7 0 0 0 0 0 0 0 0 0 0 0 0 0 2 4 6 30 36 9 5 3 1 11 1 0 2 3 9 5
61 79 102 108 89 82 88 81 74 64 53 38 0 17 0 25 9 0 0 0 0 0 0 0 0 0 0 0 6 14 2 0 4 3 18 18 18 11 0 2 1 22 0 0 0 5 4
67 56 39 66 81 79 73 75 71 57 115 76 11 7 3 25 0 0 0 0 0 0 0 0 0 0 0 0 2 25 9 4 9 9 10 6 26 17 0 2 1 3 1 0 0 0 1
71 59 45 62 77 99 115 119 99 92 117 155 21 19 9 5 0 0 0 0 0 0 0 0 0 0 0 8 13 3 13 11 14 14 12 11 3 5 1 0 0 0 2 1 0 1 0
57 48 72 90 88 120 239 168 142 121 172 183 20 19 55 1 2 0 0 0 0 0 0 0 0 0 0 0 6 10 5 11 4 2 12 2 4 19 4 6 0 0 0 3 0 0 2
47 59 97 139 139 197 285 326 131 73 83 85 45 175 70 2 0 0 0 0 0 0 0 0 0 0 0 0 2 11 14 31 1 0 2 0 0 5 6 2 1 0 0 0 0 0 8
52 94 100 161 235 207 187 175 151 76 68 86 40 43 3 8 0 0 0 0 0 0 0 0 0 0 0 0 2 6 5 10 1 0 0 9 10 6 0 0 0 0 0 0 0 0 0
71 99 219 203 227 185 176 160 172 73 169 63 1 6 12 8 0 2 9 0 0 0 0 0 0 0 0 0 0 0 0 0 7 0 0 0 15 0 0 0 0 0 0 0 0 0 0
100 167 229 229 189 161 133 119 112 73 53 2 2 7 38 3 1 17 2 0 0 0 0 0 0 0 0 0 0 0 0 0 0 0 0 0 0 0 0 0 0 0 0 0 0 0 0
162 201 242 210 209 161 114 115 92 86 53 14 7 3 15 1 8 25 0 0 0 0 0 0 0 0 0 0 0 0 0 0 0 0 0 0 0 0 0 0 0 0 0 0 0 0 0
88 174 237 187 174 80 101 80 58 73 38 5 6 18 19 19 14 12 0 0 0 0 0 0 0 0 0 0 0 0 0 0 0 0 0 0 0 0 0 0 0 0 0 0 0 0 0
93 175 212 207 135 108 101 71 47 56 28 0 4 1 11 31 0 0 1 0 0 0 0 0 0 0 0 0 0 0 0 0 0 0 0 0 0 0 0 0 0 0 0 0 0 0 0
113 190 179 124 105 68 71 64 55 54 13 0 4 8 11 2 5 0 0 0 0 0 0 0 0 0 0 0 0 0 0 0 0 0 0 0 0 0 0 0 0 0 0 0 0 0 0
83 159 145 107 74 66 48 62 57 56 37 0 6 5 1 0 0 0 0 0 0 0 0 0 0 0 0 0 0 0 0 0 0 0 0 0 0 0 0 0 0 0 0 0 0 0 0
86 99 101 89 69 52 52 18 25 25 17 14 0 0 0 0 0 1 0 0 0 0 0 0 0 0 0 0 0 0 0 0 0 0 0 0 0 0 0 0 0 0 0 0 0 0 0
100 78 67 64 63 53 20 8 24 45 9 0 0 0 0 2 0 0 0 0 0 0 0 0 0 0 0 0 0 0 0 0 0 0 0 0 0 0 0 0 0 0 0 0 0 0 0
82 56 63 53 40 19 1 12 10 18 0 0 0 0 0 0 0 0 0 0 0 0 0 0 0 0 0 0 0 0 0 0 0 0 0 0 0 0 0 0 0 0 0 0 0 0 0
54 36 55 22 54 27 4 10 12 15 0 0 0 0 0 0 0 0 0 0 0 0 0 0 0 0 0 0 0 0 0 0 0 0 0 0 0 0 0 0 0 0 0 0 0 0 0
43 47 34 30 35 3 4 33 39 2 0 0 0 0 0 0 0 0 0 0 0 0 0 0 0 0 0 0 0 0 0 0 0 0 0 0 0 0 0 0 0 0 0 0 0 0 0
27 43 16 24 15 2 45 41 9 0 0 0 0 0 0 0 0 0 0 0 0 0 0 0 0 0 0 0 0 0 0 0 0 0 0 0 0 0 0 0 0 0 0 0 0 0 0
42 22 15 32 0 0 48 49 31 5 0 0 0 0 0 0 0 0 0 0 0 0 0 0 0 0 0 0 0 0 0 0 0 0 0 0 0 0 0 0 0 0 0 0 0 0 0

GFSGBSN_con_sbcape_078.txt.gz
CAPE
32 36 26 30 26 22 28 17 37 29 18 24 16 10 21 4 64 28 4 9 0 0 11 0 0 4 0 0 0 0 0 15 15 7 0 0 4 11 8 5 14 32 0 6 2 16 29
43 48 55 60 67 48 44 37 15 43 19 20 17 15 25 3 135 16 10 0 0 0 10 0 0 2 0 0 0 0 0 0 0 8 3 0 1 22 24 21 30 6 14 8 17 25 32
50 45 65 74 72 73 70 63 46 19 25 32 25 14 23 12 87 14 10 11 0 0 5 0 3 2 0 0 0 0 0 0 0 0 5 4 17 32 31 19 14 28 35 24 16 17 48
55 63 55 75 73 75 62 48 40 42 17 24 29 18 19 1 71 4 16 7 0 0 0 0 21 0 1 0 0 0 0 0 0 0 8 3 36 47 39 43 38 34 12 41 12 17 6
51 69 72 84 88 72 89 71 78 60 30 35 32 19 19 0 22 15 14 11 4 1 0 13 2 3 0 0 0 0 0 0 3 7 13 22 42 52 39 50 38 31 34 25 18 7 21
65 49 95 72 79 88 96 100 79 70 47 21 26 26 12 3 8 10 11 2 2 10 14 9 0 0 0 0 0 0 0 2 13 41 35 40 68 55 26 67 23 84 15 6 41 17 5
61 98 95 63 92 107 107 88 84 96 91 59 19 8 10 25 6 20 3 17 0 1 13 0 0 0 0 0 0 0 2 19 39 43 43 57 43 20 15 18 33 6 25 28 0 0 67
83 93 86 82 93 107 122 126 107 89 80 78 45 12 1 12 54 13 0 0 0 0 0 0 0 0 0 0 0 0 6 25 14 25 33 31 18 4 15 22 26 14 16 97 69 76 80
88 98 96 112 105 109 124 132 107 104 118 88 87 39 13 26 33 15 0 0 0 0 0 0 0 0 0 0 6 6 11 19 14 8 6 40 3 3 20 9 28 9 68 17 17 9 15
73 72 94 96 96 107 126 147 153 161 137 120 101 101 27 30 27 3 3 0 0 0 0 0 0 0 0 1 7 11 27 13 8 6 15 14 11 14 21 4 18 5 12 4 4 5 130
89 68 44 54 90 145 153 203 266 258 212 160 120 102 99 26 10 5 0 0 0 0 0 0 0 0 0 5 24 23 10 3 15 12 8 36 19 27 16 5 12 19 14 2 5 7 28
56 54 52 70 141 217 283 274 319 251 226 197 136 102 89 39 42 1 0 0 0 1 0 0 0 0 5 27 24 2 19 9 12 8 10 14 16 24 4 0 2 2 30 19 13 13 20
66 58 70 140 195 297 324 292 240 231 186 115 56 43 44 70 23 0 0 2 10 2 0 0 0 0 13 3 24 13 8 3 23 29 116 13 7 1 0 15 12 7 27 38 48 53 37
77 73 107 186 311 282 239 192 185 124 90 69 73 48 11 56 35 0 7 12 2 0 0 0 0 0 16 10 0 4 6 4 3 11 4 13 18 8 4 2 18 6 1 11 13 44 28
61 84 178 245 255 217 163 155 141 116 67 52 53 70 48 79 1 2 21 10 0 0 0 0 0 7 1 0 0 0 1 17 8 10 16 42 9 15 0 0 1 2 0 0 2 0 3
48 104 130 214 222 154 123 150 135 70 83 41 23 30 27 21 4 23 27 5 0 0 0 0 1 0 0 0 0 3 1 1 9 5 0 0 9 1 0 0 0 0 0 1 0 2 7
48 90 136 160 162 93 99 121 80 50 36 32 17 8 19 20 35 18 14 1 0 0 0 0 0 0 0 0 0 0 4 2 2 0 0 0 0 0 0 1 0 0 0 0 0 0 2
44 115 139 156 125 87 81 89 60 59 39 2 6 16 29 29 14 13 15 0 0 0 0 0 0 0 0 0 1 1 6 3 0 0 0 0 0 4 1 0 0 0 0 0 0 0 0
55 98 86 99 136 119 91 72 17 46 25 25 8 16 36 42 24 15 11 2 0 0 0 0 0 0 0 0 0 1 1 0 0 0 0 0 0 0 0 0 0 0 0 0 0 0 0
60 87 87 100 118 113 93 65 56 38 21 4 12 5 11 9 13 1 33 1 0 0 0 0 0 0 0 0 0 1 0 0 0 0 0 0 0 0 0 0 0 0 0 0 0 0 0
78 78 69 62 85 67 52 22 53 42 34 0 6 12 10 20 17 2 0 0 0 0 0 0 0 0 0 0 0 0 0 0 0 0 0 0 0 0 0 0 0 0 0 0 0 0 0
60 65 44 30 47 50 48 36 28 35 29 10 8 13 6 7 6 4 2 7 0 0 0 0 0 0 0 0 0 0 0 0 0 0 0 0 0 0 0 0 0 0 0 0 0 0 0
57 51 39 40 27 23 40 20 37 35 12 25 2 0 1 1 1 7 9 10 0 0 0 0 0 0 0 0 0 0 0 0 0 0 0 0 0 0 0 0 0 0 0 0 0 0 0
56 39 34 36 23 16 25 9 28 17 0 1 0 0 0 1 0 8 0 0 0 0 0 0 0 0 0 0 0 0 0 0 0 0 0 0 0 0 0 0 0 0 0 0 0 0 0
55 32 28 33 22 6 1 7 21 0 0 0 0 0 0 2 0 0 0 0 0 0 0 0 0 0 0 0 0 0 0 0 0 0 0 0 0 0 0 0 0 0 0 0 0 0 0
28 18 30 20 21 2 7 8 14 0 0 0 0 0 0 0 0 0 0 0 0 0 0 0 0 0 0 0 0 0 0 0 0 0 0 0 0 0 0 0 0 0 0 0 0 0 0
21 25 19 13 2 1 17 27 6 0 0 0 0 0 0 0 0 0 0 0 0 0 0 0 0 0 0 0 0 0 0 0 0 0 0 0 0 0 0 0 0 0 0 0 0 0 0
20 27 17 6 0 1 31 14 5 0 0 0 0 0 0 0 0 0 0 0 0 0 0 0 0 0 0 0 0 0 0 0 0 0 0 0 0 0 0 0 0 0 0 0 0 0 0
16 19 12 3 0 10 25 7 0 0 0 0 0 0 0 0 0 0 0 0 0 0 0 0 0 0 0 0 0 0 0 0 0 0 0 0 0 0 0 0 0 0 0 0 0 0 0

GFSGBSN_con_sbcape_081.txt.gz
CAPE
64 53 62 72 62 59 56 33 26 34 35 38 47 35 38 31 28 12 115 17 9 0 0 0 0 0 0 1 0 0 0 2 18 0 0 0 0 4 4 0 3 12 16 11 12 35 2
62 66 69 66 64 72 60 52 53 10 14 37 28 44 23 42 13 12 112 22 1 0 3 0 0 0 2 0 0 0 0 0 4 12 9 7 4 9 7 8 8 8 18 25 31 18 35
45 64 58 46 70 64 60 52 59 52 6 19 33 40 32 24 6 15 43 1 8 4 7 15 0 7 2 0 0 0 0 0 4 10 18 25 15 17 16 11 6 22 26 12 9 17 7
56 57 59 70 49 64 60 65 63 69 52 28 19 33 21 16 11 26 3 13 9 6 0 7 1 14 1 0 0 0 0 0 0 3 17 23 12 29 22 19 31 46 40 34 4 18 8
56 62 56 66 61 70 80 82 87 67 69 47 31 34 19 4 8 32 10 19 25 6 7 9 14 10 0 0 0 0 0 1 8 23 17 20 25 43 43 53 17 34 21 31 13 40 50
75 61 44 70 77 69 80 94 105 94 86 87 84 56 32 5 22 26 22 6 11 7 14 13 1 4 0 0 0 0 0 0 10 16 31 66 65 22 20 37 15 26 55 9 14 39 30
58 74 66 62 77 58 82 91 120 110 103 90 95 72 50 3 11 74 13 29 0 2 12 0 0 0 0 0 0 0 0 17 43 22 25 68 28 48 61 41 14 7 40 36 25 16 20
40 69 92 62 74 74 78 108 126 149 149 147 114 89 79 38 14 32 22 0 0 0 0 0 0 0 0 0 0 1 0 19 26 31 55 29 21 15 15 13 27 13 20 33 19 43 73
28 69 81 60 77 76 107 170 175 189 201 201 147 122 90 59 36 37 1 0 0 0 2 0 0 0 0 0 1 9 13 20 17 24 18 33 7 2 18 16 46 26 5 15 10 24 46
26 61 66 88 89 129 197 225 258 267 281 264 200 195 147 100 105 10 3 0 0 0 28 4 1 0 0 0 0 14 12 36 32 15 21 16 6 19 24 3 10 14 1 14 5 91 145
29 72 90 83 124 181 270 290 295 317 286 239 207 196 178 78 53 17 16 0 0 11 43 0 2 0 2 0 4 15 7 14 22 16 11 47 1 25 37 7 17 19 9 11 3 26 18
33 67 86 132 203 263 264 240 217 182 170 122 144 128 113 85 73 3 0 0 15 27 7 0 0 7 0 1 24 13 28 11 20 16 8 8 30 33 25 13 8 13 4 12 12 42 64
31 55 130 223 245 232 207 192 179 153 83 55 57 66 58 63 6 40 0 17 50 52 0 0 1 2 3 1 34 8 7 18 28 31 2 15 9 0 0 6 0 14 5 44 232 127 50
30 97 107 237 228 214 173 168 140 99 107 71 45 60 18 13 10 54 23 12 72 2 0 0 2 4 10 8 0 14 11 14 4 5 11 24 38 5 13 11 23 32 0 14 64 107 18
35 86 156 189 195 155 158 147 112 74 102 35 56 17 21 26 37 64 7 37 38 0 0 1 9 7 14 19 9 5 11 13 7 23 44 36 13 1 3 0 0 9 7 0 6 3 3
53 87 150 138 115 104 134 101 45 72 70 83 12 23 20 41 41 29 8 26 4 0 0 1 3 2 10 9 15 15 19 3 13 12 7 11 29 5 0 0 0 0 0 4 19 10 8
54 149 110 98 100 137 92 42 60 63 65 88 19 10 78 72 29 8 47 27 0 0 1 1 0 0 10 6 19 11 4 2 2 4 0 0 5 0 0 4 0 1 0 0 0 0 8
52 85 72 83 94 80 87 60 60 20 0 1 3 3 26 15 4 6 18 16 0 0 0 0 0 5 11 3 7 8 11 9 0 0 2 0 3 4 0 0 0 0 0 0 3 0 0
36 60 65 73 87 88 50 59 70 67 1 17 15 7 3 38 55 33 19 8 8 0 0 0 1 0 0 5 3 7 8 0 0 0 0 0 0 35 10 4 0 0 0 0 0 0 0
45 49 38 79 71 73 32 18 21 70 46 10 23 17 5 2 4 13 25 0 0 0 0 0 0 0 0 1 0 7 1 0 0 0 0 0 0 0 3 0 0 0 0 0 0 0 0
62 31 35 51 55 36 22 2 3 19 13 4 10 20 8 47 14 39 10 3 0 6 0 0 0 0 0 1 1 0 0 0 0 0 0 0 0 0 0 0 0 0 0 0 0 0 0
59 35 28 42 36 35 12 0 2 3 0 2 7 20 10 8 2 9 1 1 0 0 3 0 0 0 0 0 0 0 0 0 0 0 0 0 0 0 0 0 0 0 0 0 0 0 0
43 34 28 29 30 28 11 4 0 0 1 12 5 0 12 1 10 13 7 0 0 2 0 1 1 0 0 0 0 0 0 0 0 0 0 0 0 0 0 0 0 0 0 0 0 0 0
34 24 27 18 16 7 5 3 0 0 0 0 0 0 6 11 10 3 7 0 0 0 0 0 0 0 0 0 0 0 0 0 0 0 0 0 0 0 0 0 0 0 0 0 0 0 0
26 21 15 11 6 3 8 0 0 0 0 0 0 0 3 9 4 4 0 0 0 0 0 0 0 0 0 0 0 0 0 0 0 0 0 0 0 0 0 0 0 0 0 0 0 0 0
29 15 10 12 15 11 5 0 0 0 0 0 0 0 0 0 0 0 1 7 4 0 0 0 0 0 0 0 0 0 0 0 0 0 0 0 0 0 0 0 0 0 0 0 0 0 0
29 11 6 4 4 16 9 0 0 0 0 0 0 0 0 0 0 0 1 0 0 0 0 0 0 0 0 0 0 0 0 0 0 0 0 0 0 0 0 0 0 0 0 0 0 0 0
20 14 7 0 0 8 4 1 0 0 0 0 0 0 0 0 0 0 0 0 0 0 1 0 0 0 0 0 0 0 0 0 0 0 0 0 0 0 0 0 0 0 0 0 0 0 0
7 20 6 0 0 13 0 0 0 0 0 0 0 0 0 0 0 0 0 0 0 0 0 0 0 0 0 0 0 0 0 0 0 0 0 0 0 0 0 0 0 0 0 0 0 0 0

GFSGBSN_con_sbcape_084.txt.gz
CAPE
69 65 78 82 77 79 85 71 58 61 57 32 34 35 52 41 36 14 5 11 63 4 4 8 0 0 0 0 0 0 0 9 0 0 0 0 0 0 0 0 0 4 4 0 3 2 0
78 79 75 80 79 83 63 62 70 68 73 60 45 46 30 33 30 20 35 14 83 4 11 3 0 0 0 0 0 0 0 0 0 0 0 0 0 2 2 0 0 0 0 0 0 1 3
61 67 76 71 79 59 73 67 80 84 76 78 71 61 20 24 26 20 12 20 6 6 13 11 0 0 1 0 0 0 0 0 0 0 0 3 3 4 5 1 1 5 2 0 0 0 0
32 49 67 80 52 91 69 68 81 88 98 91 79 58 49 43 27 8 21 37 7 10 20 20 4 5 0 0 0 0 0 0 0 0 0 0 1 5 4 13 2 3 1 0 0 0 0
21 24 57 77 87 64 53 58 75 86 114 104 94 76 56 48 14 37 106 32 9 9 6 12 8 6 0 0 0 0 0 0 0 1 7 8 22 13 20 24 12 6 1 0 0 6 25
42 29 56 66 94 83 39 72 79 92 115 121 107 81 60 48 22 2 91 40 27 4 20 18 2 1 0 0 0 0 0 0 0 2 6 21 38 19 33 24 0 0 12 21 27 1 19
56 29 31 66 68 65 33 64 103 146 137 140 141 110 65 36 39 29 7 9 1 2 17 0 0 0 0 0 0 0 0 0 2 1 9 25 27 3 4 1 0 0 1 7 0 0 10
56 47 31 69 79 61 110 171 193 203 211 190 192 174 106 93 54 12 54 0 0 2 6 0 0 0 0 0 0 2 0 0 10 2 2 23 32 0 2 17 17 8 15 3 11 2 34
71 75 30 80 136 180 187 145 112 321 265 279 259 274 169 125 29 109 48 0 3 0 6 0 0 0 0 0 2 6 0 4 0 0 5 19 0 9 7 3 39 0 15 24 8 4 25
95 69 44 129 200 162 201 247 127 225 247 240 257 271 224 200 69 23 3 18 0 5 2 1 5 0 0 1 5 16 0 0 1 2 23 30 5 1 1 16 13 12 1 6 12 2 1
62 40 69 148 161 246 256 231 174 135 126 134 169 215 210 183 88 2 6 1 0 3 2 1 4 0 1 8 7 14 0 0 0 13 17 0 1 12 39 13 9 6 9 1 4 44 12
33 38 82 95 156 165 173 152 127 117 104 91 41 11 127 139 177 20 2 1 2 7 6 0 1 5 9 8 8 16 9 0 0 20 10 4 0 6 4 8 10 3 10 6 6 14 13
21 41 59 82 135 134 119 111 98 88 65 66 56 33 32 66 63 4 0 0 12 17 0 0 3 12 10 7 6 0 0 2 25 17 1 0 4 0 1 5 11 10 16 2 2 2 3
21 25 41 82 104 110 92 76 89 85 74 54 76 49 33 38 71 8 13 7 6 0 0 0 10 15 8 1 0 15 0 3 4 3 32 10 7 5 4 0 26 1 3 3 2 1 2
21 32 37 53 89 80 58 60 16 31 65 59 42 20 33 53 59 43 2 6 10 4 0 2 21 5 6 1 0 0 0 19 10 17 13 21 3 1 0 2 1 0 3 0 9 0 0
33 46 37 59 73 65 98 152 103 116 80 39 11 25 33 45 51 12 9 26 0 0 0 7 0 2 0 0 1 5 5 0 0 11 0 8 12 1 0 1 2 0 0 0 3 5 6
29 33 43 61 73 62 52 92 94 77 73 36 2 15 28 44 13 15 35 31 0 0 0 0 0 0 2 3 7 9 1 0 1 4 0 0 5 2 5 3 0 0 0 0 0 0 0
44 36 39 41 96 70 46 51 75 124 70 0 0 0 37 22 17 11 4 32 1 0 1 0 0 5 0 0 2 7 4 0 0 0 0 0 0 4 0 0 0 0 0 0 0 0 0
36 57 45 58 98 67 31 17 33 51 6 8 4 6 9 16 50 16 6 18 24 3 0 0 0 0 0 0 0 2 0 0 0 0 0 0 0 4 0 0 0 0 0 0 0 0 0
36 44 38 84 63 57 32 11 26 19 15 8 3 3 14 4 18 2 3 6 1 0 0 0 0 0 0 1 0 3 0 0 0 0 0 0 0 0 0 0 0 0 0 0 0 0 0
22 39 23 69 39 22 16 3 4 22 9 1 1 8 3 3 6 12 4 10 0 0 0 0 0 0 0 1 1 0 0 0 0 0 0 0 0 0 0 0 0 0 0 0 0 0 0
12 32 30 29 24 11 9 11 4 11 0 0 0 6 0 0 0 0 0 0 0 0 0 0 0 0 0 0 0 0 0 0 0 0 0 0 0 0 0 0 0 0 0 0 0 0 0
11 28 31 21 16 11 9 6 20 11 0 0 0 0 0 0 0 0 0 0 0 0 0 0 0 0 0 0 0 0 0 0 0 0 0 0 0 0 0 0 0 0 0 0 0 0 0
18 29 22 18 17 15 7 3 3 0 0 0 0 0 0 0 0 0 0 0 0 0 0 0 0 0 0 0 0 0 0 0 0 0 0 0 0 0 0 0 0 0 0 0 0 0 0
16 12 16 13 12 32 0 0 0 0 0 0 0 0 0 0 0 0 0 0 0 0 0 0 0 0 0 0 0 0 0 0 0 0 0 0 0 0 0 0 0 0 0 0 0 0 0
10 4 10 9 19 24 0 0 0 0 0 0 0 0 0 0 0 0 0 0 0 0 0 0 0 0 0 0 0 0 0 0 0 0 0 0 0 0 0 0 0 0 0 0 0 0 0
6 1 2 2 13 21 5 0 0 0 0 0 0 0 0 0 0 0 0 0 0 0 0 0 0 0 0 0 0 0 0 0 0 0 0 0 0 0 0 0 0 0 0 0 0 0 0
7 4 0 0 3 6 0 0 0 0 0 0 0 0 0 0 0 0 0 0 0 0 0 0 0 0 0 0 0 0 0 0 0 0 0 0 0 0 0 0 0 0 0 0 0 0 0
5 4 2 0 0 7 0 0 0 0 0 0 0 0 0 0 0 0 0 0 0 0 0 0 0 0 0 0 0 0 0 0 0 0 0 0 0 0 0 0 0 0 0 0 0 0 0

GFSGBSN_con_sbcape_087.txt.gz
CAPE
42 54 51 67 57 49 49 36 52 68 84 91 67 64 52 46 32 25 23 29 21 49 31 13 4 0 0 0 0 0 4 16 0 0 0 0 0 0 0 0 0 0 0 0 1 0 0
42 32 28 44 67 74 34 49 37 61 81 92 81 60 51 41 41 38 31 34 35 37 19 11 1 0 0 0 0 0 0 0 0 0 0 0 0 0 0 0 0 0 0 0 0 0 0
58 50 38 31 70 77 86 65 47 64 87 105 109 76 73 48 44 24 17 37 4 84 22 0 1 0 0 0 0 0 0 0 0 0 0 0 0 0 0 0 0 0 0 0 0 0 0
53 57 58 25 66 77 109 93 61 68 73 86 138 127 88 74 45 6 0 154 210 31 21 9 7 0 0 0 0 0 0 0 0 0 0 0 0 0 0 0 0 0 0 0 0 0 0
89 113 85 38 42 82 94 105 42 73 80 120 141 139 103 86 50 7 18 61 49 35 23 14 2 0 0 0 0 0 0 0 0 0 0 0 6 0 1 8 2 2 0 0 0 0 0
116 113 54 47 28 106 130 118 144 155 177 175 165 175 157 88 51 42 64 68 57 56 17 20 7 6 0 0 0 0 0 0 0 0 3 6 3 12 8 9 0 0 0 0 0 0 0
0 16 39 43 33 155 192 240 187 247 190 213 205 197 161 111 60 28 0 21 5 20 12 0 0 0 0 0 0 0 0 0 0 1 0 11 0 0 0 0 0 0 0 0 0 0 18
2 24 80 51 88 154 215 255 181 82 121 257 199 217 197 133 124 45 30 27 14 9 1 4 1 0 0 0 0 0 0 1 5 0 0 5 1 0 0 0 2 11 5 1 0 0 20
23 78 36 42 99 109 113 144 155 156 176 160 233 259 207 165 115 61 45 32 20 9 7 10 8 0 0 0 6 4 1 4 0 0 0 0 0 0 0 0 8 0 13 0 0 6 10
28 38 58 106 98 105 123 123 94 107 116 82 122 187 192 189 35 12 23 24 0 6 0 17 9 0 0 0 18 17 5 2 2 0 0 0 0 0 0 0 8 22 3 10 18 49 0
30 39 43 89 108 133 109 106 124 112 123 69 72 72 127 97 16 2 2 1 1 11 0 2 5 1 0 7 2 21 0 0 0 0 0 0 0 0 5 4 11 8 0 1 3 12 34
34 33 72 94 91 80 71 191 151 101 45 76 52 26 39 7 6 0 1 0 0 0 0 1 2 14 6 11 19 20 5 0 0 0 1 0 0 0 6 0 4 9 12 6 9 28 4
39 52 87 101 100 169 240 125 187 158 43 42 35 23 0 9 8 0 0 0 0 0 0 0 1 11 6 6 5 0 1 0 0 4 0 0 1 0 0 2 3 5 8 0 2 4 7
55 60 89 92 117 167 207 192 138 90 40 47 63 45 16 21 4 0 0 0 0 5 0 0 0 1 11 17 7 1 0 0 0 0 5 2 0 0 0 0 7 11 6 1 0 0 0
50 65 85 100 147 156 158 219 70 73 19 77 33 6 0 21 0 0 0 0 1 0 0 1 3 11 6 4 0 0 0 1 4 4 13 5 0 1 0 0 1 1 14 2 8 0 0
42 57 103 93 73 78 107 168 72 43 66 17 0 0 6 9 0 0 0 15 0 0 0 0 0 0 0 0 0 0 1 0 1 8 0 6 6 0 1 0 0 0 0 0 1 0 3
16 29 67 84 115 97 103 98 131 37 51 4 0 4 6 2 0 0 1 7 8 4 0 0 0 1 0 0 0 3 0 0 0 0 0 0 7 1 0 0 0 0 0 0 0 0 0
22 22 20 42 88 84 124 71 91 115 43 0 0 0 11 0 0 4 3 3 1 0 0 0 0 0 0 0 0 0 0 0 0 0 0 0 0 0 0 0 0 0 0 0 0 0 0
20 30 12 45 57 57 61 28 57 86 57 0 0 17 0 0 0 1 1 1 0 0 0 0 0 0 0 0 0 0 0 0 0 0 0 0 0 0 0 0 0 0 0 0 0 0 0
19 27 15 32 34 36 31 18 25 34 20 0 0 0 0 0 0 0 0 0 0 0 0 0 0 0 0 0 0 0 0 0 0 0 0 0 0 0 0 0 0 0 0 0 0 0 0
14 24 12 22 19 27 16 6 0 0 0 0 0 0 0 0 0 0 0 0 0 0 0 0 0 0 0 0 0 0 0 0 0 0 0 0 0 0 0 0 0 0 0 0 0 0 0
7 17 12 13 15 11 12 0 0 0 0 0 0 0 0 0 0 0 0 0 0 0 0 0 0 0 0 0 0 0 0 0 0 0 0 0 0 0 0 0 0 0 0 0 0 0 0
13 14 12 9 12 10 0 2 0 0 0 0 0 0 0 0 0 0 0 0 0 0 0 0 0 0 0 0 0 0 0 0 0 0 0 0 0 0 0 0 0 0 0 0 0 0 0
9 15 17 11 24 1 0 0 0 0 0 0 0 0 0 0 0 0 0 0 0 0 0 0 0 0 0 0 0 0 0 0 0 0 0 0 0 0 0 0 0 0 0 0 0 0 0
6 14 22 4 21 5 0 0 0 0 0 0 0 0 0 0 0 0 0 0 0 0 0 0 0 0 0 0 0 0 0 0 0 0 0 0 0 0 0 0 0 0 0 0 0 0 0
4 15 15 2 18 12 0 0 0 0 0 0 0 0 0 0 0 0 0 0 0 0 0 0 0 0 0 0 0 0 0 0 0 0 0 0 0 0 0 0 0 0 0 0 0 0 0
4 5 23 1 22 0 0 0 0 0 0 0 0 0 0 0 0 0 0 0 0 0 0 0 0 0 0 0 0 0 0 0 0 0 0 0 0 0 0 0 0 0 0 0 0 0 0
0 3 13 2 14 0 0 0 0 0 0 0 0 0 0 0 0 0 0 0 0 0 0 0 0 0 0 0 0 0 0 0 0 0 0 0 0 0 0 0 0 0 0 0 0 0 0
0 1 2 5 1 11 0 0 0 0 0 0 0 0 0 0 0 0 0 0 0 0 0 0 0 0 0 0 0 0 0 0 0 0 0 0 0 0 0 0 0 0 0 0 0 0 0

GFSGBSN_con_sbcape_090.txt.gz
CAPE
39 34 28 33 6 13 74 75 53 53 59 87 118 142 86 56 36 21 22 23 21 19 8 98 6 2 0 0 0 0 0 0 0 0 0 0 0 0 0 0 0 0 0 0 0 0 0
111 95 92 78 52 18 96 96 125 111 79 101 128 117 107 95 60 28 17 20 31 29 19 128 10 9 0 0 0 0 0 0 0 0 0 0 0 0 0 0 0 0 0 0 0 0 0
177 119 231 81 62 57 41 99 120 106 90 103 168 127 115 101 71 45 30 16 13 41 50 206 5 1 0 0 0 0 9 0 0 0 0 0 0 0 0 0 0 0 0 0 0 0 0
206 180 37 62 62 30 74 174 249 169 160 167 187 183 145 138 72 33 21 50 120 121 142 70 3 0 0 0 0 0 0 0 0 0 0 0 0 0 0 0 0 0 0 0 0 0 0
44 55 83 71 82 32 107 197 296 280 305 235 220 220 164 165 66 45 2 224 407 243 60 36 14 0 1 0 0 0 0 0 0 0 0 0 0 0 0 0 0 0 0 0 0 0 0
88 59 70 77 27 63 115 130 174 226 233 212 258 269 193 143 51 36 0 32 43 61 16 6 1 0 0 0 0 0 0 0 0 0 0 0 0 0 0 0 0 0 0 0 0 0 0
70 49 45 32 54 93 106 121 163 157 109 159 232 186 197 152 57 39 0 0 0 2 5 10 0 0 0 0 0 0 0 0 0 0 0 2 0 0 0 0 0 0 0 0 0 0 0
44 41 43 54 96 94 117 124 136 128 152 168 154 163 147 135 58 60 1 11 14 5 2 20 3 0 0 0 0 0 0 0 0 0 0 11 5 0 0 0 0 0 4 3 0 0 9
25 37 48 75 110 126 144 87 94 96 185 80 114 141 97 101 60 23 4 11 13 10 10 9 5 0 0 0 0 0 0 1 0 0 0 0 0 0 0 0 0 0 6 1 3 2 0
36 40 42 89 104 130 173 279 246 200 31 78 35 66 83 102 1 3 0 13 2 0 1 17 13 7 0 0 9 5 0 0 5 0 0 0 0 0 0 0 0 9 0 7 19 21 4
46 18 33 50 78 173 297 182 382 182 172 63 51 75 103 5 0 0 15 8 1 5 0 7 3 8 0 2 0 19 0 0 0 1 0 0 0 0 0 0 1 2 5 9 12 4 4
40 28 21 20 100 199 305 263 177 93 76 58 77 47 11 0 0 0 0 0 0 0 0 19 1 9 1 19 15 3 1 0 0 3 0 0 0 0 0 3 5 0 5 11 10 8 2
42 31 25 17 99 182 202 108 82 61 24 104 27 0 0 0 0 0 0 0 0 0 2 1 17 0 7 10 0 0 0 0 0 3 0 0 0 0 0 1 1 3 6 0 1 0 0
41 39 30 12 60 142 90 94 53 41 64 30 1 0 0 0 0 0 0 0 0 4 0 0 0 0 2 12 1 0 0 0 0 0 1 2 0 1 0 0 4 13 6 1 0 0 0
32 35 29 19 43 97 31 71 55 39 32 8 0 0 0 0 0 0 0 0 0 0 3 3 24 4 11 10 0 0 0 1 1 10 3 4 0 0 0 0 3 5 16 5 15 0 0
25 36 35 22 29 47 67 17 30 21 5 0 0 0 0 0 0 0 0 1 0 0 0 0 0 0 0 0 0 0 0 0 2 2 0 5 3 0 0 0 0 0 0 0 2 0 1
12 27 35 29 1 26 19 68 30 45 18 0 0 0 0 0 0 0 0 4 5 0 0 0 0 0 0 0 0 1 0 0 0 0 0 0 1 0 0 0 0 0 0 0 0 0 0
5 28 20 31 15 7 5 13 68 71 0 0 0 0 0 0 0 1 2 2 0 0 0 0 0 0 0 0 0 0 0 0 0 0 0 0 0 0 0 0 0 0 0 0 0 0 0
10 25 12 19 21 16 6 0 7 23 0 0 0 0 0 0 0 0 0 0 0 0 0 0 0 0 0 0 0 0 0 0 0 0 0 0 0 0 0 0 0 0 0 0 0 0 0
8 20 10 14 32 26 5 0 0 4 0 0 0 0 0 0 0 0 0 0 0 0 0 0 0 0 0 0 0 0 0 0 0 0 0 0 0 0 0 0 0 0 0 0 0 0 0
15 12 22 15 16 15 0 0 0 0 0 0 0 0 0 0 0 0 0 0 0 0 0 0 0 0 0 0 0 0 0 0 0 0 0 0 0 0 0 0 0 0 0 0 0 0 0
15 8 14 25 7 0 0 0 0 0 0 0 0 0 0 0 0 0 0 0 0 0 0 0 0 0 0 0 0 0 0 0 0 0 0 0 0 0 0 0 0 0 0 0 0 0 0
13 8 16 29 0 0 0 0 0 0 0 0 0 0 0 0 0 0 0 0 0 0 0 0 0 0 0 0 0 0 0 0 0 0 0 0 0 0 0 0 0 0 0 0 0 0 0
12 10 11 29 1 0 0 0 0 0 0 0 0 0 0 0 0 0 0 0 0 0 0 0 0 0 0 0 0 0 0 0 0 0 0 0 0 0 0 0 0 0 0 0 0 0 0
5 12 3 10 9 0 0 0 0 0 0 0 0 0 0 0 0 0 0 0 0 0 0 0 0 0 0 0 0 0 0 0 0 0 0 0 0 0 0 0 0 0 0 0 0 0 0
0 13 1 0 26 0 0 0 0 0 0 0 0 0 0 0 0 0 0 0 0 0 0 0 0 0 0 0 0 0 0 0 0 0 0 0 0 0 0 0 0 0 0 0 0 0 0
0 9 6 0 3 0 0 0 0 0 0 0 0 0 0 0 0 0 0 0 0 0 0 0 0 0 0 0 0 0 0 0 0 0 0 0 0 0 0 0 0 0 0 0 0 0 0
0 3 6 0 0 3 0 0 0 0 0 0 0 0 0 0 0 0 0 0 0 0 0 0 0 0 0 0 0 0 0 0 0 0 0 0 0 0 0 0 0 0 0 0 0 0 0
0 0 5 1 0 0 9 6 0 0 0 0 0 0 0 0 0 0 0 0 0 0 0 0 0 0 0 0 0 0 0 0 0 0 0 0 0 0 0 0 0 0 0 0 0 0 0

GFSGBSN_con_sbcape_093.txt.gz
CAPE
137 170 175 127 111 64 54 76 86 90 122 102 77 96 100 110 90 83 57 36 42 37 16 6 28 4 0 0 0 0 2 9 0 0 0 0 0 0 0 0 0 0 0 0 0 0 0
64 62 47 54 86 85 66 57 87 84 82 50 89 161 118 120 113 96 82 34 35 37 33 14 124 5 0 0 0 0 0 0 0 0 0 0 0 0 0 0 0 0 0 0 0 0 0
97 12 32 41 47 45 31 53 88 120 185 199 146 188 190 173 114 88 69 24 28 31 46 26 140 0 0 0 0 0 0 0 0 0 0 0 0 0 0 0 0 0 0 0 0 0 0
76 4 28 44 32 29 57 57 55 95 141 177 223 258 263 214 120 67 49 15 20 87 100 79 28 0 0 0 0 1 0 0 0 0 0 0 0 0 0 0 0 0 0 0 0 0 0
21 8 23 18 27 24 25 61 77 95 82 110 120 215 149 248 162 76 1 0 210 273 190 188 1 0 2 1 3 0 0 0 0 0 0 0 0 0 0 0 0 0 0 0 0 0 0
14 15 26 25 28 37 62 112 158 178 110 74 33 124 222 216 114 82 0 0 26 7 2 0 0 0 0 0 0 0 0 0 0 0 0 0 0 0 0 0 0 0 0 0 0 0 0
13 29 32 42 43 46 115 151 144 57 164 78 106 120 134 110 58 0 0 0 0 0 1 7 0 0 0 0 0 0 0 0 0 0 0 0 0 0 0 0 0 0 0 0 0 0 0
34 41 44 61 54 82 145 283 271 43 53 172 78 71 66 63 33 11 0 4 13 9 16 23 6 4 0 0 0 0 0 0 0 0 0 0 0 0 0 0 0 0 0 0 0 0 3
56 57 48 64 55 87 219 332 303 200 98 25 21 8 41 33 39 1 10 0 45 8 2 9 19 1 5 0 0 0 0 0 0 0 0 0 0 0 0 0 0 0 3 0 0 0 0
79 72 61 66 59 124 189 145 176 163 98 8 28 0 63 7 1 1 9 13 12 0 0 3 8 15 0 1 10 0 0 0 0 0 0 0 0 0 0 1 0 10 0 0 1 9 1
78 77 62 58 61 31 259 113 131 35 7 0 56 37 74 0 0 0 16 15 3 5 0 5 9 5 0 4 0 25 0 0 0 5 0 0 0 0 2 0 1 0 2 8 11 13 1
59 73 63 72 35 78 87 50 57 71 6 106 79 77 2 0 0 0 2 0 4 0 0 21 4 2 14 11 16 7 0 0 0 0 0 0 0 0 0 1 3 0 10 7 8 15 1
46 69 69 60 21 14 15 40 48 28 13 1 0 7 0 0 0 0 0 0 0 0 1 25 18 0 2 10 0 0 0 0 0 0 0 0 0 0 0 3 2 1 6 0 0 0 0
44 67 63 44 30 4 11 27 60 38 2 0 0 0 0 0 0 0 0 0 0 7 0 0 0 0 0 0 0 0 0 0 0 1 4 1 0 0 0 0 2 6 5 3 0 0 0
28 57 58 46 33 6 7 9 14 20 0 0 0 0 0 0 0 0 0 0 0 0 0 0 9 0 0 2 0 0 0 0 0 0 9 5 0 0 0 0 0 7 16 12 15 0 0
23 46 50 48 34 15 3 0 0 0 0 0 0 0 0 0 0 0 0 1 0 0 0 0 0 0 0 0 0 0 0 0 2 0 0 4 3 0 0 0 0 9 13 8 9 0 0
13 31 47 49 42 17 1 50 20 6 0 0 0 0 0 0 0 0 0 2 1 0 0 0 0 0 0 0 0 0 0 0 0 2 0 0 1 0 0 0 0 0 1 2 1 2 1
12 21 39 47 35 13 2 0 44 40 0 0 0 0 0 0 0 0 1 2 0 0 0 0 0 0 0 0 0 0 0 0 0 0 0 0 0 0 0 0 0 0 0 0 0 0 0
9 16 32 39 39 2 0 0 0 9 0 0 0 0 0 0 0 0 0 0 0 0 0 0 0 0 0 0 0 0 0 0 0 0 0 0 0 0 0 0 0 0 0 0 0 0 0
11 9 19 57 29 0 0 0 0 0 0 0 0 0 0 0 0 0 0 0 0 0 0 0 0 0 0 0 0 0 0 0 0 0 0 0 0 0 0 0 0 0 0 0 0 0 0
11 5 29 27 3 0 0 0 0 0 0 0 0 0 0 0 0 0 0 0 0 0 0 0 0 0 0 0 0 0 0 0 0 0 0 0 0 0 0 0 0 0 0 0 0 0 0
11 1 27 7 11 0 0 0 0 0 0 0 0 0 0 0 0 0 0 0 0 0 0 0 0 0 0 0 0 0 0 0 0 0 0 0 0 0 0 0 0 0 0 0 0 0 0
6 2 14 23 10 0 0 0 0 0 0 0 0 0 0 0 0 0 0 0 0 0 0 0 0 0 0 0 0 0 0 0 0 0 0 0 0 0 0 0 0 0 0 0 0 0 0
0 9 5 22 6 5 0 0 0 0 0 0 0 0 0 0 0 0 0 0 0 0 0 0 0 0 0 0 0 0 0 0 0 0 0 0 0 0 0 0 0 0 0 0 0 0 0
0 3 3 10 19 8 5 0 0 0 0 0 0 0 0 0 0 0 0 0 0 0 0 0 0 0 0 0 0 0 0 0 0 0 0 0 0 0 0 0 0 0 0 0 0 0 0
0 1 2 0 7 5 6 5 0 0 0 0 0 0 0 0 0 0 0 0 0 0 0 0 0 0 0 0 0 0 0 0 0 0 0 0 0 0 0 0 0 0 0 0 0 0 0
0 0 0 1 1 0 0 10 5 0 0 0 0 0 0 0 0 0 0 0 0 0 0 0 0 0 0 0 0 0 0 0 0 0 0 0 0 0 0 0 0 0 0 0 0 0 0
0 0 0 0 0 0 0 0 3 2 0 0 0 0 0 0 0 0 0 0 0 0 0 0 0 0 0 0 0 0 0 0 0 0 0 0 0 0 0 0 0 0 0 0 0 0 0
0 0 0 0 0 0 0 0 0 1 0 0 0 0 0 0 0 0 0 0 0 0 0 0 0 0 0 0 0 0 0 0 0 0 0 0 0 0 0 0 0 0 0 0 0 0 0

GFSGBSN_con_sbcape_096.txt.gz
CAPE
44 31 7 12 19 21 21 19 4 43 52 25 27 33 86 161 151 83 66 73 73 38 15 38 0 57 0 0 0 0 4 22 0 0 0 0 0 0 0 0 0 0 0 0 0 0 0
47 27 15 21 30 26 19 33 38 45 47 61 67 62 85 209 198 101 70 84 80 67 25 27 21 43 0 0 0 0 0 0 0 0 0 0 0 0 0 0 0 0 0 0 0 0 0
70 25 26 40 27 26 36 61 61 31 37 55 51 66 108 222 263 171 115 70 79 100 69 33 17 0 0 0 1 0 0 0 0 0 0 0 0 0 0 0 0 0 0 0 0 0 0
37 32 35 38 38 67 72 82 100 119 79 75 71 43 131 106 199 184 81 41 54 71 40 43 50 0 1 0 0 0 0 0 0 0 0 0 0 0 0 0 0 0 0 0 0 0 0
29 33 56 65 93 129 171 214 261 231 171 151 62 3 68 112 120 97 19 1 1 272 231 92 5 0 0 0 17 0 0 0 0 0 0 0 0 0 0 0 0 0 0 0 0 0 0
34 52 75 109 164 195 293 352 369 350 241 67 35 21 103 117 103 22 0 0 0 134 96 3 0 0 0 1 0 0 0 0 0 0 0 0 0 0 0 0 0 0 0 0 0 0 0
24 69 89 113 162 234 357 425 363 261 310 19 56 45 68 58 15 0 0 0 0 1 2 10 7 0 0 0 0 0 0 0 0 0 0 0 0 0 0 0 0 0 0 0 0 0 0
41 82 101 131 142 156 270 366 283 108 15 87 79 59 43 27 22 0 0 2 4 11 5 17 0 0 0 0 0 0 0 0 0 0 0 0 0 0 0 0 0 0 1 1 0 0 0
41 93 97 129 98 52 78 270 187 160 82 27 30 23 8 33 48 0 0 0 1 12 2 17 4 8 5 0 0 1 0 0 0 0 0 0 0 0 0 0 0 0 2 0 0 0 0
34 90 102 94 83 24 193 117 165 141 13 78 2 6 3 1 2 6 15 23 31 6 0 4 20 5 14 8 9 0 0 0 0 0 0 0 0 0 0 0 0 5 0 0 0 14 0
27 75 83 64 60 19 89 115 39 61 147 100 60 15 0 0 0 1 11 9 6 7 0 5 7 1 7 1 0 13 0 0 0 1 0 0 0 0 0 0 0 0 0 4 4 12 6
29 81 70 47 40 22 5 19 55 63 40 10 0 0 0 0 0 0 0 5 2 0 0 19 6 1 6 9 12 9 0 0 0 0 0 0 0 0 0 0 0 0 2 3 7 20 0
22 72 66 53 37 15 9 7 8 21 6 2 2 0 0 0 4 0 0 0 0 0 2 31 0 1 1 0 0 0 0 0 0 0 0 0 0 0 0 0 0 2 9 0 0 0 0
21 57 64 50 19 15 6 7 0 3 0 0 0 0 0 0 0 0 0 0 0 11 10 0 0 0 0 0 0 0 0 0 0 0 0 0 0 0 0 0 9 12 5 0 0 0 0
20 39 60 43 21 3 0 0 0 1 11 2 0 0 0 0 0 0 0 0 0 0 0 0 0 0 0 0 0 0 0 0 0 0 1 1 0 0 0 0 0 13 13 9 15 8 0
13 21 53 41 26 9 5 0 0 0 0 0 0 0 0 0 0 0 0 5 0 0 0 0 0 0 0 0 0 0 0 0 0 0 0 1 5 0 0 0 0 7 4 23 7 0 0
10 18 54 54 23 0 0 0 0 0 0 0 0 0 0 0 0 0 0 2 0 0 0 0 0 0 0 0 0 0 0 0 0 2 0 0 2 0 0 0 0 0 0 4 5 9 0
6 20 49 54 18 0 0 0 0 0 0 0 0 0 0 0 0 0 0 0 0 0 0 0 0 0 0 0 0 0 0 0 0 0 0 0 0 0 0 0 0 0 0 0 0 0 0
5 18 32 32 14 0 0 0 0 0 0 0 0 0 0 0 0 0 0 0 0 0 0 0 0 0 0 0 0 0 0 0 0 0 0 0 0 0 0 0 0 0 0 0 0 0 0
2 13 19 0 20 0 0 0 0 0 0 0 0 0 0 0 0 0 0 0 0 0 0 0 0 0 0 0 0 0 0 0 0 0 0 0 0 0 0 0 0 0 0 0 0 0 0
1 3 24 0 3 3 0 0 0 0 0 0 0 0 0 0 0 0 0 0 0 0 0 0 0 0 0 0 0 0 0 0 0 0 0 0 0 0 0 0 0 0 0 0 0 0 0
0 2 10 6 0 0 0 0 0 0 0 0 0 0 0 0 0 0 0 0 0 0 0 0 0 0 0 0 0 0 0 0 0 0 0 0 0 0 0 0 0 0 0 0 0 0 0
0 0 4 2 0 0 6 1 0 0 0 0 0 0 0 0 0 0 0 0 0 0 0 0 0 0 0 0 0 0 0 0 0 0 0 0 0 0 0 0 0 0 0 0 0 0 0
0 0 2 2 0 0 4 6 0 0 0 0 0 0 0 0 0 0 0 0 0 0 0 0 0 0 0 0 0 0 0 0 0 0 0 0 0 0 0 0 0 0 0 0 0 0 0
0 0 3 3 1 0 0 5 5 0 0 0 0 0 0 0 0 0 0 0 0 0 0 0 0 0 0 0 0 0 0 0 0 0 0 0 0 0 0 0 0 0 0 0 0 0 0
0 0 2 5 1 0 0 0 2 2 0 0 0 0 0 0 0 0 0 0 0 0 0 0 0 0 0 0 0 0 0 0 0 0 0 0 0 0 0 0 0 0 0 0 0 0 0
0 0 0 2 2 0 0 0 1 0 0 0 0 0 0 0 0 0 0 0 0 0 0 0 0 0 0 0 0 0 0 0 0 0 0 0 0 0 0 0 0 0 0 0 0 0 0
0 0 0 0 2 0 0 0 0 0 0 0 0 0 0 0 0 0 0 0 0 0 0 0 0 0 0 0 0 0 0 0 0 0 0 0 0 0 0 0 0 0 0 0 0 0 0
0 0 0 0 0 0 1 3 0 0 0 0 0 0 0 0 0 0 0 0 0 0 0 0 0 0 0 0 0 0 0 0 0 0 0 0 0 0 0 0 0 0 0 0 0 0 0

GFSGBSN_con_sbcape_099.txt.gz
CAPE
81 65 31 41 39 24 40 28 82 94 105 109 87 67 59 44 58 95 85 82 107 89 36 0 29 52 0 0 0 0 51 19 0 0 0 0 0 0 0 0 0 0 0 0 0 0 0
27 36 42 36 37 49 75 140 184 177 188 148 128 76 28 33 73 119 78 56 65 78 59 19 5 30 0 4 0 0 0 0 0 0 0 0 0 0 0 0 0 0 0 0 0 0 0
32 31 36 81 88 124 197 299 349 314 284 244 189 135 98 86 100 113 161 44 38 75 67 75 32 18 0 0 0 0 0 0 0 0 0 0 0 0 0 0 0 0 0 0 0 0 0
35 58 101 131 147 166 349 376 396 374 320 266 197 84 64 72 37 98 153 75 41 83 62 63 57 1 5 0 0 0 0 0 0 0 0 0 0 0 0 0 0 0 0 0 0 0 0
34 84 118 146 160 233 340 410 361 339 307 243 158 39 34 41 6 157 22 2 0 92 216 115 38 3 3 14 0 0 0 0 0 0 0 0 0 0 0 0 0 0 0 0 0 0 0
43 95 128 123 105 119 322 358 335 144 128 74 52 55 22 41 136 0 0 0 20 93 90 58 22 2 9 3 0 0 0 0 0 0 0 0 0 0 0 0 0 0 0 0 0 0 0
40 108 124 104 110 198 333 300 60 51 121 116 89 39 22 94 0 0 0 0 6 50 9 58 12 10 3 0 0 0 0 0 0 0 0 0 0 0 0 0 0 0 0 0 0 0 0
31 104 93 72 79 150 330 322 207 157 155 102 47 35 46 125 0 0 0 0 0 0 0 8 2 8 0 0 0 0 0 0 0 0 0 0 0 0 0 0 0 0 1 0 0 0 0
31 98 71 73 66 61 101 240 188 167 82 30 32 26 70 41 0 0 0 0 1 13 2 4 24 17 8 0 0 0 0 0 0 0 0 0 0 0 0 0 0 0 0 0 0 0 0
12 83 51 60 56 40 7 26 31 24 13 39 26 1 0 56 0 0 9 13 9 1 0 0 9 6 5 1 1 0 0 0 0 0 0 0 0 0 0 0 0 0 0 0 0 5 5
25 65 59 47 45 36 11 9 21 18 3 0 0 0 5 0 0 1 0 8 0 8 0 8 8 0 11 0 0 7 0 0 0 0 0 0 0 0 0 0 0 0 0 0 1 14 19
11 44 65 14 26 12 12 7 7 5 8 1 0 0 0 0 0 1 0 0 0 0 0 0 10 16 19 1 1 0 0 0 0 0 0 0 0 0 0 0 0 0 0 0 5 21 7
7 44 49 39 7 10 4 0 0 0 0 0 0 0 0 0 0 0 0 0 0 0 3 1 24 6 0 0 0 0 0 0 0 0 0 0 0 0 0 0 0 2 13 0 0 0 0
9 25 36 40 13 0 0 0 0 0 0 0 0 0 0 0 0 0 0 0 0 8 4 0 0 0 0 0 0 0 0 0 0 0 0 0 0 0 0 0 7 8 14 1 0 0 0
10 7 41 28 23 9 0 0 1 0 0 0 0 0 0 0 0 0 0 0 0 0 0 0 0 0 0 0 0 0 0 0 0 0 0 0 0 0 0 0 0 10 5 4 14 1 3
14 19 43 27 1 3 1 1 1 0 0 0 0 0 0 0 0 0 0 4 0 0 0 0 0 0 0 0 0 0 0 0 0 0 0 3 5 0 0 0 0 6 4 11 13 0 0
8 28 23 13 2 1 2 0 0 1 0 0 0 0 0 0 0 0 0 0 0 0 0 0 0 0 0 0 0 0 0 0 0 0 0 0 1 0 0 0 0 1 0 0 5 10 2
8 25 5 0 1 2 2 0 0 0 0 0 0 0 0 0 0 0 0 0 0 0 0 0 0 0 0 0 0 0 0 0 0 0 0 0 0 0 0 0 0 0 0 0 0 0 0
7 15 16 0 0 0 6 3 0 0 0 0 0 0 0 0 0 0 0 0 0 0 0 0 0 0 0 0 0 0 0 0 0 0 0 0 0 0 0 0 0 0 0 0 0 0 0
0 8 20 8 4 3 1 2 2 0 0 0 0 0 0 0 0 0 0 0 0 0 0 0 0 0 0 0 0 0 0 0 0 0 0 0 0 0 0 0 0 0 0 0 0 0 0
0 6 11 16 1 1 5 3 2 0 0 0 0 0 0 0 0 0 0 0 0 0 0 0 0 0 0 0 0 0 0 0 0 0 0 0 0 0 0 0 0 0 0 0 0 0 0
0 0 5 9 7 0 0 3 1 0 0 0 0 0 0 0 0 0 0 0 0 0 0 0 0 0 0 0 0 0 0 0 0 0 0 0 0 0 0 0 0 0 0 0 0 0 0
0 0 0 5 11 3 0 1 2 0 0 0 0 0 0 0 0 0 0 0 0 0 0 0 0 0 0 0 0 0 0 0 0 0 0 0 0 0 0 0 0 0 0 0 0 0 0
0 0 0 1 2 5 2 0 0 0 0 0 0 0 0 0 0 0 0 0 0 0 0 0 0 0 0 0 0 0 0 0 0 0 0 0 0 0 0 0 0 0 0 0 0 0 0
0 0 0 0 0 0 1 0 0 0 0 0 0 0 0 0 0 0 0 0 0 0 0 0 0 0 0 0 0 0 0 0 0 0 0 0 0 0 0 0 0 0 0 0 0 0 0
0 0 0 0 0 0 0 0 0 0 0 0 0 0 0 0 0 0 0 0 0 0 0 0 0 0 0 0 0 0 0 0 0 0 0 0 0 0 0 0 0 0 0 0 0 0 0
0 0 0 0 0 0 0 0 0 0 0 0 0 0 0 0 0 0 0 0 0 0 0 0 0 0 0 0 0 0 0 0 0 0 0 0 0 0 0 0 0 0 0 0 0 0 0
0 0 0 0 0 0 0 0 4 0 0 0 0 0 0 0 0 0 0 0 0 0 0 0 0 0 0 0 0 0 0 0 0 0 0 0 0 0 0 0 0 0 0 0 0 0 0
0 0 0 0 0 0 0 2 2 0 0 0 0 0 0 0 0 0 0 0 0 0 0 0 0 0 0 0 0 0 0 0 0 0 0 0 0 0 0 0 0 0 0 0 0 0 0

GFSGBSN_con_sbcape_102.txt.gz
CAPE
19 28 51 100 116 149 202 276 275 249 214 222 145 102 90 80 33 33 29 47 77 95 39 1 13 72 0 0 0 0 39 4 0 0 0 0 0 0 0 0 0 0 0 0 0 0 0
25 54 88 120 185 304 433 431 406 421 320 340 229 107 72 24 18 5 5 50 63 46 55 35 39 94 0 0 0 0 0 0 0 0 0 0 0 0 0 0 0 0 0 0 0 0 0
30 83 99 129 203 348 412 428 377 429 397 398 298 161 120 55 35 23 41 28 1 1 9 50 62 80 41 7 0 0 0 0 0 0 0 0 0 0 0 0 0 0 0 0 0 0 0
47 87 83 73 200 394 388 359 362 259 267 240 242 211 12 15 10 19 84 46 54 13 57 30 80 12 18 1 0 0 0 0 0 0 0 0 0 0 0 0 0 0 0 0 0 0 0
55 93 49 82 204 292 291 295 31 187 167 7 128 59 19 19 7 48 1 0 1 70 96 63 55 14 35 34 0 0 0 0 0 0 0 0 0 0 0 0 0 0 0 0 0 0 0
70 65 62 52 102 217 227 255 152 63 75 12 4 36 52 98 32 0 0 125 224 290 103 0 9 25 35 3 0 0 0 0 0 0 0 0 0 0 0 0 0 0 0 0 0 0 0
64 53 67 39 38 47 93 142 161 186 153 96 66 79 78 0 0 0 0 0 24 4 55 0 0 25 1 0 0 0 0 0 0 0 0 0 0 0 0 0 0 0 0 0 0 0 0
59 45 54 49 29 18 19 43 65 52 50 34 39 75 62 0 0 0 0 0 0 0 0 2 21 11 7 0 3 0 0 0 0 0 0 0 0 0 0 0 0 0 0 0 0 0 0
54 64 28 43 33 29 31 19 22 60 75 18 2 55 22 2 7 4 4 12 0 0 2 5 18 18 8 1 0 0 0 0 0 0 0 0 0 0 0 0 0 0 0 0 0 0 1
43 55 26 31 32 11 19 15 4 22 27 44 26 13 23 38 12 3 10 21 6 2 8 3 7 3 7 2 0 0 0 0 0 0 0 0 0 0 0 0 0 0 0 0 1 7 6
24 51 30 6 6 3 3 1 0 0 0 0 16 8 9 0 0 1 7 5 2 6 1 8 16 2 1 0 0 1 0 0 0 0 0 0 0 0 0 0 0 0 0 1 4 1 15
19 39 47 13 1 0 0 0 1 6 0 0 0 0 0 0 0 0 0 1 0 2 4 6 6 18 15 3 2 0 0 0 0 0 0 0 0 0 0 0 0 0 0 4 9 3 13
10 30 38 31 2 0 0 0 0 4 1 0 0 0 0 0 0 0 0 0 1 10 3 14 42 11 2 1 0 0 0 0 0 0 2 0 0 0 0 1 2 1 1 5 5 5 7
11 30 41 28 16 5 5 5 6 14 23 16 0 0 0 0 0 0 0 0 1 11 15 5 9 0 1 0 0 0 0 0 0 0 2 3 3 0 0 0 0 2 13 16 9 12 15
20 42 33 28 18 14 10 8 5 10 22 16 0 0 0 0 0 0 0 1 7 0 0 7 0 1 3 0 0 0 0 3 1 0 1 2 5 0 0 1 0 8 37 7 23 0 11
18 28 8 6 5 7 8 10 5 5 10 0 0 0 0 0 0 0 0 3 0 0 0 0 0 0 0 0 0 0 0 0 3 0 0 0 2 0 0 0 0 6 16 11 16 11 3
15 17 5 7 1 3 2 1 2 2 1 0 0 0 0 0 0 0 9 6 0 0 0 0 0 0 0 0 0 0 0 0 0 0 1 3 0 0 0 1 4 16 13 4 7 1 10
5 12 13 2 8 3 0 4 1 2 0 0 0 0 0 0 0 1 2 0 0 0 0 0 0 0 0 0 0 0 0 0 0 0 0 0 0 1 0 0 0 0 0 0 1 0 0
0 11 18 10 0 8 1 1 0 1 0 0 0 0 0 0 2 0 0 0 0 0 0 0 0 0 0 0 0 0 0 0 0 0 0 0 0 0 0 0 0 0 0 0 0 0 0
0 4 6 15 5 2 6 1 0 0 0 0 0 0 0 0 0 0 0 0 0 0 0 0 0 0 0 0 0 0 0 0 0 0 0 0 0 0 0 0 0 0 0 0 0 0 0
0 0 2 3 12 0 1 5 0 0 0 0 0 0 0 0 0 0 0 0 0 0 0 0 0 0 0 0 0 0 0 0 0 0 0 0 0 0 0 0 0 0 0 0 0 0 0
0 0 2 2 9 4 0 0 1 0 0 0 0 0 0 0 0 0 0 0 0 0 0 0 0 0 0 0 0 0 0 0 0 0 0 0 0 0 0 0 0 0 0 0 0 0 0
0 0 0 6 6 4 0 0 0 0 0 0 0 0 0 0 0 0 0 0 0 0 0 0 0 0 0 0 0 0 0 0 0 0 0 0 0 0 0 0 0 0 0 0 0 0 0
0 0 0 0 4 2 0 0 0 0 0 0 0 0 0 0 0 0 0 0 0 0 0 0 0 0 0 0 0 0 0 0 0 0 0 0 0 0 0 0 0 0 0 0 0 0 0
0 0 0 0 0 1 1 0 0 0 0 0 0 0 0 0 0 0 0 0 0 0 0 0 0 0 0 0 0 0 0 0 0 0 0 0 0 0 0 0 0 0 0 0 0 0 0
0 0 0 0 0 1 0 0 0 0 0 0 0 0 0 0 0 0 0 0 0 0 0 0 0 0 0 0 0 0 0 0 0 0 0 0 0 0 0 0 0 0 0 0 0 0 0
0 0 0 0 0 0 0 0 1 0 0 0 0 0 0 0 0 0 0 0 0 0 0 0 0 0 0 0 0 0 0 0 0 0 0 0 0 0 0 0 0 0 0 0 0 0 0
0 0 0 0 0 0 0 0 0 0 0 0 0 0 0 0 0 0 0 0 0 0 0 0 0 0 0 0 0 0 0 0 0 0 0 0 0 0 0 0 0 0 0 0 0 0 0
0 0 0 0 0 0 0 0 3 0 0 0 0 0 0 0 0 0 0 0 0 0 0 0 0 0 0 0 0 0 0 0 0 0 0 0 0 0 0 0 0 0 0 0 0 0 0

GFSGBSN_con_sbcape_105.txt.gz
CAPE
58 76 72 55 202 320 390 404 353 413 378 185 160 164 131 102 52 28 24 34 79 88 54 0 17 113 1 0 0 0 19 4 0 0 0 0 0 0 0 0 0 0 0 0 0 0 0
72 71 52 72 173 230 387 339 194 265 375 204 189 148 89 32 16 24 11 63 94 90 63 20 36 95 35 39 0 0 8 0 0 0 0 0 0 0 0 0 0 0 0 0 0 0 0
71 39 36 57 114 135 222 237 166 201 213 261 188 132 114 108 62 40 20 5 1 25 7 13 11 65 53 25 0 0 0 0 0 0 0 0 0 0 0 0 0 0 0 0 0 0 0
71 47 32 38 30 91 142 186 293 297 235 201 171 20 52 38 28 18 40 51 35 0 0 6 44 48 52 6 3 0 0 0 0 0 0 0 0 0 0 0 0 0 0 0 0 0 0
61 58 47 50 25 32 86 74 29 104 113 86 186 65 12 28 11 40 0 0 0 33 36 44 49 40 75 1 0 0 0 0 0 0 0 0 0 0 0 0 0 0 0 0 0 0 0
63 41 59 42 21 17 22 47 67 107 110 87 75 117 143 41 5 2 61 113 87 50 46 36 33 9 9 5 0 7 0 0 0 0 0 0 0 0 0 0 0 0 0 0 0 0 0
56 19 49 32 21 18 14 37 56 46 59 66 150 63 0 0 0 0 32 40 59 0 22 27 1 25 4 0 0 0 0 0 0 0 0 0 0 0 0 0 0 0 0 0 0 0 0
56 44 25 29 26 16 9 14 23 33 31 43 86 45 14 2 0 0 2 17 5 2 2 4 19 16 17 16 12 0 0 0 0 0 0 0 0 0 0 0 0 0 0 0 0 0 0
44 55 10 14 25 14 5 26 30 56 61 70 73 47 19 29 3 24 0 3 0 0 3 1 15 14 7 5 3 1 0 0 0 0 0 0 0 0 0 0 0 0 0 0 0 0 0
14 53 37 3 11 19 14 15 25 24 18 40 29 46 22 14 1 13 14 28 8 5 26 2 8 1 7 5 2 0 0 0 0 0 0 0 0 0 0 0 0 0 0 0 1 2 1
13 30 65 17 0 3 9 11 24 56 0 0 5 2 21 0 3 15 2 0 1 3 10 7 14 1 4 0 0 0 0 0 0 0 0 0 0 0 0 0 0 0 0 0 4 1 2
17 36 53 34 17 17 16 21 28 47 47 8 0 0 0 1 1 0 2 1 0 3 7 8 16 18 9 1 0 0 0 0 0 0 0 0 0 0 1 0 0 0 1 2 0 1 2
20 12 23 33 13 14 18 22 20 27 27 21 1 0 0 0 12 0 0 0 5 17 3 20 20 9 1 0 0 0 0 0 1 4 2 1 0 0 0 1 0 1 5 5 7 7 5
25 9 4 4 8 5 3 6 14 13 16 10 0 0 0 0 0 0 0 0 10 18 15 12 7 2 1 0 0 0 0 1 0 1 3 8 7 0 0 1 1 1 6 7 3 10 5
22 25 6 2 1 4 2 2 3 5 15 0 0 0 0 0 0 0 0 8 26 8 4 4 2 0 0 0 0 3 4 6 3 1 0 1 4 0 0 6 6 2 22 9 8 2 4
11 22 9 5 0 0 2 1 1 4 2 0 0 0 0 0 0 0 8 2 3 1 0 0 0 1 0 0 0 3 2 2 0 0 1 1 7 0 0 0 3 2 0 12 22 5 3
1 13 12 7 2 0 0 1 0 0 0 0 0 0 0 0 0 0 42 16 0 0 1 1 0 0 0 0 3 2 0 0 1 0 1 4 2 0 0 1 4 3 4 4 3 0 6
0 10 15 14 6 1 0 0 0 0 0 0 0 0 0 0 5 2 9 5 1 0 0 0 0 0 0 0 6 4 2 2 0 3 3 0 0 0 0 0 0 0 4 0 2 6 4
0 2 4 12 14 7 1 0 0 0 0 0 0 0 0 0 23 7 0 0 0 0 0 0 0 0 0 0 0 0 0 0 0 3 3 0 0 0 0 0 0 0 0 0 0 0 0
0 0 3 6 13 5 3 2 0 0 0 0 0 0 0 0 0 0 0 0 0 0 0 0 0 0 0 0 0 0 0 0 0 0 0 0 0 0 0 0 0 0 0 0 0 1 0
0 0 1 5 5 3 1 2 0 0 0 0 0 0 0 0 0 0 0 0 0 0 0 0 0 0 0 0 0 0 0 0 0 0 0 0 0 0 0 0 0 0 0 0 0 0 0
0 0 0 4 3 2 0 1 0 0 0 0 0 0 0 0 0 0 0 0 0 0 0 0 0 0 0 0 0 0 0 0 0 0 0 0 0 0 0 0 0 0 0 0 0 0 0
0 0 0 0 2 0 0 0 1 0 0 0 0 0 0 0 0 0 0 0 0 0 0 0 0 0 0 0 0 0 0 0 0 0 0 0 0 0 0 0 0 0 0 0 0 0 0
0 0 0 0 0 1 0 0 1 0 0 0 0 0 0 0 0 0 0 0 0 0 0 0 0 0 0 0 0 0 0 0 0 0 0 0 0 0 0 0 0 0 0 0 0 0 0
0 0 0 0 0 0 1 0 0 0 0 0 0 0 0 0 0 0 0 0 0 0 0 0 0 0 0 0 0 0 0 0 0 0 0 0 0 0 0 0 0 0 0 0 0 0 0
3 0 0 0 0 0 0 1 3 0 0 0 0 0 0 0 0 0 0 0 0 0 0 0 0 0 0 0 0 0 0 0 0 0 0 0 0 0 0 0 0 0 0 0 0 0 0
0 0 0 0 0 0 0 0 5 0 0 0 0 0 0 0 0 0 0 0 0 0 0 0 0 0 0 0 0 0 0 0 0 0 0 0 0 0 0 0 0 0 0 0 0 0 0
3 0 0 0 0 0 0 0 3 0 0 0 0 0 0 0 0 0 0 0 0 0 0 0 0 0 0 0 0 0 0 0 0 0 0 0 0 0 0 0 0 0 0 0 0 0 0
2 5 0 0 0 0 0 0 2 1 0 0 0 0 0 0 0 0 0 0 0 0 0 0 0 0 0 0 0 0 0 0 0 0 0 0 0 0 0 0 0 0 0 0 0 0 0

GFSGBSN_con_sbcape_108.txt.gz
CAPE
41 28 61 55 66 43 84 150 124 118 226 247 172 119 114 131 158 122 62 63 152 142 62 0 0 135 36 26 6 0 20 0 0 0 0 0 0 0 0 0 0 0 0 0 0 0 0
39 35 45 49 67 33 27 146 296 302 274 287 192 138 100 117 134 107 146 127 149 123 74 0 23 141 54 66 0 0 2 0 0 0 0 0 0 0 0 0 0 0 0 0 0 0 0
30 63 54 32 26 40 55 38 99 275 275 133 166 152 138 199 186 127 76 20 66 84 51 23 0 126 69 30 2 0 0 0 0 0 0 0 0 0 0 0 0 0 0 0 0 0 0
16 57 37 31 32 38 27 60 54 174 243 262 81 151 124 143 73 61 74 58 6 1 3 43 24 65 92 17 0 0 0 0 0 0 0 0 0 0 0 0 0 0 0 0 0 0 0
19 46 30 35 41 35 42 44 58 101 136 116 132 162 143 75 87 39 10 22 61 41 11 14 29 29 45 0 0 1 0 0 0 0 0 0 0 0 0 0 0 0 0 0 0 0 0
22 22 26 31 38 32 19 27 35 36 85 92 60 18 13 9 3 11 122 12 44 46 36 6 1 16 2 1 0 0 0 0 0 0 0 0 0 0 0 0 0 0 0 0 0 0 0
38 14 19 34 42 58 53 41 29 52 28 59 1 18 0 0 0 1 57 47 21 2 1 10 5 14 0 0 0 5 0 0 0 0 0 0 0 0 0 0 0 0 0 0 0 0 0
19 38 2 26 30 43 58 53 26 23 16 19 1 15 8 0 0 0 14 9 2 0 0 3 9 13 14 0 4 0 0 0 0 0 0 0 0 0 0 0 0 0 0 0 0 0 0
10 27 39 3 15 16 30 34 64 25 19 19 38 11 8 0 0 0 0 1 3 0 1 4 16 10 8 7 3 0 0 0 0 0 0 0 0 0 0 0 0 0 0 0 0 0 0
12 12 34 32 28 17 22 42 60 57 35 15 30 17 20 7 4 5 1 4 5 1 4 1 7 1 9 5 2 0 0 0 0 0 0 0 0 0 0 0 0 0 0 0 0 0 0
39 17 3 11 16 23 18 31 38 43 37 20 4 0 0 0 0 11 0 0 0 1 0 7 14 1 12 0 0 2 0 0 0 0 0 0 0 0 0 0 0 0 0 0 1 0 0
36 5 4 1 1 3 4 4 15 33 18 6 0 0 0 12 2 0 0 0 4 5 5 4 9 13 3 2 0 1 0 0 0 0 0 0 0 0 0 0 0 0 0 0 0 0 0
28 5 12 3 0 0 2 4 7 11 17 1 0 0 0 0 1 0 0 0 1 2 2 13 32 10 1 0 0 0 0 0 0 0 0 0 0 0 0 1 0 0 0 0 0 0 0
18 16 7 8 3 0 1 2 2 3 4 0 0 0 0 0 0 0 0 1 0 20 5 8 1 0 1 0 0 0 0 0 0 0 0 0 0 0 0 0 1 3 0 0 0 0 0
14 19 6 8 5 3 0 0 1 1 0 0 0 0 0 0 0 0 0 0 18 0 2 0 5 0 0 0 0 1 1 0 0 0 0 0 0 0 0 0 1 0 3 0 0 0 0
4 14 16 6 5 2 1 0 0 1 0 0 0 0 0 0 0 0 0 1 0 1 0 0 0 0 0 0 0 1 0 0 0 0 0 0 0 0 0 0 0 6 0 3 2 0 0
1 7 11 6 3 1 0 0 0 0 0 0 0 0 0 0 0 0 3 1 0 0 0 0 0 0 0 0 1 0 0 0 1 0 0 0 0 0 0 0 0 1 0 0 1 0 1
2 3 3 7 5 5 1 0 1 0 0 0 0 0 0 0 0 1 0 0 0 0 0 0 0 0 0 0 0 1 0 0 0 0 0 0 0 0 0 0 0 0 0 0 0 0 0
2 0 4 2 7 3 1 1 0 0 0 0 0 0 0 0 0 0 0 0 0 0 0 0 0 0 0 0 0 0 0 0 0 0 0 0 0 0 0 0 0 0 0 0 0 0 0
1 1 0 3 12 5 0 0 0 0 0 0 0 0 0 0 0 0 0 0 0 0 0 0 0 0 0 0 0 0 0 0 0 0 0 0 0 0 0 0 0 0 0 0 0 0 0
0 0 0 2 5 5 0 0 0 0 0 0 0 0 0 0 0 0 0 0 0 0 0 0 0 0 0 0 0 0 0 0 0 0 0 0 0 0 0 0 0 0 0 0 0 0 0
0 0 0 0 2 2 2 1 0 0 0 0 0 0 0 0 0 0 0 0 0 0 0 0 0 0 0 0 0 0 0 0 0 0 0 0 0 0 0 0 0 0 0 0 0 0 0
0 0 0 0 0 2 1 3 1 0 0 0 0 0 0 0 0 0 0 0 0 0 0 0 0 0 0 0 0 0 0 0 0 0 0 0 0 0 0 0 0 0 0 0 0 0 0
0 0 0 0 0 0 0 2 1 0 0 0 0 0 0 0 0 0 0 0 0 0 0 0 0 0 0 0 0 0 0 0 0 0 0 0 0 0 0 0 0 0 0 0 0 0 0
0 0 0 0 0 0 0 0 3 0 0 0 0 0 0 0 0 0 0 0 0 0 0 0 0 0 0 0 0 0 0 0 0 0 0 0 0 0 0 0 0 0 0 0 0 0 0
0 0 0 0 0 0 0 2 1 0 0 0 0 0 0 0 0 0 0 0 0 0 0 0 0 0 0 0 0 0 0 0 0 0 0 0 0 0 0 0 0 0 0 0 0 0 0
0 0 0 0 0 0 0 0 4 0 0 0 0 0 0 0 0 0 0 0 0 0 0 0 0 0 0 0 0 0 0 0 0 0 0 0 0 0 0 0 0 0 0 0 0 0 0
6 0 0 0 0 0 0 0 4 0 0 0 0 0 0 0 0 0 0 0 0 0 0 0 0 0 0 0 0 0 0 0 0 0 0 0 0 0 0 0 0 0 0 0 0 0 0
10 5 0 0 0 0 0 0 0 2 0 0 0 0 0 0 0 0 0 0 0 0 0 0 0 0 0 0 0 0 0 0 0 0 0 0 0 0 0 0 0 0 0 0 0 0 0

GFSGBSN_con_sbcape_111.txt.gz
CAPE
27 29 35 42 42 50 30 65 172 248 333 94 64 125 129 152 154 90 91 58 213 167 45 0 20 118 3 15 0 0 3 6 0 0 0 0 0 0 0 0 0 0 0 0 0 0 0
26 21 30 39 45 36 39 30 138 202 202 183 165 144 126 119 160 201 205 238 223 180 43 8 15 78 23 5 0 0 0 0 0 0 0 0 0 0 0 0 0 0 0 0 0 0 0
26 19 27 23 26 23 37 81 81 160 232 302 258 171 167 180 238 229 170 182 83 110 82 17 9 62 25 16 1 0 0 0 0 0 0 0 0 0 0 0 0 0 0 0 0 0 0
21 20 29 32 46 50 46 43 86 110 173 303 203 141 129 62 144 243 261 98 66 61 84 40 31 21 34 2 0 0 0 0 0 0 0 0 0 0 0 0 0 0 0 0 0 0 0
8 9 27 33 41 49 52 61 47 73 81 146 247 265 182 151 56 43 55 40 49 15 85 9 0 18 32 0 0 0 0 0 0 0 0 0 0 0 0 0 0 0 0 0 0 0 0
10 1 9 21 34 56 65 57 62 74 60 20 32 0 1 0 3 133 8 2 3 0 0 1 0 2 0 8 0 0 0 0 0 0 0 0 0 0 0 0 0 0 0 0 0 0 0
38 3 0 0 3 24 33 81 34 33 48 3 10 34 0 0 3 91 4 0 0 0 1 10 13 7 5 0 0 0 0 0 0 0 0 0 0 0 0 0 0 0 0 0 0 0 0
37 28 7 1 1 2 25 58 44 31 17 16 1 0 0 0 0 0 0 0 5 0 1 1 0 9 11 11 10 0 0 0 0 0 0 0 0 0 0 0 0 0 0 0 0 0 0
32 25 14 7 7 21 40 37 46 37 11 16 3 0 0 0 0 0 0 1 0 0 1 1 6 2 1 2 5 0 0 0 0 0 0 0 0 0 0 0 0 0 0 0 0 0 0
28 11 7 1 1 2 11 21 35 38 33 5 0 0 0 0 0 0 0 1 0 0 0 0 6 2 3 2 5 0 0 0 0 0 0 0 0 0 0 0 0 0 0 0 0 0 0
28 12 10 3 2 6 9 11 7 16 28 2 0 0 0 0 0 0 0 0 0 0 0 3 8 1 2 0 0 0 0 0 0 0 0 0 0 0 0 0 0 0 0 0 0 0 0
31 21 10 7 5 5 10 7 5 0 1 3 0 0 0 0 0 0 0 0 0 0 0 1 6 15 8 0 0 0 0 0 0 0 0 0 0 0 0 0 0 0 0 0 0 0 0
16 24 7 9 8 6 5 9 7 4 0 0 0 0 0 0 0 0 0 0 0 0 4 6 27 7 1 1 0 0 0 0 0 0 0 0 0 0 0 0 0 0 0 0 0 0 0
20 17 8 4 9 8 6 6 3 1 0 0 0 0 0 0 0 0 0 0 0 13 26 7 0 1 3 0 0 0 0 0 0 0 0 0 0 0 0 0 0 2 0 0 0 0 0
5 15 9 6 9 7 6 6 4 0 0 0 0 0 0 0 0 0 0 0 0 0 0 0 0 1 0 0 0 0 0 0 0 0 0 0 0 0 0 0 0 0 0 0 0 0 0
4 7 7 5 6 3 6 6 4 1 0 0 0 0 0 0 0 0 0 0 0 0 0 0 0 0 0 0 0 0 0 0 0 0 0 0 0 0 0 0 0 4 0 0 0 0 0
6 5 7 4 4 4 3 5 2 1 0 0 0 0 0 0 0 0 0 0 0 0 0 0 0 0 0 0 0 0 0 0 0 0 0 0 0 0 0 0 0 0 0 0 0 0 0
8 2 4 2 1 2 3 3 1 0 0 0 0 0 0 0 0 0 0 0 0 0 0 0 0 0 0 0 0 0 0 0 0 0 0 0 0 0 0 0 0 0 0 0 0 0 0
9 3 0 0 1 2 3 3 2 0 0 0 0 0 0 0 0 0 0 0 0 0 0 0 0 0 0 0 0 0 0 0 0 0 0 0 0 0 0 0 0 0 0 0 0 0 0
3 4 0 0 0 0 0 2 0 0 0 0 0 0 0 0 0 0 0 0 0 0 0 0 0 0 0 0 0 0 0 0 0 0 0 0 0 0 0 0 0 0 0 0 0 0 0
0 2 2 0 1 0 0 1 0 0 0 0 0 0 0 0 0 0 0 0 0 0 0 0 0 0 0 0 0 0 0 0 0 0 0 0 0 0 0 0 0 0 0 0 0 0 0
0 0 0 0 0 1 0 0 0 0 0 0 0 0 0 0 0 0 0 0 0 0 0 0 0 0 0 0 0 0 0 0 0 0 0 0 0 0 0 0 0 0 0 0 0 0 0
0 0 0 0 0 0 0 1 0 0 0 0 0 0 0 0 0 0 0 0 0 0 0 0 0 0 0 0 0 0 0 0 0 0 0 0 0 0 0 0 0 0 0 0 0 0 0
0 0 0 0 0 0 1 3 0 0 0 0 0 0 0 0 0 0 0 0 0 0 0 0 0 0 0 0 0 0 0 0 0 0 0 0 0 0 0 0 0 0 0 0 0 0 0
0 0 0 0 0 0 0 3 0 0 0 0 0 0 0 0 0 0 0 0 0 0 0 0 0 0 0 0 0 0 0 0 0 0 0 0 0 0 0 0 0 0 0 0 0 0 0
0 0 0 0 0 0 0 1 2 0 0 0 0 0 0 0 0 0 0 0 0 0 0 0 0 0 0 0 0 0 0 0 0 0 0 0 0 0 0 0 0 0 0 0 0 0 0
7 1 0 0 0 0 0 0 2 0 0 0 0 0 0 0 0 0 0 0 0 0 0 0 0 0 0 0 0 0 0 0 0 0 0 0 0 0 0 0 0 0 0 0 0 0 0
15 11 0 0 0 0 0 0 0 0 0 0 0 0 0 0 0 0 0 0 0 0 0 0 0 0 0 0 0 0 0 0 0 0 0 0 0 0 0 0 0 0 0 0 0 0 0
5 17 10 0 0 0 0 0 0 0 0 0 0 0 0 0 0 0 0 0 0 0 0 0 0 0 0 0 0 0 0 0 0 0 0 0 0 0 0 0 0 0 0 0 0 0 0

GFSGBSN_con_sbcape_114.txt.gz
CAPE
14 18 19 30 31 30 53 90 107 133 157 153 163 200 209 149 59 45 77 87 121 246 47 13 36 234 11 14 0 0 16 0 0 0 0 0 0 0 0 0 0 0 0 0 0 0 0
20 21 21 22 24 29 34 88 124 161 263 273 209 166 121 95 143 154 188 172 164 192 31 16 5 72 15 0 0 0 0 0 0 0 0 0 0 0 0 0 0 0 0 0 0 0 0
17 17 31 18 15 36 33 70 101 152 256 319 257 199 171 158 227 247 302 255 198 172 77 7 17 32 22 46 1 0 0 0 0 0 0 0 0 0 0 0 0 0 0 0 0 0 0
15 3 5 12 39 58 40 51 49 85 120 228 214 126 98 202 298 274 234 164 50 35 40 73 24 4 55 1 3 0 0 0 0 0 0 0 0 0 0 0 0 0 0 0 0 0 0
5 4 2 2 4 36 75 53 52 21 16 104 176 156 92 70 126 121 198 174 86 35 52 4 0 0 4 2 0 0 0 0 0 0 0 0 0 0 0 0 0 0 0 0 0 0 0
48 9 2 0 0 4 53 44 29 30 3 19 0 0 0 82 94 39 28 5 3 0 0 0 0 0 0 13 1 0 0 0 0 0 0 0 0 0 0 0 0 0 0 0 0 0 0
64 27 27 17 18 30 61 72 15 14 5 1 3 0 4 6 84 72 0 0 0 0 1 24 12 7 2 3 0 0 0 0 0 0 0 0 0 0 0 0 0 0 0 0 0 0 0
37 13 17 21 21 23 29 57 51 13 5 0 0 0 2 0 0 0 0 0 3 0 1 0 4 13 19 1 0 1 0 0 0 0 0 0 0 0 0 0 0 0 0 0 0 0 0
16 13 15 15 12 18 19 20 42 33 1 1 0 0 0 0 0 0 0 0 0 0 1 2 7 2 2 0 0 0 0 0 0 0 0 0 0 0 0 0 0 0 0 0 0 0 0
12 9 8 13 9 11 14 16 24 21 0 0 0 0 0 0 0 0 0 0 0 0 0 0 6 7 14 19 0 0 0 0 0 0 0 0 0 0 0 0 0 0 0 0 0 0 0
17 13 6 8 16 8 14 4 13 12 3 0 0 0 0 0 0 0 0 0 0 0 0 0 6 0 12 1 0 0 0 0 0 0 0 0 0 0 0 0 0 0 0 0 0 0 0
19 12 11 4 6 14 6 4 7 2 0 0 0 0 0 0 0 0 0 0 0 0 0 1 14 7 1 0 0 0 0 0 0 0 0 0 0 0 0 0 0 0 0 0 0 0 0
13 11 6 7 3 9 10 2 2 1 0 0 0 0 0 0 0 0 0 0 0 0 0 25 13 0 0 0 0 0 0 0 0 0 0 0 0 0 0 0 0 0 0 0 0 0 0
6 9 4 6 8 2 8 2 4 1 0 0 0 0 0 0 0 0 0 0 0 5 22 4 7 1 0 0 0 0 0 0 0 0 0 0 0 0 0 0 0 0 0 0 0 0 0
8 2 3 3 3 7 2 6 1 0 0 0 0 0 0 0 0 0 0 0 0 0 0 0 0 0 0 0 0 0 0 0 0 0 0 0 0 0 0 1 0 0 0 0 0 0 0
6 4 5 2 2 2 7 7 5 1 0 0 0 0 0 0 0 0 0 0 0 0 0 0 0 0 0 0 0 0 0 0 0 0 0 0 0 0 0 0 0 0 0 0 0 0 0
6 5 5 2 1 0 0 5 4 0 0 0 0 0 0 0 0 0 0 0 0 0 0 0 0 0 0 0 0 0 0 0 0 0 0 0 0 0 0 0 0 0 0 0 0 0 0
2 4 3 4 3 1 0 0 2 1 0 0 0 0 0 0 0 0 0 0 0 0 0 0 0 0 0 0 0 0 0 0 0 0 0 0 0 0 0 0 0 0 0 0 0 0 0
2 1 1 0 3 2 0 0 0 0 0 0 0 0 0 0 0 0 0 0 0 0 0 0 0 0 0 0 0 0 0 0 0 0 0 0 0 0 0 0 0 0 0 0 0 0 0
0 1 1 0 0 3 1 1 0 0 0 0 0 0 0 0 0 0 0 0 0 0 0 0 0 0 0 0 0 0 0 0 0 0 0 0 0 0 0 0 0 0 0 0 0 0 0
0 0 1 0 0 0 2 2 0 0 0 0 0 0 0 0 0 0 0 0 0 0 0 0 0 0 0 0 0 0 0 0 0 0 0 0 0 0 0 0 0 0 0 0 0 0 0
0 0 0 0 0 0 1 3 1 0 0 0 0 0 0 0 0 0 0 0 0 0 0 0 0 0 0 0 0 0 0 0 0 0 0 0 0 0 0 0 0 0 0 0 0 0 0
0 0 0 0 0 0 1 2 1 0 0 0 0 0 0 0 0 0 0 0 0 0 0 0 0 0 0 0 0 0 0 0 0 0 0 0 0 0 0 0 0 0 0 0 0 0 0
0 0 0 0 0 0 0 2 1 0 0 0 0 0 0 0 0 0 0 0 0 0 0 0 0 0 0 0 0 0 0 0 0 0 0 0 0 0 0 0 0 0 0 0 0 0 0
0 0 0 0 0 0 0 0 1 0 0 0 0 0 0 0 0 0 0 0 0 0 0 0 0 0 0 0 0 0 0 0 0 0 0 0 0 0 0 0 0 0 0 0 0 0 0
1 0 0 0 0 0 0 0 0 0 0 0 0 0 0 0 0 0 0 0 0 0 0 0 0 0 0 0 0 0 0 0 0 0 0 0 0 0 0 0 0 0 0 0 0 0 0
9 4 0 0 0 0 0 0 0 0 0 0 0 0 0 0 0 0 0 0 0 0 0 0 0 0 0 0 0 0 0 0 0 0 0 0 0 0 0 0 0 0 0 0 0 0 0
4 5 0 0 0 0 0 0 0 0 0 0 0 0 0 0 0 0 0 0 0 0 0 0 0 0 0 0 0 0 0 0 0 0 0 0 0 0 0 0 0 0 0 0 0 0 0
0 5 1 0 0 0 0 0 0 0 0 0 0 0 0 0 0 0 0 0 0 0 0 0 0 0 0 0 0 0 0 0 0 0 0 0 0 0 0 0 0 0 0 0 0 0 0

GFSGBSN_con_sbcape_117.txt.gz
CAPE
12 17 25 26 21 41 44 104 183 258 283 313 297 231 166 151 128 115 106 66 70 228 65 57 24 127 18 1 8 0 34 0 0 0 0 0 0 0 0 0 0 0 0 0 0 0 0
8 7 22 44 61 48 53 64 144 278 293 331 262 171 144 203 215 236 159 132 158 183 73 6 42 43 4 0 2 0 0 0 0 0 0 0 0 0 0 0 0 0 0 0 0 0 0
3 5 13 38 40 67 85 56 37 147 196 211 153 102 129 222 213 263 293 259 217 200 71 95 79 3 9 0 3 5 0 0 0 0 0 0 0 0 0 0 0 0 0 0 0 0 0
2 3 7 16 24 48 70 48 25 32 86 149 154 156 211 179 227 254 172 159 143 81 106 39 53 0 31 3 2 1 1 0 0 0 0 0 0 0 0 0 0 0 0 0 0 0 0
38 20 24 33 43 59 88 27 18 0 16 2 15 20 11 80 139 261 291 171 90 15 19 0 0 1 23 3 1 0 0 0 0 0 0 0 0 0 0 0 0 0 0 0 0 0 0
15 17 23 30 37 44 73 13 14 2 3 4 0 0 9 34 46 184 150 13 9 0 0 0 0 0 0 9 0 0 0 0 0 0 0 0 0 0 0 0 0 0 0 0 0 0 0
1 13 12 29 41 37 40 48 8 4 0 1 0 1 18 46 25 13 0 0 0 0 0 20 14 5 3 3 0 0 0 0 0 0 0 0 0 0 0 0 0 0 0 0 0 0 0
10 17 10 22 45 44 40 43 32 1 0 0 0 7 14 12 12 0 0 0 1 0 0 1 1 4 6 0 1 2 0 0 0 0 0 0 0 0 0 0 0 0 0 0 0 0 0
7 12 7 10 29 40 38 19 36 3 1 0 0 0 0 0 0 0 0 0 0 0 0 0 8 4 11 2 11 12 2 0 0 0 0 0 0 0 0 0 0 0 0 0 0 0 0
9 9 13 8 15 34 27 19 22 9 0 0 0 0 0 0 0 0 0 0 0 0 0 0 8 11 2 7 0 0 0 0 0 0 0 0 0 0 0 0 0 0 0 0 0 0 0
19 3 6 7 7 24 22 19 9 4 0 0 0 0 0 0 0 0 0 0 0 0 0 0 6 6 16 0 0 0 0 0 0 0 0 0 0 0 0 0 0 0 0 0 0 0 0
5 3 9 6 4 11 17 11 6 1 0 0 0 0 0 0 0 0 0 0 0 0 0 1 14 11 7 0 0 0 0 0 0 0 0 0 0 0 0 0 0 0 0 0 0 0 0
3 5 5 4 8 5 8 4 0 0 0 0 0 0 0 0 0 0 0 0 0 0 0 0 14 6 1 0 0 0 0 0 0 0 0 0 0 0 0 0 0 0 0 0 0 0 0
6 4 6 6 8 6 4 5 3 1 0 0 0 0 0 0 0 0 0 0 0 2 10 1 3 0 0 0 0 0 0 0 0 0 0 0 0 0 0 0 0 0 0 0 0 0 0
6 0 3 8 6 8 4 3 2 0 0 0 0 0 0 0 0 0 0 0 0 0 0 0 0 0 0 0 0 0 0 0 0 0 0 0 0 0 0 0 0 0 0 0 0 0 0
3 2 0 4 8 6 6 4 2 0 0 0 0 0 0 0 0 0 0 0 0 0 0 0 0 0 0 0 0 0 0 0 0 0 0 0 0 0 0 0 0 0 0 0 0 0 0
3 1 0 1 5 7 5 5 2 0 0 0 0 0 0 0 0 0 0 0 0 0 0 0 0 0 0 0 0 0 0 0 0 0 0 0 0 0 0 0 0 0 0 0 0 0 0
2 3 0 0 1 1 5 5 4 0 0 0 0 0 0 0 0 0 0 0 0 0 0 0 0 0 0 0 0 0 0 0 0 0 0 0 0 0 0 0 0 0 0 0 0 0 0
1 2 2 0 0 1 1 3 6 2 0 0 0 0 0 0 0 0 0 0 0 0 0 0 0 0 0 0 0 0 0 0 0 0 0 0 0 0 0 0 0 0 0 0 0 0 0
0 1 1 0 0 0 0 0 4 3 0 0 0 0 0 0 0 0 0 0 0 0 0 0 0 0 0 0 0 0 0 0 0 0 0 0 0 0 0 0 0 0 0 0 0 0 0
0 0 0 0 0 0 0 0 1 2 0 0 0 0 0 0 0 0 0 0 0 0 0 0 0 0 0 0 0 0 0 0 0 0 0 0 0 0 0 0 0 0 0 0 0 0 0
0 0 0 0 0 0 1 1 0 0 0 0 0 0 0 0 0 0 0 0 0 0 0 0 0 0 0 0 0 0 0 0 0 0 0 0 0 0 0 0 0 0 0 0 0 0 0
0 0 0 0 0 0 0 2 0 0 0 0 0 0 0 0 0 0 0 0 0 0 0 0 0 0 0 0 0 0 0 0 0 0 0 0 0 0 0 0 0 0 0 0 0 0 0
0 0 0 0 0 0 0 0 0 0 0 0 0 0 0 0 0 0 0 0 0 0 0 0 0 0 0 0 0 0 0 0 0 0 0 0 0 0 0 0 0 0 0 0 0 0 0
2 0 0 0 0 0 0 0 0 0 0 0 0 0 0 0 0 0 0 0 0 0 0 0 0 0 0 0 0 0 0 0 0 0 0 0 0 0 0 0 0 0 0 0 0 0 0
7 3 0 0 0 0 0 0 0 0 0 0 0 0 0 0 0 0 0 0 0 0 0 0 0 0 0 0 0 0 0 0 0 0 0 0 0 0 0 0 0 0 0 0 0 0 0
0 11 1 0 0 0 0 0 0 0 0 0 0 0 0 0 0 0 0 0 0 0 0 0 0 0 0 0 0 0 0 0 0 0 0 0 0 0 0 0 0 0 0 0 0 0 0
0 2 5 0 0 0 0 0 0 0 0 0 0 0 0 0 0 0 0 0 0 0 0 0 0 0 0 0 0 0 0 0 0 0 0 0 0 0 0 0 0 0 0 0 0 0 0
0 0 0 0 0 0 0 0 0 0 0 0 0 0 0 0 0 0 0 0 0 0 0 0 0 0 0 0 0 0 0 0 0 0 0 0 0 0 0 0 0 0 0 0 0 0 0